Date StartTime U_cm/s V_cm/s W_cm/s Ustd_cm/s Vstd_cm/s Wstd_cm/s Uvar_(cm/s)^2 Vvar_(cm/s)^2 Wvar_(cm/s)^2 KE_(m/s)^2 TurbulentKE_(m/s)^2 HorizWindSpeed_cm/s FrictionSpeec_cm/s DragCoef SpeedOfSound_m/s SonicTemperature_C Pressure_mb 
05/27/2014  00:00:00     -282.734      -39.823      -23.027       72.312       59.536       44.213     5229.026     3544.571     1954.791        4.639        0.536      285.525       42.504        0.022      343.854       20.256      862.293
05/27/2014  00:01:00     -243.500      -75.599      -11.871       52.258       58.420       33.451     2730.881     3412.891     1118.936        3.620        0.363      254.965       30.048        0.014      343.801       20.163      862.293
05/27/2014  00:02:00     -266.127      -69.969       -3.719       75.848       70.165       43.277     5752.988     4923.062     1872.917        4.414        0.627      275.171       32.710        0.014      343.832       20.217      862.286
05/27/2014  00:03:00     -184.930      -27.578       -9.446       72.775       60.483       37.365     5296.135     3658.249     1396.111        2.270        0.518      186.975       40.240        0.046      343.735       20.053      862.295
05/27/2014  00:04:00     -126.002       -3.298       10.163      110.459       85.014       41.276    12201.299     7227.437     1703.725        1.856        1.057      126.045       39.824        0.100      343.610       19.841      862.304
05/27/2014  00:05:00     -223.644      -91.955        2.073      101.049       97.227       47.067    10210.801     9453.125     2215.300        4.017        1.094      241.811       45.334        0.035      343.768       20.109      862.314
05/27/2014  00:06:00     -338.533      -72.769      -21.686       95.054       72.872       47.701     9035.356     5310.342     2275.410        6.849        0.831      346.266       45.310        0.017      343.878       20.296      862.324
05/27/2014  00:07:00     -233.014      -57.019      -24.383       69.377       75.280       35.948     4813.102     5667.036     1292.288        3.495        0.589      239.889       33.669        0.020      343.770       20.112      862.331
05/27/2014  00:08:00     -116.867       24.692       -5.877       74.075       70.246       38.958     5487.131     4934.465     1517.699        1.312        0.597      119.447       43.361        0.132      343.692       19.981      862.334
05/27/2014  00:09:00     -105.002        5.913       -2.195       62.715       69.896       30.678     3933.160     4885.488      941.131        1.041        0.488      105.168       25.760        0.060      343.702       19.999      862.324
05/27/2014  00:10:00     -163.540      -60.899      -15.615       87.159       70.278       37.006     7596.645     4938.967     1369.428        2.230        0.695      174.511       31.434        0.032      343.470       19.600      862.311
05/27/2014  00:11:00     -222.922      -17.073       -6.786       79.918       75.591       44.262     6386.905     5714.010     1959.148        3.204        0.703      223.575       45.342        0.041      343.364       19.420      862.291
05/27/2014  00:12:00     -332.280       -7.650      -29.291       88.907       74.972       45.802     7904.454     5620.753     2097.793        6.347        0.781      332.368       43.932        0.017      343.496       19.646      862.276
05/27/2014  00:13:00     -297.196      -69.162      -23.771       74.642       78.239       34.788     5571.370     6121.281     1210.216        5.329        0.645      305.137       28.656        0.009      343.503       19.656      862.278
05/27/2014  00:14:00     -185.231     -108.645      -14.218       66.684       54.390       42.540     4446.817     2958.226     1809.642        2.776        0.461      214.743       29.901        0.019      343.408       19.495      862.282
05/27/2014  00:15:00     -193.011      -55.582      -11.442       57.379       47.201       25.531     3292.402     2227.975      651.813        2.332        0.309      200.855       27.482        0.019      343.388       19.463      862.307
05/27/2014  00:16:00     -126.943      -65.416       -7.375       38.170       38.366       25.859     1456.957     1471.958      668.670        1.202        0.180      142.807        7.112        0.002      343.414       19.509      862.312
05/27/2014  00:17:00     -127.207      -42.289      -12.846       36.789       40.370       26.972     1353.450     1629.741      727.490        1.092        0.186      134.052       18.154        0.018      343.449       19.568      862.303
05/27/2014  00:18:00      -68.357      -31.350        3.723       48.764       40.192       25.565     2377.972     1615.408      653.574        0.516        0.232       75.203       24.138        0.103      343.502       19.658      862.293
05/27/2014  00:19:00     -170.520      -33.123      -12.931       38.265       45.957       27.786     1464.229     2112.068      772.068        1.734        0.217      173.707       17.728        0.010      343.484       19.626      862.292
05/27/2014  00:20:00     -136.426      -13.844      -13.997       44.662       40.773       22.872     1994.671     1662.436      523.116        1.159        0.209      137.127       20.408        0.022      343.377       19.446      862.297
05/27/2014  00:21:00     -147.026       17.062       -7.128       48.221       43.077       24.441     2325.265     1855.615      597.359        1.337        0.239      148.012       19.202        0.017      343.330       19.365      862.296
05/27/2014  00:22:00     -175.357       33.283       -6.846       80.951       32.247       29.116     6553.056     1039.888      847.757        2.017        0.422      178.488       39.119        0.048      343.324       19.353      862.271
05/27/2014  00:23:00     -181.189        4.709      -14.875       61.432       34.425       30.145     3773.933     1185.063      908.742        1.947        0.293      181.251       28.458        0.025      343.307       19.325      862.250
05/27/2014  00:24:00     -180.238       25.375      -16.550       47.404       55.042       29.480     2247.134     3029.654      869.052        1.977        0.307      182.016       20.962        0.013      343.882       20.305      862.256
05/27/2014  00:25:00     -141.463      -42.795       -1.798       60.107       43.664       29.483     3612.835     1906.552      869.259        1.412        0.319      147.794       28.680        0.038      343.299       19.311      862.258
05/27/2014  00:26:00     -145.186      -14.870       -7.734       56.271       42.463       26.694     3166.469     1803.110      712.555        1.352        0.284      145.945       29.947        0.042      343.170       19.092      862.253
05/27/2014  00:27:00     -138.161       38.685      -11.522       49.249       39.136       27.111     2425.439     1531.657      735.028        1.270        0.235      143.475       21.380        0.022      343.119       19.007      862.240
05/27/2014  00:28:00     -137.423       60.797       -7.820       43.060       39.115       26.828     1854.162     1530.001      719.732        1.337        0.205      150.271       16.379        0.012      343.152       19.063      862.235
05/27/2014  00:29:00     -110.628       95.354      -16.055       46.500       42.705       34.907     2162.223     1823.675     1218.516        1.340        0.260      146.051       29.588        0.041      343.308       19.328      862.213
05/27/2014  00:30:00     -126.267       68.821      -16.434       36.973       26.143       28.601     1366.990      683.451      818.030        1.191        0.143      143.804       22.678        0.025      343.174       19.101      862.197
05/27/2014  00:31:00     -117.584       56.108      -16.539       39.175       22.914       18.243     1534.651      525.047      332.795        0.982        0.120      130.285       14.583        0.013      343.164       19.081      862.184
05/27/2014  00:32:00     -103.158      -27.341      -11.084       47.442       58.403       16.841     2250.732     3410.955      283.635        0.873        0.297      106.720       12.063        0.013      343.075       18.931      862.186
05/27/2014  00:33:00     -132.114      -21.314       -3.661       42.399       47.842       23.936     1797.710     2288.882      572.920        1.129        0.233      133.822       23.213        0.030      342.861       18.566      862.174
05/27/2014  00:34:00      -99.897       58.511       -7.277       46.480       41.241       31.309     2160.428     1700.837      980.231        0.915        0.242      115.771       29.091        0.063      342.884       18.606      862.161
05/27/2014  00:35:00     -113.913       14.849      -15.387       41.350       31.610       19.563     1709.837      999.216      382.702        0.826        0.155      114.876       20.706        0.032      342.974       18.760      862.158
05/27/2014  00:36:00     -116.497       17.754      -16.137       35.929       24.881       18.327     1290.892      619.081      335.890        0.820        0.112      117.842       15.281        0.017      342.820       18.497      862.156
05/27/2014  00:37:00     -126.324       41.018      -12.312       38.165       28.800       20.793     1456.567      829.431      432.355        1.025        0.136      132.816       15.541        0.014      342.976       18.764      862.159
05/27/2014  00:38:00      -56.935       11.687       -4.475       30.920       29.124       15.713      956.061      848.218      246.897        0.272        0.103       58.122       11.592        0.040      342.979       18.769      862.156
05/27/2014  00:39:00      -94.123      -53.152       -8.255       34.338       30.592       18.024     1179.079      935.861      324.864        0.710        0.122      108.094       14.704        0.019      342.904       18.640      862.147
05/27/2014  00:40:00     -117.624      -51.574        1.234       51.371       31.176       24.943     2638.939      971.968      622.164        1.036        0.212      128.434       21.073        0.027      342.839       18.530      862.155
05/27/2014  00:41:00     -148.811      -26.548       -8.828       31.601       32.716       19.791      998.651     1070.364      391.692        1.269        0.123      151.161       13.738        0.008      342.928       18.682      862.147
05/27/2014  00:42:00      -40.017       10.687        5.998       31.707        9.746       13.856     1005.358       94.983      191.989        0.152        0.065       41.420       17.265        0.174      342.903       18.639      862.133
05/27/2014  00:43:00      -22.938        3.795        1.794       26.185       13.016       12.259      685.676      169.406      150.284        0.077        0.050       23.250        5.263        0.051      342.763       18.400      862.116
05/27/2014  00:44:00        1.969       21.355        6.940       51.402       29.113       19.325     2642.146      847.596      373.446        0.218        0.193       21.446       12.276        0.328      342.847       18.543      862.107
05/27/2014  00:45:00       15.601        8.631       41.640       39.594       37.047       21.273     1567.650     1372.469      452.535        0.272        0.170       17.830       24.569        1.899      342.348       17.695      862.103
05/27/2014  00:46:00       24.406       -5.218       19.215       25.261       20.790       19.578      638.124      432.235      383.280        0.122        0.073       24.958       13.441        0.290      342.534       18.011      862.106
05/27/2014  00:47:00        3.209       -8.940        8.010       25.671       16.050       17.167      659.012      257.618      294.706        0.068        0.061        9.498       12.744        1.800      342.502       17.957      862.117
05/27/2014  00:48:00       -8.362      -37.612       -3.766       28.486       18.369       13.099      811.442      337.421      171.578        0.141        0.066       38.530        8.552        0.049      342.762       18.399      862.131
05/27/2014  00:49:00       38.995      -48.808        0.991       38.196       56.142       31.287     1458.937     3151.926      978.898        0.475        0.279       62.472       35.312        0.319      342.472       17.905      862.138
05/27/2014  00:50:00       11.470        5.300       28.191       28.347       29.012       22.823      803.550      841.674      520.873        0.156        0.108       12.635       13.168        1.086      342.278       17.575      862.124
05/27/2014  00:51:00       50.715      -35.066       11.654       35.530       29.473       24.596     1262.365      868.676      604.985        0.334        0.137       61.657       20.683        0.113      342.366       17.726      862.109
05/27/2014  00:52:00       26.823       -3.773       28.966       43.387       43.362       28.744     1882.400     1880.282      826.198        0.308        0.229       27.087       29.437        1.181      342.179       17.405      862.121
05/27/2014  00:53:00        8.950       -1.469        9.214       18.685       23.939       18.436      349.129      573.089      339.874        0.071        0.063        9.069       16.206        3.193      342.285       17.588      862.119
05/27/2014  00:54:00       60.856      -31.021       -2.334       24.271       22.299       32.848      589.085      497.224     1079.012        0.342        0.108       68.306       19.414        0.081      342.276       17.572      862.088
05/27/2014  00:55:00       41.421      -33.540       -4.890       29.544       18.705       24.864      872.823      349.873      618.237        0.235        0.092       53.297       12.905        0.059      342.186       17.419      862.044
05/27/2014  00:56:00       41.490      -26.859        1.059       23.443       18.040       20.681      549.568      325.435      427.703        0.187        0.065       49.425       12.554        0.065      342.469       17.900      862.053
05/27/2014  00:57:00       -6.539      -37.126       -5.199       26.690       26.382       17.030      712.360      695.999      290.025        0.157        0.085       37.698       15.732        0.174      342.737       18.354      862.102
05/27/2014  00:58:00      -21.534      -14.839        7.696       46.321       19.809       20.238     2145.678      392.405      409.590        0.184        0.147       26.151       18.410        0.496      342.627       18.168      862.133
05/27/2014  00:59:00      -58.440      -54.992       -8.802       46.892       27.910       27.413     2198.837      778.962      751.479        0.512        0.186       80.246       22.005        0.075      342.613       18.144      862.120
05/27/2014  01:00:00      -63.372      -21.513       -1.291       27.388       29.575       15.070      750.091      874.657      227.092        0.317        0.093       66.924       13.269        0.039      342.375       17.740      862.103
05/27/2014  01:01:00      -49.898       -5.092       -1.497       24.178       16.149        9.331      584.553      260.776       87.069        0.173        0.047       50.158       10.847        0.047      342.271       17.563      862.091
05/27/2014  01:02:00      -58.335      -23.148      -13.917       17.743       10.930        9.224      314.804      119.457       85.082        0.233        0.026       62.760        4.155        0.004      342.343       17.685      862.083
05/27/2014  01:03:00      -57.245      -34.804       -7.295       29.539       18.753       15.200      872.557      351.672      231.038        0.300        0.073       66.995       13.357        0.040      342.343       17.686      862.075
05/27/2014  01:04:00      -60.967      -36.695        5.165       67.088       31.548       22.424     4500.819      995.266      502.814        0.554        0.300       71.159       30.181        0.180      342.265       17.554      862.060
05/27/2014  01:05:00     -129.004      -73.816       -2.610       34.380       33.296       24.300     1182.016     1108.639      590.488        1.249        0.144      148.630       18.772        0.016      342.351       17.700      862.040
05/27/2014  01:06:00     -119.190      -14.360       -5.297       38.880       27.439       18.628     1511.649      752.915      346.987        0.853        0.131      120.052       15.249        0.016      342.329       17.662      862.023
05/27/2014  01:07:00     -118.988        4.912      -11.686       39.894       29.805       26.051     1591.552      888.333      678.651        0.874        0.158      119.089       26.427        0.049      342.097       17.267      862.013
05/27/2014  01:08:00      -62.988       14.951       -9.267       28.580       21.032       15.401      816.830      442.350      237.182        0.289        0.075       64.738       15.147        0.055      342.050       17.190      862.005
05/27/2014  01:09:00      -87.483       -9.839       -5.239       26.560       27.934       19.584      705.436      780.325      383.552        0.482        0.093       88.034       13.869        0.025      342.083       17.245      861.995
05/27/2014  01:10:00      -75.575       11.156       -8.780       46.721       24.763       24.637     2182.806      613.221      606.985        0.466        0.170       76.394       27.566        0.130      342.092       17.259      862.002
05/27/2014  01:11:00      -56.165       29.896        3.039       43.706       26.440       24.637     1910.194      699.056      607.002        0.364        0.161       63.625       22.547        0.126      342.107       17.287      861.989
05/27/2014  01:12:00       19.885       -5.910        7.358       21.677       23.695       12.950      469.879      561.446      167.702        0.084        0.060       20.744       13.955        0.453      342.201       17.444      861.969
05/27/2014  01:13:00       28.230       -3.239        1.567       32.227       18.602       12.438     1038.552      346.033      154.711        0.117        0.077       28.415       13.901        0.239      341.734       16.651      861.977
05/27/2014  01:14:00      -76.273      -17.483      -10.554       45.394       26.999       18.696     2060.634      728.920      349.552        0.469        0.157       78.251       21.651        0.077      342.145       17.350      861.988
05/27/2014  01:15:00     -172.548      -44.306       -6.094       40.861       32.387       20.000     1669.655     1048.933      400.002        1.745        0.156      178.146       16.799        0.009      341.973       17.058      861.988
05/27/2014  01:16:00     -209.229      -23.423      -15.098       53.686       53.592       34.568     2882.209     2872.120     1194.945        2.575        0.347      210.536       28.650        0.019      341.846       16.838      861.998
05/27/2014  01:17:00     -221.157       38.725      -15.200       51.960       54.138       32.307     2699.820     2930.892     1043.726        2.866        0.334      224.522       22.400        0.010      341.959       17.031      862.003
05/27/2014  01:18:00     -157.336       27.886      -13.024       67.865       37.375       22.035     4605.669     1396.878      485.550        1.609        0.324      159.788       24.119        0.023      342.125       17.315      862.016
05/27/2014  01:19:00     -142.650       33.409      -14.969       41.624       31.074       19.974     1732.574      965.563      398.958        1.239        0.155      146.510       10.169        0.005      342.266       17.556      862.026
05/27/2014  01:20:00      -63.414       56.938      -15.906       30.478       48.178       21.892      928.930     2321.089      479.243        0.562        0.186       85.225       25.864        0.092      342.235       17.503      862.017
05/27/2014  01:21:00      -59.730       90.015      -11.376       38.394       36.224       25.445     1474.118     1312.214      647.438        0.762        0.172      108.030       24.319        0.051      342.390       17.765      862.008
05/27/2014  01:22:00        0.275       75.395       -0.599       33.625       28.573       19.721     1130.617      816.434      388.918        0.401        0.117       75.395       19.564        0.067      342.327       17.658      862.002
05/27/2014  01:23:00       19.533      108.450      -13.487       28.871       38.114       19.095      833.528     1452.662      364.616        0.749        0.133      110.195       19.547        0.031      342.307       17.624      861.989
05/27/2014  01:24:00       24.710      107.813      -13.519       18.375       33.219       17.130      337.623     1103.475      293.443        0.708        0.087      110.609       18.218        0.027      342.224       17.484      861.965
05/27/2014  01:25:00       12.143       88.704       -8.282       20.090       19.666       11.154      403.600      386.735      124.421        0.450        0.046       89.532       11.406        0.016      342.257       17.538      861.957
05/27/2014  01:26:00      -18.239       51.337       -6.243       11.600       33.408        7.063      134.554     1116.110       49.888        0.215        0.065       54.481        7.518        0.019      342.387       17.760      861.969
05/27/2014  01:27:00       12.527       12.650        9.570       17.922       15.846       12.200      321.185      251.085      148.838        0.056        0.036       17.803       10.914        0.376      342.430       17.834      861.990
05/27/2014  01:28:00       38.464       46.729        9.216       17.359       19.343       17.153      301.329      374.161      294.219        0.236        0.048       60.523        8.649        0.020      342.286       17.590      861.995
05/27/2014  01:29:00      120.591       62.025        9.721       28.874       25.671       27.846      833.723      659.012      775.392        1.038        0.113      135.607       15.355        0.013      342.354       17.705      861.968
05/27/2014  01:30:00      100.033       63.828       12.178       40.185       23.887       23.770     1614.868      570.587      564.990        0.849        0.138      118.662       21.469        0.033      342.505       17.962      861.931
05/27/2014  01:31:00       47.071       57.929       10.825       41.172       31.737       25.407     1695.114     1007.235      645.505        0.452        0.167       74.642       21.268        0.081      342.509       17.969      861.921
05/27/2014  01:32:00       12.624       58.959       -7.420       28.499       20.300       18.088      812.173      412.099      327.163        0.262        0.078       60.295       16.961        0.079      342.436       17.844      861.936
05/27/2014  01:33:00      -79.248        4.284       -5.342       44.336       39.664       21.450     1965.690     1573.230      460.099        0.516        0.200       79.364       14.610        0.034      342.018       17.134      861.947
05/27/2014  01:34:00     -121.082      -39.294      -15.516       57.342       33.840       25.507     3288.127     1145.162      650.605        1.076        0.254      127.298       26.025        0.042      341.919       16.966      861.951
05/27/2014  01:35:00     -109.327      -27.323       -5.013       58.391       29.463       20.405     3409.521      868.091      416.377        0.871        0.235      112.689       22.684        0.041      341.942       17.005      861.974
05/27/2014  01:36:00      -92.173      -12.104       -3.745       35.713       22.781       16.154     1275.400      518.966      260.947        0.536        0.103       92.964       11.971        0.017      341.965       17.046      861.974
05/27/2014  01:37:00      -31.222       -8.833       -1.650       11.825       13.262       10.902      139.825      175.871      118.862        0.074        0.022       32.447        9.503        0.086      342.022       17.141      861.973
05/27/2014  01:38:00      -22.261       10.899        4.796       11.988       13.129        6.431      143.704      172.379       41.363        0.050        0.018       24.786        4.246        0.029      341.905       16.942      861.977
05/27/2014  01:39:00       10.724       10.530       -3.808       25.311       13.965       11.497      640.628      195.007      132.174        0.060        0.048       15.030       10.043        0.446      342.048       17.188      861.953
05/27/2014  01:40:00       26.715        0.368       20.623       27.793       22.694       20.453      772.448      515.003      418.333        0.142        0.085       26.717       10.543        0.156      341.752       16.683      861.957
05/27/2014  01:41:00       19.899       -5.369        0.142       33.043       23.703       22.129     1091.824      561.814      489.672        0.128        0.107       20.610       20.590        0.998      341.999       17.103      861.996
05/27/2014  01:42:00       14.319        9.042       30.026       23.182       17.549       17.326      537.413      307.980      300.183        0.117        0.057       16.935       12.044        0.506      341.882       16.905      862.017
05/27/2014  01:43:00       30.548        2.976        1.347       18.552       15.029       16.942      344.170      225.871      287.027        0.090        0.043       30.693        6.686        0.047      341.968       17.048      862.006
05/27/2014  01:44:00       26.212       39.773        6.188       23.240       32.981       15.976      540.086     1087.779      255.228        0.209        0.094       47.634       18.093        0.144      342.204       17.450      861.975
05/27/2014  01:45:00      -37.004      133.176      -22.046       23.969       34.993       18.993      574.496     1224.536      360.745        1.087        0.108      138.221       17.975        0.017      342.344       17.686      861.915
05/27/2014  01:46:00      -47.041      150.571      -20.053       26.701       29.517       16.061      712.927      871.242      257.968        1.356        0.092      157.748       13.222        0.007      342.196       17.436      861.871
05/27/2014  01:47:00      -32.851      112.899      -19.420       24.709       37.010       16.362      610.544     1369.724      267.724        0.822        0.112      117.581       17.987        0.023      342.174       17.398      861.864
05/27/2014  01:48:00      -23.183       42.987        4.218       22.935       36.854       17.237      526.020     1358.215      297.127        0.229        0.109       48.840       18.736        0.147      342.054       17.196      861.874
05/27/2014  01:49:00      -24.309        4.578       -4.926       24.682       13.730       14.106      609.218      188.499      198.970        0.082        0.050       24.736       16.105        0.424      341.979       17.067      861.875
05/27/2014  01:50:00      -26.417      -18.383        7.337       16.023       12.955       11.254      256.741      167.834      126.661        0.082        0.028       32.184        9.978        0.096      342.028       17.151      861.903
05/27/2014  01:51:00      -75.759      -57.462        2.476       53.359       38.902       27.262     2847.171     1513.351      743.229        0.707        0.255       95.086       17.434        0.034      341.911       16.953      861.931
05/27/2014  01:52:00     -127.335      -96.400      -11.814       43.932       32.124       31.525     1929.999     1031.954      993.842        1.480        0.198      159.710       24.274        0.023      341.678       16.556      861.952
05/27/2014  01:53:00     -135.776      -34.917      -13.532       47.016       30.905       21.577     2210.517      955.139      465.549        1.173        0.182      140.194       12.308        0.008      341.616       16.452      861.954
05/27/2014  01:54:00     -112.735        0.713      -14.133       32.327       24.167       12.852     1045.063      584.024      165.178        0.735        0.090      112.738        7.763        0.005      341.683       16.568      861.951
05/27/2014  01:55:00      -22.239        1.109       -2.880       21.942       14.579       10.741      481.462      212.549      115.370        0.066        0.040       22.266       12.104        0.295      341.652       16.511      861.941
05/27/2014  01:56:00      -34.497       48.725       -3.089       23.069       35.035       10.311      532.202     1227.471      106.326        0.272        0.093       59.701       12.329        0.043      342.046       17.182      861.931
05/27/2014  01:57:00      -21.061       67.316      -10.917       10.020        9.877        8.807      100.395       97.555       77.570        0.268        0.014       70.534        4.877        0.005      342.560       18.053      861.917
05/27/2014  01:58:00      -24.055       64.654      -10.753       11.210       18.582        9.190      125.670      345.298       84.464        0.271        0.028       68.984        9.012        0.017      342.617       18.151      861.922
05/27/2014  01:59:00      -40.555       40.036       -8.034       12.061       16.554        9.094      145.461      274.028       82.706        0.191        0.025       56.988        6.503        0.013      342.480       17.919      861.929
05/27/2014  02:00:00      -20.326       74.056       -4.270       18.567       15.676       10.796      344.723      245.746      116.562        0.331        0.035       76.794        4.836        0.004      342.589       18.106      861.914
05/27/2014  02:01:00       12.757      109.971      -14.006       21.472       28.532       12.883      461.053      814.071      165.976        0.695        0.072      110.709       16.575        0.022      342.771       18.416      861.894
05/27/2014  02:02:00       43.623       65.197       -4.645       20.019       26.448       21.475      400.772      699.513      461.173        0.387        0.078       78.445       10.943        0.019      342.706       18.303      861.894
05/27/2014  02:03:00       18.942       32.184        9.924       18.988       20.724       15.075      360.533      429.496      227.249        0.125        0.051       37.345       13.586        0.132      342.513       17.975      861.887
05/27/2014  02:04:00       34.219       -9.263        0.439       18.490       19.319       15.675      341.876      373.234      245.694        0.111        0.048       35.450       12.943        0.133      342.000       17.104      861.879
05/27/2014  02:05:00        6.020        0.623       -9.532       16.776        8.942        8.119      281.447       79.959       65.911        0.028        0.021        6.052        7.027        1.348      342.236       17.506      861.863
05/27/2014  02:06:00      -70.612      -17.980      -10.912       37.357       20.798       17.100     1395.530      432.568      292.421        0.377        0.106       72.865       15.121        0.043      342.070       17.223      861.864
05/27/2014  02:07:00     -118.337      -24.511       -4.992       52.048       28.897       20.829     2708.978      835.028      433.858        0.930        0.199      120.849       23.505        0.038      341.523       16.295      861.866
05/27/2014  02:08:00     -110.551        1.002       -7.801       56.547       49.962       24.709     3197.556     2496.221      610.531        0.929        0.315      110.556       24.722        0.050      341.398       16.082      861.883
05/27/2014  02:09:00     -129.374      -37.303       -9.407       38.533       34.207       20.772     1484.809     1170.115      431.472        1.065        0.154      134.645       19.488        0.021      341.360       16.019      861.919
05/27/2014  02:10:00     -157.620        6.477      -12.434       38.922       38.838       24.222     1514.947     1508.361      586.693        1.432        0.181      157.753       18.402        0.014      341.479       16.220      861.937
05/27/2014  02:11:00     -140.425        3.096      -15.405       16.639       32.903       10.960      276.854     1082.620      120.132        1.072        0.074      140.460       11.402        0.007      341.544       16.331      861.932
05/27/2014  02:12:00      -87.861       -6.472       -4.977       28.240       22.724       14.345      797.472      516.361      205.766        0.465        0.076       88.099       14.040        0.025      341.417       16.115      861.918
05/27/2014  02:13:00      -46.344       19.500        5.497       32.715       26.197       18.541     1070.277      686.285      343.787        0.233        0.105       50.279       15.478        0.095      341.412       16.105      861.908
05/27/2014  02:14:00      -62.534       -6.550       -0.980       26.700       23.636       14.986      712.896      558.667      224.584        0.272        0.075       62.877       13.054        0.043      341.601       16.428      861.913
05/27/2014  02:15:00       -0.486       -4.761       10.400       27.678       39.593       18.920      766.066     1567.606      357.951        0.141        0.135        4.786       15.022        9.853      341.380       16.053      861.910
05/27/2014  02:16:00      -68.025       27.936        3.318       42.240       25.511       20.803     1784.193      650.829      432.775        0.414        0.143       73.538       20.076        0.075      341.488       16.237      861.906
05/27/2014  02:17:00     -115.011       17.409      -14.266       51.949       30.900       22.485     2698.703      954.783      505.569        0.895        0.208      116.321       23.729        0.042      341.616       16.453      861.911
05/27/2014  02:18:00      -80.219       12.608      -14.730       25.149       22.426       15.448      632.468      502.942      238.650        0.409        0.069       81.204       10.017        0.015      341.571       16.377      861.934
05/27/2014  02:19:00      -70.486      -10.252       -5.259       25.123       17.656       11.222      631.183      311.737      125.935        0.308        0.053       71.228        7.612        0.011      341.549       16.337      861.965
05/27/2014  02:20:00      -26.167       -7.987        2.691       20.622       18.831        9.350      425.247      354.619       87.424        0.081        0.043       27.358       10.553        0.149      341.557       16.351      861.955
05/27/2014  02:21:00      -17.365        5.934       -2.978       17.828       14.367        8.570      317.821      206.408       73.437        0.047        0.030       18.351        7.388        0.162      341.513       16.276      861.926
05/27/2014  02:22:00      -19.705       -5.943        8.307       21.458       21.149       15.917      460.426      447.298      253.352        0.083        0.058       20.581        7.321        0.127      341.472       16.208      861.938
05/27/2014  02:23:00       -8.867       -1.728        6.626       13.674       16.827       15.597      186.974      283.136      243.275        0.042        0.036        9.034       11.885        1.731      341.295       15.910      861.978
05/27/2014  02:24:00      -49.937      -21.106       -4.523       18.131       14.522        8.503      328.743      210.890       72.308        0.179        0.031       54.214        5.326        0.010      341.560       16.358      861.985
05/27/2014  02:25:00      -63.070       -9.677       -6.106       14.393       14.136        9.668      207.157      199.814       93.474        0.230        0.025       63.808        7.598        0.014      341.522       16.293      861.959
05/27/2014  02:26:00      -70.708       -0.099       -9.219       11.794        8.046        8.267      139.107       64.733       68.347        0.268        0.014       70.708        5.896        0.007      341.449       16.169      861.935
05/27/2014  02:27:00      -76.401       15.256      -10.457       19.508       23.495       14.216      380.561      551.992      202.085        0.366        0.057       77.910       10.904        0.020      341.418       16.116      861.915
05/27/2014  02:28:00      -96.652        2.100      -14.017       20.848       23.534       14.983      434.644      553.866      224.478        0.538        0.061       96.675       13.711        0.020      341.424       16.128      861.921
05/27/2014  02:29:00      -69.755      -13.519      -16.478       20.404       21.817       14.682      416.324      475.990      215.572        0.321        0.055       71.053       10.384        0.021      341.315       15.943      861.921
05/27/2014  02:30:00      -71.759        1.472      -10.052       40.211       27.749       16.631     1616.924      770.013      276.601        0.396        0.133       71.774       11.573        0.026      341.214       15.772      861.901
05/27/2014  02:31:00      -71.015       -1.968       -7.475       36.662       28.345       22.043     1344.076      803.437      485.911        0.387        0.132       71.042       19.824        0.078      341.179       15.711      861.876
05/27/2014  02:32:00      -91.193       11.536       -9.708       58.370       39.374       28.680     3407.097     1550.320      822.558        0.716        0.289       91.920       26.661        0.084      341.156       15.674      861.852
05/27/2014  02:33:00     -118.702       -0.519      -19.820       31.514       24.105       18.489      993.119      581.030      341.846        0.820        0.096      118.703       15.869        0.018      341.194       15.737      861.831
05/27/2014  02:34:00      -55.272      -21.789       -1.124       44.493       26.997       17.551     1979.583      728.821      308.039        0.327        0.151       59.412       18.496        0.097      341.181       15.716      861.822
05/27/2014  02:35:00        2.557       -8.941        3.389       16.925       12.995       13.265      286.456      168.879      175.962        0.036        0.032        9.299        7.761        0.696      341.139       15.645      861.826
05/27/2014  02:36:00       13.148      -21.808       12.902       25.908       17.297       18.257      671.234      299.177      333.313        0.106        0.065       25.465       12.533        0.242      341.095       15.572      861.836
05/27/2014  02:37:00      -70.544      -38.890       -6.771       36.028       16.166       15.126     1298.047      261.343      228.789        0.416        0.089       80.553       13.866        0.030      341.129       15.627      861.820
05/27/2014  02:38:00     -111.094      -19.339      -13.232       17.540       13.617       10.962      307.662      185.417      120.168        0.675        0.031      112.765        6.021        0.003      341.113       15.601      861.803
05/27/2014  02:39:00      -81.428      -16.189       -5.456       24.247       15.781       16.443      587.915      249.052      270.366        0.401        0.055       83.021       15.934        0.037      341.150       15.662      861.801
05/27/2014  02:40:00      -99.409       -8.535       -6.247       25.319       19.326       17.772      641.060      373.506      315.859        0.566        0.067       99.775       15.636        0.025      341.051       15.496      861.791
05/27/2014  02:41:00     -100.854      -20.006       -7.605       29.562       32.512       18.319      873.883     1057.020      335.587        0.645        0.113      102.819       11.648        0.013      340.999       15.407      861.777
05/27/2014  02:42:00     -126.155        4.148       -7.373       36.685       23.619       17.978     1345.816      557.841      323.211        0.911        0.111      126.223       15.488        0.015      340.985       15.384      861.782
05/27/2014  02:43:00     -128.528       14.184      -10.816       31.911       34.013       21.566     1018.301     1156.854      465.074        0.974        0.132      129.308       14.788        0.013      340.890       15.223      861.786
05/27/2014  02:44:00     -155.960        8.782      -17.974       44.478       32.301       23.894     1978.281     1043.369      570.912        1.416        0.180      156.208       20.953        0.018      340.898       15.236      861.773
05/27/2014  02:45:00     -155.297      -19.184      -12.117       40.201       38.883       22.956     1616.130     1511.915      526.957        1.414        0.183      156.478       13.760        0.008      340.946       15.318      861.783
05/27/2014  02:46:00     -121.236      -25.314      -10.401       38.429       28.461       18.913     1476.803      810.041      357.707        0.905        0.132      123.851       19.649        0.025      340.904       15.246      861.791
05/27/2014  02:47:00     -100.649        8.667       -5.403       35.350       31.199       20.014     1249.617      973.389      400.577        0.643        0.131      101.021       12.981        0.017      340.921       15.276      861.775
05/27/2014  02:48:00     -152.306        3.684      -15.250       28.901       16.687       15.136      835.279      278.441      229.090        1.239        0.067      152.351       14.726        0.009      340.974       15.364      861.759
05/27/2014  02:49:00     -120.176       -8.571       -8.253       35.463       26.868       20.286     1257.618      721.881      411.523        0.849        0.120      120.481       17.446        0.021      340.910       15.257      861.761
05/27/2014  02:50:00     -108.100       29.708       -3.476       41.191       29.012       16.403     1696.705      841.710      269.045        0.769        0.140      112.108       17.020        0.023      340.987       15.386      861.755
05/27/2014  02:51:00     -152.773        2.512      -12.468       28.077       23.377       15.854      788.290      546.483      251.343        1.254        0.079      152.794       12.444        0.007      341.069       15.526      861.757
05/27/2014  02:52:00     -103.696      -29.899       -6.928       44.861       28.835       21.882     2012.545      831.449      478.804        0.751        0.166      107.920       22.089        0.042      340.932       15.293      861.751
05/27/2014  02:53:00     -110.753       -4.974      -11.143       36.002       22.547       22.068     1296.111      508.358      486.997        0.735        0.115      110.865       21.688        0.038      340.926       15.283      861.745
05/27/2014  02:54:00     -141.758       31.558      -13.899       35.273       31.124       20.938     1244.150      968.721      438.398        1.197        0.133      145.229       11.255        0.006      341.011       15.429      861.717
05/27/2014  02:55:00     -113.175       30.665       -7.883       50.306       33.677       25.416     2530.732     1134.166      645.987        0.906        0.216      117.256       22.558        0.037      340.957       15.337      861.706
05/27/2014  02:56:00      -91.216      -41.487       -1.637       44.813       36.080       24.408     2008.238     1301.775      595.765        0.697        0.195      100.208       21.310        0.045      340.996       15.403      861.732
05/27/2014  02:57:00      -87.944       -2.520        0.298       30.505       41.563       22.191      930.532     1727.494      492.433        0.544        0.158       87.980       17.641        0.040      340.897       15.235      861.757
05/27/2014  02:58:00     -117.962      -24.907      -12.607       27.352       26.390       21.753      748.132      696.425      473.208        0.831        0.096      120.563       18.301        0.023      340.981       15.376      861.764
05/27/2014  02:59:00      -95.126      -34.372      -11.015       17.954       27.120       14.035      322.349      735.505      196.971        0.580        0.063      101.145       11.569        0.013      340.998       15.404      861.733
05/27/2014  03:00:00     -146.478       30.760      -13.952       32.857       25.164       17.914     1079.591      633.227      320.923        1.231        0.102      149.673       12.747        0.007      341.062       15.514      861.690
05/27/2014  03:01:00     -111.871       31.385      -13.601       50.258       35.961       18.614     2525.820     1293.174      346.479        0.892        0.208      116.190       11.023        0.009      341.228       15.794      861.674
05/27/2014  03:02:00      -34.392      -16.194        1.590       24.445       28.677       17.687      597.582      822.398      312.813        0.159        0.087       38.013       12.573        0.109      341.266       15.859      861.691
05/27/2014  03:03:00        9.942      -60.822       -9.387       24.469       19.909       14.802      598.714      396.357      219.101        0.255        0.061       61.629        9.829        0.025      341.274       15.874      861.696
05/27/2014  03:04:00      -67.996      -51.265       -7.521       39.606       27.848       16.813     1568.671      775.489      282.690        0.497        0.131       85.156       16.970        0.040      341.262       15.854      861.684
05/27/2014  03:05:00      -82.282      -14.211       -1.010       40.276       36.746       19.383     1622.144     1350.247      375.716        0.516        0.167       83.500       20.298        0.059      341.064       15.518      861.669
05/27/2014  03:06:00     -144.070       -7.720      -17.868       23.315       23.823       19.763      543.586      567.551      390.570        1.132        0.075      144.277       13.537        0.009      340.858       15.169      861.640
05/27/2014  03:07:00     -120.209       22.360      -10.174       53.146       51.860       27.250     2824.461     2689.412      742.587        1.065        0.313      122.271       27.710        0.051      341.018       15.439      861.637
05/27/2014  03:08:00      -70.429       -3.869       -3.034       38.878       33.940       23.171     1511.496     1151.924      536.912        0.409        0.160       70.535       18.442        0.068      340.971       15.360      861.649
05/27/2014  03:09:00      -80.222      -23.555       -6.617       36.769       27.655       20.353     1351.983      764.825      414.264        0.478        0.127       83.609       17.651        0.045      341.001       15.412      861.657
05/27/2014  03:10:00     -116.175        9.844       -8.837       55.751       33.394       24.001     3108.196     1115.187      576.070        0.923        0.240      116.591       24.726        0.045      340.873       15.193      861.637
05/27/2014  03:11:00     -151.249       19.425      -17.488       46.036       35.809       21.001     2119.323     1282.264      441.047        1.370        0.192      152.492       12.242        0.006      340.852       15.158      861.617
05/27/2014  03:12:00     -177.435        7.548      -19.866       43.651       28.499       23.494     1905.419      812.221      551.974        1.760        0.163      177.596       21.986        0.015      340.866       15.182      861.610
05/27/2014  03:13:00     -172.438        2.552      -18.633       43.679       35.594       22.229     1907.892     1266.930      494.117        1.688        0.183      172.457       21.529        0.016      340.907       15.252      861.602
05/27/2014  03:14:00     -103.074        4.300       -4.659       35.972       45.295       24.869     1294.010     2051.642      618.480        0.731        0.198      103.163       19.741        0.037      340.846       15.149      861.585
05/27/2014  03:15:00     -139.280        2.422      -15.181       59.537       27.626       21.617     3544.674      763.217      467.274        1.220        0.239      139.301       27.482        0.039      340.818       15.102      861.572
05/27/2014  03:16:00     -158.009        9.848      -13.917       52.888       41.652       24.166     2797.171     1734.898      583.984        1.519        0.256      158.315       25.488        0.026      340.843       15.143      861.545
05/27/2014  03:17:00     -221.200       40.946      -15.321       36.744       23.445       15.009     1350.135      549.660      225.283        2.648        0.106      224.958       11.777        0.003      340.867       15.178      861.540
05/27/2014  03:18:00     -213.156       -3.461      -21.665       50.479       44.606       28.298     2548.133     1989.686      800.774        2.563        0.267      213.184       25.665        0.014      340.765       15.008      861.546
05/27/2014  03:19:00     -175.383      -39.034      -12.198       43.314       37.472       27.755     1876.098     1404.180      770.344        1.824        0.203      179.674       22.186        0.015      340.742       14.972      861.561
05/27/2014  03:20:00     -146.978      -23.713       -7.188       42.511       27.312       26.160     1807.193      745.950      684.335        1.273        0.162      148.879       24.265        0.027      340.718       14.932      861.563
05/27/2014  03:21:00      -98.562      -10.280       -8.189       52.093       34.352       25.524     2713.642     1180.058      651.472        0.722        0.227       99.097       24.693        0.062      340.737       14.964      861.545
05/27/2014  03:22:00     -161.544       47.311      -17.749       51.815       33.749       24.674     2684.744     1139.011      608.801        1.654        0.222      168.329       20.707        0.015      340.812       15.091      861.515
05/27/2014  03:23:00     -127.249       10.681       -9.481       46.594       45.354       20.754     2171.041     2056.952      430.732        1.053        0.233      127.696       21.755        0.029      340.873       15.195      861.490
05/27/2014  03:24:00      -99.483      -31.991       -6.283       46.569       45.327       22.158     2168.693     2054.520      490.981        0.784        0.236      104.500       11.250        0.012      340.769       15.019      861.515
05/27/2014  03:25:00     -164.543      -24.163       -4.227       54.524       42.215       33.276     2972.813     1782.080     1107.272        1.677        0.293      166.307       28.781        0.030      340.690       14.884      861.577
05/27/2014  03:26:00      -83.056      -43.521        6.994       42.626       33.139       21.248     1816.947     1098.206      451.495        0.610        0.168       93.768       18.901        0.041      340.721       14.938      861.632
05/27/2014  03:27:00      -35.012       31.398        8.541       31.254       26.319       23.563      976.811      692.675      555.231        0.225        0.111       47.029       20.511        0.190      340.669       14.849      861.601
05/27/2014  03:28:00      -83.895       72.360      -15.767       36.416       39.252       22.501     1326.146     1540.728      506.289        0.795        0.169      110.790       26.345        0.057      340.973       15.363      861.485
05/27/2014  03:29:00      -75.355       83.847      -11.000       29.263       36.353       21.080      856.336     1321.572      444.346        0.773        0.131      112.733       19.045        0.029      341.015       15.435      861.415
05/27/2014  03:30:00      -81.234       17.726       -2.182       42.826       49.336       19.544     1834.059     2434.089      381.957        0.578        0.233       83.146       13.423        0.026      340.891       15.225      861.455
05/27/2014  03:31:00     -150.338      -68.294       -8.323       61.676       44.146       35.205     3803.887     1948.881     1239.407        1.716        0.350      165.123       33.973        0.042      340.766       15.012      861.538
05/27/2014  03:32:00     -124.004      -46.352       -9.025       50.492       31.208       21.871     2549.397      973.928      478.336        1.080        0.200      132.384       16.800        0.016      340.836       15.131      861.579
05/27/2014  03:33:00      -76.511        6.465       -5.400       21.414       28.609       14.198      458.573      818.453      201.569        0.370        0.074       76.784       12.712        0.027      340.722       14.937      861.578
05/27/2014  03:34:00      -81.778      -15.637       -3.980       20.981       18.721       16.350      440.192      350.479      267.334        0.400        0.053       83.260       11.811        0.020      340.846       15.148      861.592
05/27/2014  03:35:00      -86.082        7.935       -9.247       23.471       26.633       12.768      550.893      709.316      163.027        0.449        0.071       86.447       11.059        0.016      340.851       15.158      861.581
05/27/2014  03:36:00     -126.249       17.670      -10.208       17.590       16.743       11.913      309.406      280.326      141.911        0.854        0.037      127.479        9.032        0.005      340.892       15.224      861.541
05/27/2014  03:37:00      -83.933      -13.051       -4.492       32.332       21.956       14.971     1045.359      482.082      224.119        0.449        0.088       84.942       15.893        0.035      340.851       15.155      861.538
05/27/2014  03:38:00      -48.884       -3.994        2.946       20.521       12.731       11.084      421.128      162.078      122.859        0.156        0.035       49.047       11.876        0.059      340.834       15.129      861.510
05/27/2014  03:39:00      -93.846      -18.986       -7.406       14.241       13.858        8.519      202.794      192.036       72.568        0.484        0.023       95.747        4.907        0.003      340.911       15.259      861.469
05/27/2014  03:40:00     -152.710      -44.314      -11.716       16.227       13.559        8.312      263.317      183.843       69.094        1.297        0.026      159.010        6.091        0.001      340.864       15.180      861.484
05/27/2014  03:41:00     -132.600      -56.629       -4.594       29.079       22.674       16.318      845.591      514.094      266.288        1.122        0.081      144.186       14.368        0.010      340.644       14.806      861.522
05/27/2014  03:42:00      -70.715      -39.269        0.712       28.040       18.266       14.280      786.241      333.645      203.904        0.393        0.066       80.886       14.282        0.031      340.541       14.633      861.539
05/27/2014  03:43:00      -43.939      -26.724       -1.248       12.968       12.456        9.723      168.160      155.163       94.546        0.153        0.021       51.428        6.154        0.014      340.620       14.765      861.503
05/27/2014  03:44:00       -7.060       -3.866        6.200       22.996       14.733       12.535      528.817      217.052      157.130        0.050        0.045        8.049       12.284        2.329      340.618       14.764      861.439
05/27/2014  03:45:00      -20.165      -25.611        1.094       23.229       21.441       14.482      539.601      459.723      209.719        0.114        0.060       32.597       12.124        0.138      340.805       15.079      861.431
05/27/2014  03:46:00      -16.644      -33.601        4.415       26.022       16.921       17.661      677.152      286.308      311.902        0.135        0.064       37.498       16.185        0.186      340.696       14.895      861.455
05/27/2014  03:47:00      -73.388      -63.890        1.506       52.951       37.833       27.560     2803.829     1431.324      759.546        0.723        0.250       97.302       18.281        0.035      340.613       14.754      861.500
05/27/2014  03:48:00     -144.827     -100.099       -1.994       86.574       44.349       36.860     7495.087     1966.807     1358.632        2.091        0.541      176.053       39.157        0.049      340.410       14.410      861.561
05/27/2014  03:49:00     -171.142      -79.849       -3.676       56.494       44.678       34.713     3191.597     1996.160     1204.978        2.103        0.320      188.853       31.948        0.029      340.283       14.195      861.586
05/27/2014  03:50:00     -110.501      -51.328       -1.676       65.096       47.595       23.594     4237.469     2265.294      556.667        1.095        0.353      121.841       32.941        0.073      340.256       14.150      861.545
05/27/2014  03:51:00      -80.533      -17.924       -5.451       17.695       17.965       11.127      313.105      322.739      123.811        0.380        0.038       82.504        7.750        0.009      340.338       14.290      861.477
05/27/2014  03:52:00      -75.289      -43.734      -10.684       12.450       16.411       13.646      154.994      269.320      186.213        0.415        0.031       87.069        6.764        0.006      340.315       14.250      861.450
05/27/2014  03:53:00      -39.876      -31.401        6.957       38.397       24.983       17.505     1474.316      624.162      306.408        0.251        0.120       50.756       16.948        0.112      340.326       14.271      861.474
05/27/2014  03:54:00     -130.119      -75.044       -1.145       38.321       28.829       25.701     1468.530      831.111      660.566        1.276        0.148      150.208       21.897        0.021      340.311       14.243      861.485
05/27/2014  03:55:00     -207.102      -62.222       -8.939       43.248       35.511       26.805     1870.393     1261.027      718.482        2.535        0.192      216.247       25.280        0.014      340.331       14.276      861.501
05/27/2014  03:56:00     -159.029      -53.181       -2.236       66.252       48.930       24.367     4389.348     2394.191      593.728        1.775        0.369      167.685       27.786        0.027      340.250       14.139      861.568
05/27/2014  03:57:00     -118.688      -45.230       -9.213       39.448       28.130       23.654     1556.142      791.295      559.530        0.956        0.145      127.015       17.271        0.018      340.339       14.290      861.573
05/27/2014  03:58:00      -29.059       12.027       -4.905       28.581       28.410       13.596      816.864      807.130      184.856        0.141        0.090       31.450       11.040        0.123      340.705       14.910      861.447
05/27/2014  03:59:00       37.473       40.929        4.685       30.560       26.591       25.185      933.939      707.073      634.302        0.269        0.114       55.492       12.507        0.051      340.432       14.448      861.311
05/27/2014  04:00:00       19.952       -1.016       -5.158       54.365       30.605       18.423     2955.516      936.640      339.398        0.233        0.212       19.978       11.191        0.314      340.317       14.254      861.337
05/27/2014  04:01:00     -193.798     -120.122      -11.206       55.286       47.515       22.673     3056.517     2257.660      514.063        2.897        0.291      228.007       16.812        0.005      340.459       14.491      861.443
05/27/2014  04:02:00     -201.699      -89.408       -0.962       66.187       58.141       37.658     4380.781     3380.332     1418.110        2.893        0.459      220.627       30.617        0.019      340.355       14.314      861.508
05/27/2014  04:03:00     -133.749       15.344       -5.466       56.731       35.432       25.464     3218.367     1255.428      648.432        1.164        0.256      134.626       24.340        0.033      340.382       14.364      861.502
05/27/2014  04:04:00     -105.799      -51.215        7.387       53.287       44.768       24.290     2839.509     2004.170      589.989        0.965        0.272      117.544       23.563        0.040      340.296       14.219      861.455
05/27/2014  04:05:00      -11.988       -3.178       -5.108       22.681       18.726       25.865      514.428      350.675      668.975        0.086        0.077       12.402       18.190        2.151      340.303       14.231      861.412
05/27/2014  04:06:00      -12.449       -1.699      -15.339       21.679       20.146       15.674      469.979      405.854      245.675        0.076        0.056       12.564       10.256        0.666      340.326       14.270      861.398
05/27/2014  04:07:00      -68.635      -17.472       -6.962       15.510       16.415       15.105      240.548      269.447      228.148        0.290        0.037       70.824       10.083        0.020      340.475       14.521      861.395
05/27/2014  04:08:00     -111.855        3.285      -13.388       51.134       38.702       19.559     2614.664     1497.848      382.539        0.860        0.225      111.903       23.829        0.045      340.343       14.298      861.377
05/27/2014  04:09:00     -110.680      -30.482      -14.689       31.843       23.959       19.176     1013.973      574.046      367.731        0.768        0.098      114.801       15.320        0.018      340.313       14.247      861.352
05/27/2014  04:10:00      -88.827      -40.543      -12.905       49.655       38.962       31.393     2465.629     1518.018      985.531        0.733        0.248       97.642       31.179        0.102      340.251       14.142      861.390
05/27/2014  04:11:00     -118.131      -64.189       -5.016       55.428       49.338       25.269     3072.250     2434.200      638.542        1.212        0.307      134.444       24.931        0.034      340.098       13.884      861.445
05/27/2014  04:12:00      -91.227      -50.036        6.686       63.592       42.947       23.630     4043.912     1844.453      558.375        0.866        0.322      104.048       24.968        0.058      339.933       13.605      861.464
05/27/2014  04:13:00      -66.464      -27.035       -1.040       42.219       37.960       23.123     1782.414     1440.965      534.662        0.445        0.188       71.752       21.800        0.092      340.034       13.776      861.407
05/27/2014  04:14:00     -108.018      -28.309       -8.829       49.696       25.705       18.443     2469.721      660.747      340.131        0.801        0.174      111.666       15.864        0.020      340.146       13.965      861.378
05/27/2014  04:15:00       -3.013       -4.736       17.243       29.094       21.499       13.077      846.441      462.187      171.004        0.090        0.074        5.614       14.663        6.823      340.017       13.747      861.356
05/27/2014  04:16:00        0.517       32.392       -3.375       23.341       30.644       14.927      544.790      939.080      222.802        0.138        0.085       32.397       17.461        0.290      340.237       14.118      861.335
05/27/2014  04:17:00      -11.792       48.516      -15.396       29.763       28.913        9.511      885.822      835.965       90.466        0.227        0.091       49.928        8.895        0.032      340.236       14.118      861.351
05/27/2014  04:18:00      -74.898      -42.199       -3.984       45.708       19.937       14.707     2089.177      397.472      216.291        0.505        0.135       85.968       11.150        0.017      340.320       14.259      861.393
05/27/2014  04:19:00     -158.265      -57.119       -1.977       34.420       25.639       19.647     1184.720      657.383      386.021        1.527        0.111      168.257       10.234        0.004      340.077       13.849      861.398
05/27/2014  04:20:00     -147.892      -34.168       -0.621       52.074       47.575       31.098     2711.650     2263.390      967.103        1.449        0.297      151.788       23.931        0.025      340.059       13.818      861.406
05/27/2014  04:21:00     -156.427      -27.687       -9.697       37.531       41.616       26.935     1408.596     1731.852      725.499        1.460        0.193      158.858       21.322        0.018      339.900       13.550      861.436
05/27/2014  04:22:00     -156.547      -39.622      -11.888       27.966       35.353       22.942      782.109     1249.812      526.324        1.439        0.128      161.484       18.795        0.014      340.006       13.730      861.451
05/27/2014  04:23:00     -141.153      -12.280      -15.064       26.301       21.880       16.095      691.730      478.715      259.060        1.087        0.071      141.686       11.747        0.007      340.193       14.044      861.426
05/27/2014  04:24:00      -58.077       21.860        1.379       41.549       31.861       18.875     1726.278     1015.101      356.260        0.347        0.155       62.055       18.298        0.087      340.212       14.077      861.367
05/27/2014  04:25:00      -65.751       16.585       -7.715       24.896       36.341       20.006      619.815     1320.702      400.224        0.350        0.117       67.810       14.590        0.046      340.345       14.300      861.324
05/27/2014  04:26:00      -13.368      -19.268        8.258       27.239       10.477        9.475      741.944      109.760       89.773        0.078        0.047       23.452        5.350        0.052      340.267       14.169      861.343
05/27/2014  04:27:00     -120.124      -45.695      -13.589      110.967       27.724       24.242    12313.781      768.643      587.682        1.518        0.684      128.522       38.695        0.091      340.001       13.718      861.414
05/27/2014  04:28:00     -186.867        0.105      -13.642       67.378       41.318       29.276     4539.750     1707.191      857.060        2.110        0.355      186.867       31.297        0.028      340.034       13.773      861.470
05/27/2014  04:29:00     -168.926      -14.023      -15.807       90.088       48.969       30.853     8115.800     2397.961      951.878        2.022        0.573      169.507       40.320        0.057      339.805       13.388      861.453
05/27/2014  04:30:00      -70.802       27.046       -7.700       51.612       37.816       27.181     2663.819     1430.039      738.815        0.532        0.242       75.792       19.708        0.068      340.291       14.210      861.400
05/27/2014  04:31:00      -63.865       73.564      -10.878       38.789       29.474       17.051     1504.611      868.737      290.747        0.614        0.133       97.419       16.120        0.027      340.456       14.488      861.353
05/27/2014  04:32:00      -23.471       35.403       -5.140       29.951       29.949       15.486      897.044      896.928      239.827        0.193        0.102       42.476       19.480        0.210      340.449       14.478      861.346
05/27/2014  04:33:00       31.897        1.933       16.028       27.799       28.828       21.971      772.807      831.081      482.705        0.168        0.104       31.956        9.854        0.095      340.247       14.135      861.367
05/27/2014  04:34:00       29.695      -43.829       -7.348       52.659       36.176       28.003     2772.993     1308.724      784.155        0.386        0.243       52.941       16.947        0.102      339.975       13.676      861.417
05/27/2014  04:35:00     -131.518      -59.796       -8.156       48.178       37.015       19.883     2321.131     1370.127      395.333        1.251        0.204      144.473       14.266        0.010      340.209       14.070      861.432
05/27/2014  04:36:00     -152.426      -22.143      -12.181       43.406       33.985       25.783     1884.114     1154.979      664.777        1.379        0.185      154.026       21.462        0.019      339.995       13.710      861.411
05/27/2014  04:37:00     -133.235       16.087       -8.089       63.737       44.374       29.382     4062.439     1969.082      863.292        1.248        0.345      134.203       29.957        0.050      339.876       13.510      861.365
05/27/2014  04:38:00      -93.228       60.369       -2.044       56.384       40.071       31.918     3179.200     1605.692     1018.763        0.907        0.290      111.067       21.166        0.036      340.103       13.893      861.328
05/27/2014  04:39:00      -51.545      -15.958       -5.154       86.635       48.840       21.946     7505.601     2385.318      481.641        0.665        0.519       53.958       26.834        0.247      340.186       14.032      861.347
05/27/2014  04:40:00       27.630      -39.604       10.407       24.343       27.502       22.136      592.599      756.334      490.021        0.214        0.092       48.290       10.480        0.047      340.120       13.920      861.400
05/27/2014  04:41:00       -3.213      -30.553       13.135       24.463       26.238       21.395      598.455      688.454      457.757        0.143        0.087       30.721       15.498        0.254      340.007       13.730      861.441
05/27/2014  04:42:00      -47.773      -27.818       -7.026       25.153       34.716       15.174      632.670     1205.190      230.240        0.259        0.103       55.282        4.926        0.008      340.241       14.126      861.420
05/27/2014  04:43:00     -103.624      -29.556      -10.577       16.527       13.051       10.530      273.131      170.326      110.875        0.614        0.028      107.757        6.349        0.003      340.220       14.089      861.414
05/27/2014  04:44:00     -113.384      -42.047      -17.206       21.894       19.355       11.248      479.351      374.602      126.527        0.795        0.049      120.929        6.099        0.003      340.071       13.839      861.439
05/27/2014  04:45:00      -89.843      -29.870      -10.110       18.953       19.514       15.067      359.200      380.808      227.015        0.502        0.048       94.678        9.494        0.010      339.904       13.556      861.432
05/27/2014  04:46:00      -78.704      -26.631       -9.403       18.670       22.309       10.359      348.583      497.690      107.308        0.397        0.048       83.087        8.509        0.010      339.923       13.588      861.408
05/27/2014  04:47:00      -78.030       -7.557       -5.689       13.750       19.271       13.480      189.070      371.373      181.707        0.346        0.037       78.395        8.807        0.013      339.907       13.563      861.381
05/27/2014  04:48:00      -69.374      -11.717       -3.132       26.651       12.270       11.446      710.266      150.563      131.008        0.298        0.050       70.356       14.072        0.040      339.873       13.503      861.371
05/27/2014  04:49:00      -50.597      -21.149       -5.980       16.943       17.105       10.424      287.053      292.575      108.652        0.187        0.034       54.839        9.256        0.028      339.883       13.521      861.369
05/27/2014  04:50:00     -108.183       -7.702       -7.104       32.108       14.084       14.010     1030.944      198.358      196.267        0.662        0.071      108.457       15.799        0.021      339.826       13.425      861.380
05/27/2014  04:51:00     -171.980      -57.792      -16.159       21.498       22.798       14.382      462.173      519.768      206.842        1.718        0.059      181.430       12.318        0.005      339.812       13.403      861.400
05/27/2014  04:52:00     -170.810      -82.957       -7.378       31.105       20.137       19.187      967.505      405.491      368.160        1.893        0.087      189.889       17.776        0.009      339.772       13.336      861.422
05/27/2014  04:53:00     -137.395      -51.736       -6.680       38.378       25.164       15.917     1472.884      633.239      253.354        1.198        0.118      146.813       17.046        0.013      339.760       13.317      861.414
05/27/2014  04:54:00     -124.810      -34.933      -13.835       31.647       35.460       15.463     1001.517     1257.421      239.097        0.974        0.125      129.607        6.941        0.003      339.715       13.240      861.358
05/27/2014  04:55:00     -118.271      -12.588      -10.507       48.155       26.604       19.588     2318.907      707.771      383.692        0.883        0.171      118.939       24.580        0.043      339.675       13.172      861.295
05/27/2014  04:56:00      -90.163        3.786      -13.435       37.600       22.046       17.979     1413.793      486.034      323.259        0.527        0.111       90.242       16.406        0.033      339.560       12.979      861.260
05/27/2014  04:57:00      -69.978      -39.564       -8.350       49.269       29.582       27.106     2427.456      875.070      734.713        0.528        0.202       80.388       23.466        0.085      339.629       13.093      861.273
05/27/2014  04:58:00      -49.742      -42.500       -8.809       44.062       26.313       22.852     1941.441      692.391      522.200        0.376        0.158       65.426       25.410        0.151      339.595       13.037      861.301
05/27/2014  04:59:00      -80.519      -37.589       -5.676       62.282       17.305       20.798     3879.054      299.454      432.573        0.627        0.231       88.861       29.666        0.111      339.584       13.019      861.307
05/27/2014  05:00:00     -137.278      -30.822      -15.432       27.339       16.830       18.176      747.401      283.244      330.377        1.070        0.068      140.695       15.699        0.012      339.632       13.099      861.292
05/27/2014  05:01:00     -155.348      -51.985      -11.072       22.943       26.649       18.892      526.404      710.192      356.922        1.428        0.080      163.815       11.669        0.005      339.554       12.967      861.318
05/27/2014  05:02:00     -134.510      -61.522       -2.370       40.830       30.693       18.302     1667.096      942.077      334.963        1.241        0.147      147.912       15.533        0.011      339.521       12.910      861.366
05/27/2014  05:03:00     -100.393        8.347       -7.661       50.218       32.755       22.555     2521.853     1072.914      508.725        0.715        0.205      100.739       18.194        0.033      339.524       12.917      861.381
05/27/2014  05:04:00     -145.948       -4.514      -12.699       25.276       26.331       16.734      638.871      693.308      280.020        1.155        0.081      146.018       13.593        0.009      339.533       12.930      861.381
05/27/2014  05:05:00     -102.497       13.224       -7.951       48.089       32.287       24.300     2312.508     1042.437      590.492        0.734        0.197      103.346       19.229        0.035      339.634       13.102      861.352
05/27/2014  05:06:00     -117.256       45.177       -9.094       47.281       40.176       27.266     2235.539     1614.072      743.418        1.023        0.230      125.658       20.798        0.027      339.585       13.019      861.296
05/27/2014  05:07:00     -119.327       -6.244      -12.519       49.051       34.733       22.808     2405.994     1206.363      520.198        0.928        0.207      119.490       21.143        0.031      339.465       12.818      861.257
05/27/2014  05:08:00      -65.710      -13.513      -15.219       33.850       30.117       24.395     1145.815      907.043      595.118        0.369        0.132       67.085       14.604        0.047      339.568       12.990      861.282
05/27/2014  05:09:00        1.861      -13.257       -7.806       43.735       18.471       23.199     1912.728      341.166      538.197        0.152        0.140       13.387       19.170        2.051      339.452       12.793      861.326
05/27/2014  05:10:00      -66.469      -44.336       -4.473       33.266       23.188       18.777     1106.625      537.667      352.589        0.420        0.100       79.899       13.929        0.030      339.419       12.739      861.365
05/27/2014  05:11:00     -148.601      -60.535      -16.182       18.357       17.749       14.487      336.994      315.029      209.879        1.344        0.043      160.458        5.748        0.001      339.506       12.884      861.383
05/27/2014  05:12:00     -174.561      -18.162      -23.575       34.211       24.261       23.646     1170.392      588.614      559.148        1.684        0.116      175.503       19.592        0.012      339.440       12.775      861.361
05/27/2014  05:13:00     -156.093        1.743      -11.569       49.958       34.705       30.680     2495.768     1204.418      941.240        1.457        0.232      156.103       31.777        0.041      339.379       12.672      861.312
05/27/2014  05:14:00      -90.237      -10.007       -2.858       33.067       31.461       24.771     1093.426      989.767      613.594        0.547        0.135       90.790       22.865        0.063      339.382       12.677      861.283
05/27/2014  05:15:00      -95.512      -32.525       -9.506       38.815       36.433       26.530     1506.616     1327.373      703.849        0.690        0.177      100.898       22.270        0.049      339.478       12.838      861.245
05/27/2014  05:16:00      -77.146      -20.990       -4.949       44.461       33.309       18.162     1976.750     1109.489      329.860        0.492        0.171       79.951       16.229        0.041      339.439       12.773      861.232
05/27/2014  05:17:00      -50.320      -15.844        8.806       64.478       26.743       26.841     4157.408      715.185      720.438        0.423        0.280       52.755       35.879        0.463      339.554       12.967      861.248
05/27/2014  05:18:00     -118.878      -60.666      -14.092       62.243       47.653       33.724     3874.172     2270.762     1137.305        1.265        0.364      133.463       25.075        0.035      339.441       12.777      861.296
05/27/2014  05:19:00     -129.020      -47.864       -2.447       60.920       44.338       28.838     3711.228     1965.846      831.602        1.272        0.325      137.612       26.843        0.038      339.450       12.792      861.334
05/27/2014  05:20:00     -147.313        0.598      -11.019       56.078       35.453       28.210     3144.693     1256.911      795.794        1.351        0.260      147.314       27.206        0.034      339.435       12.766      861.328
05/27/2014  05:21:00     -138.680       27.491      -11.389       40.578       38.080       24.021     1646.592     1450.113      577.001        1.189        0.184      141.379        9.271        0.004      339.432       12.761      861.284
05/27/2014  05:22:00      -61.951      -15.725       -4.422       38.977       36.894       20.548     1519.185     1361.158      422.208        0.370        0.165       63.915       19.416        0.092      339.397       12.702      861.255
05/27/2014  05:23:00      -73.927      -34.431       -9.041       49.594       25.732       14.449     2459.597      662.158      208.764        0.503        0.167       81.552       13.185        0.026      339.382       12.678      861.254
05/27/2014  05:24:00      -80.406      -33.919      -10.516       25.160       24.291       15.307      633.014      590.056      234.315        0.459        0.073       87.267        7.745        0.008      339.407       12.719      861.256
05/27/2014  05:25:00      -94.565       14.476      -13.636       22.104       21.139       13.950      488.581      446.841      194.602        0.523        0.057       95.667       13.959        0.021      339.503       12.882      861.247
05/27/2014  05:26:00     -115.339       18.745      -15.349       32.951       17.395       17.966     1085.776      302.603      322.787        0.780        0.086      116.853       13.819        0.014      339.433       12.763      861.238
05/27/2014  05:27:00     -122.643      -17.831      -15.624       19.109       29.403       16.663      365.144      864.554      277.672        0.856        0.075      123.933       10.301        0.007      339.429       12.756      861.241
05/27/2014  05:28:00     -130.962      -85.160      -13.786       54.313       33.614       29.820     2949.916     1129.906      889.256        1.478        0.248      156.216       17.762        0.013      339.480       12.840      861.255
05/27/2014  05:29:00     -163.949      -43.327        1.963       54.441       52.619       33.923     2963.807     2768.788     1150.755        1.782        0.344      169.577       30.427        0.032      339.439       12.771      861.252
05/27/2014  05:30:00     -188.070      -34.133      -12.138       38.881       31.151       26.951     1511.747      970.374      726.376        1.995        0.160      191.143       24.712        0.017      339.432       12.759      861.238
05/27/2014  05:31:00     -169.924      -49.843      -18.324       31.783       38.785       21.189     1010.174     1504.290      448.955        1.733        0.148      177.083       18.615        0.011      339.446       12.783      861.229
05/27/2014  05:32:00      -85.672      -44.840       -3.489       34.609       32.425       23.151     1197.775     1051.378      535.948        0.607        0.139       96.697       14.014        0.021      339.426       12.749      861.223
05/27/2014  05:33:00      -81.055      -57.086        3.338       55.992       42.358       28.331     3135.049     1794.204      802.632        0.778        0.287       99.140       30.306        0.093      339.510       12.892      861.228
05/27/2014  05:34:00      -94.800      -58.273       -0.672       31.750       45.343       24.767     1008.048     2055.993      613.399        0.803        0.184      111.278       23.202        0.043      339.410       12.726      861.210
05/27/2014  05:35:00     -135.995      -40.885      -16.554       23.024       24.399       13.562      530.106      595.302      183.933        1.087        0.065      142.008       11.455        0.007      339.472       12.828      861.209
05/27/2014  05:36:00     -121.782      -58.331       -4.147       28.052       40.119       20.474      786.927     1609.545      419.168        1.053        0.141      135.031       14.836        0.012      339.465       12.816      861.202
05/27/2014  05:37:00     -130.373        9.476      -11.405       44.328       37.548       18.705     1964.998     1409.861      349.883        1.047        0.186      130.717       15.408        0.014      339.457       12.804      861.177
05/27/2014  05:38:00     -107.541      -17.857        0.682       40.885       57.622       27.222     1671.579     3320.351      741.057        0.881        0.287      109.013       20.930        0.037      339.522       12.913      861.173
05/27/2014  05:39:00      -71.334      -55.968        4.534       46.104       39.154       27.464     2125.621     1533.052      754.267        0.633        0.221       90.670       25.212        0.077      339.366       12.650      861.208
05/27/2014  05:40:00     -102.085      -32.661       -4.551       51.993       31.872       24.129     2703.229     1015.818      582.201        0.790        0.215      107.182       23.777        0.049      339.422       12.745      861.206
05/27/2014  05:41:00      -86.525      -22.843       -9.773       22.084       17.778       16.857      487.706      316.061      284.164        0.460        0.054       89.490       14.755        0.027      339.452       12.794      861.204
05/27/2014  05:42:00      -34.039      -33.496       -0.251       35.278       17.412       13.725     1244.553      303.194      188.386        0.201        0.087       47.756       18.498        0.150      339.410       12.724      861.191
05/27/2014  05:43:00      -88.694      -52.439       -3.912       43.555       21.990       18.676     1897.041      483.546      348.799        0.668        0.136      103.036       17.580        0.029      339.461       12.810      861.176
05/27/2014  05:44:00     -139.015      -51.886      -12.268       25.786       23.953       13.535      664.916      573.761      183.187        1.179        0.071      148.382        5.477        0.001      339.410       12.724      861.160
05/27/2014  05:45:00     -160.981      -18.645      -22.628       35.483       33.215       16.656     1259.019     1103.253      277.436        1.471        0.132      162.057       13.411        0.007      339.387       12.685      861.161
05/27/2014  05:46:00     -183.231      -25.044       -9.410       77.477       50.900       31.583     6002.699     2590.767      997.468        2.194        0.480      184.935       39.516        0.046      339.277       12.497      861.169
05/27/2014  05:47:00     -154.169       15.690      -17.841       80.702       52.904       27.866     6512.879     2798.800      776.501        1.721        0.504      154.966       36.428        0.055      339.259       12.469      861.192
05/27/2014  05:48:00     -133.667       54.807      -18.080       69.396       45.178       34.080     4815.745     2041.075     1161.452        1.461        0.401      144.467       36.409        0.064      339.363       12.643      861.189
05/27/2014  05:49:00     -212.884       43.527      -15.917       41.843       37.285       24.073     1750.839     1390.188      579.525        2.559        0.186      217.289       16.936        0.006      339.375       12.664      861.187
05/27/2014  05:50:00     -161.510      -21.027       -9.714       72.374       45.849       32.683     5238.064     2102.164     1068.196        1.751        0.420      162.873       37.570        0.053      339.252       12.456      861.208
05/27/2014  05:51:00      -82.627       -0.518        5.581       44.290       46.486       30.294     1961.637     2160.929      917.723        0.595        0.252       82.628       28.973        0.123      339.257       12.465      861.218
05/27/2014  05:52:00     -108.466        2.280       -1.144       52.418       45.510       27.799     2747.632     2071.178      772.772        0.868        0.280      108.490       27.570        0.065      339.271       12.488      861.234
05/27/2014  05:53:00      -78.026      -33.065       -4.749       45.304       37.452       24.242     2052.466     1402.630      587.681        0.562        0.202       84.743       21.607        0.065      339.297       12.534      861.231
05/27/2014  05:54:00       30.489      -15.172       10.993       31.910       31.993       22.963     1018.252     1023.540      527.308        0.192        0.128       34.055       13.225        0.151      339.262       12.475      861.242
05/27/2014  05:55:00        5.972      -42.924        2.358       36.000       40.135       23.545     1295.997     1610.855      554.381        0.267        0.173       43.337       14.545        0.113      339.108       12.216      861.253
05/27/2014  05:56:00        6.435      -33.460       -4.162       21.471       19.673       17.132      460.996      387.008      293.505        0.116        0.057       34.073       14.202        0.174      339.251       12.456      861.236
05/27/2014  05:57:00        0.721        0.873      -12.095       16.258       12.984       13.308      264.328      168.578      177.111        0.038        0.031        1.132       12.019      112.796      339.467       12.819      861.240
05/27/2014  05:58:00       -5.381      -12.434        0.425       12.003       17.839       12.548      144.079      318.213      157.448        0.040        0.031       13.548        8.964        0.438      339.557       12.972      861.270
05/27/2014  05:59:00        3.414       -1.623        9.799       12.225       12.000       11.388      149.440      144.008      129.684        0.027        0.021        3.780        4.273        1.277      339.644       13.119      861.287
05/27/2014  06:00:00        3.211       -3.781       18.414       17.866       15.347       10.237      319.190      235.526      104.793        0.051        0.033        4.960       10.448        4.437      339.678       13.178      861.310
05/27/2014  06:01:00      -26.382       -1.522        2.178       25.725       19.533       10.816      661.772      381.530      116.984        0.093        0.058       26.426       12.072        0.209      339.534       12.934      861.311
05/27/2014  06:02:00       45.313       31.664        7.349       21.293       16.472       15.199      453.373      271.342      231.009        0.203        0.048       55.280       11.635        0.044      339.455       12.800      861.307
05/27/2014  06:03:00       33.463       24.301        5.375       18.867       23.008       16.628      355.949      529.374      276.497        0.145        0.058       41.355       10.678        0.067      339.381       12.675      861.340
05/27/2014  06:04:00       23.100      -33.345        2.456       19.993       19.008       13.161      399.702      361.289      173.208        0.129        0.047       40.564        7.513        0.034      339.332       12.592      861.381
05/27/2014  06:05:00       -2.209       -2.182       11.876       13.362        8.802       14.330      178.532       77.475      205.346        0.031        0.023        3.105        8.968        8.343      339.735       13.271      861.382
05/27/2014  06:06:00       -0.591       12.020        8.806       14.927       17.413       13.777      222.821      303.196      189.796        0.047        0.036       12.035       14.779        1.508      339.804       13.389      861.367
05/27/2014  06:07:00        1.515       27.966        0.378       25.848       17.083       16.384      668.124      291.820      268.451        0.101        0.061       28.007        5.217        0.035      339.920       13.586      861.354
05/27/2014  06:08:00      -89.547        8.137       -9.726       14.738       14.971        8.550      217.219      224.132       73.111        0.435        0.026       89.916        7.122        0.006      339.717       13.241      861.345
05/27/2014  06:09:00     -103.571       -6.448      -12.034       26.391       22.739       15.274      696.501      517.041      233.308        0.618        0.072      103.771       14.576        0.020      339.450       12.790      861.345
05/27/2014  06:10:00      -19.189       -5.508        9.775       41.035       14.137       17.720     1683.885      199.858      313.985        0.135        0.110       19.964       24.407        1.495      339.580       13.010      861.352
05/27/2014  06:11:00       48.203       22.858       26.610       20.965       11.918       24.009      439.514      142.044      576.425        0.236        0.058       53.348       14.593        0.075      339.782       13.352      861.362
05/27/2014  06:12:00       14.291       -6.789       23.899       18.260       19.612       12.130      333.422      384.647      147.136        0.084        0.043       15.822        3.001        0.036      339.775       13.340      861.374
05/27/2014  06:13:00        7.042      -18.193        1.590       16.319       19.683       15.127      266.304      387.424      228.817        0.063        0.044       19.508       12.184        0.390      339.651       13.130      861.397
05/27/2014  06:14:00       12.258       -1.222       11.782       16.367       16.122       14.500      267.886      259.931      210.264        0.051        0.037       12.319       11.749        0.910      339.765       13.323      861.407
05/27/2014  06:15:00       12.213       21.146        5.513       21.280       19.435       20.653      452.830      377.723      426.543        0.094        0.063       24.419        6.000        0.060      339.775       13.340      861.397
05/27/2014  06:16:00       32.749       38.126        7.256       20.592       19.228       15.118      424.014      369.713      228.557        0.180        0.051       50.260       12.670        0.064      339.771       13.335      861.398
05/27/2014  06:17:00       36.106      -30.794        0.615       32.601       23.948       16.282     1062.801      573.501      265.117        0.208        0.095       47.455        8.748        0.034      339.707       13.226      861.399
05/27/2014  06:18:00        4.077      -28.462       -6.244       17.427       20.333       19.835      303.703      413.428      393.422        0.099        0.056       28.753        9.901        0.119      339.757       13.309      861.419
05/27/2014  06:19:00       -1.884        7.813       19.960       14.616       13.053       11.551      213.620      170.374      133.420        0.049        0.026        8.037        3.222        0.161      340.239       14.124      861.429
05/27/2014  06:20:00        7.487       12.502       20.925       15.970       19.210       15.246      255.035      369.018      232.450        0.075        0.043       14.572        7.739        0.282      340.146       13.965      861.385
05/27/2014  06:21:00        4.667      -36.309        0.283       27.859       41.143       15.767      776.104     1692.713      248.611        0.203        0.136       36.608       18.319        0.250      339.742       13.285      861.381
05/27/2014  06:22:00      -18.516      -20.156        8.495       11.224       21.004       14.694      125.985      441.183      215.912        0.080        0.039       27.370        6.572        0.058      339.742       13.283      861.405
05/27/2014  06:23:00       23.306       46.447        1.751       33.183       28.679       17.078     1101.098      822.491      291.650        0.246        0.111       51.967       13.903        0.072      340.034       13.776      861.396
05/27/2014  06:24:00       20.482       21.577        5.366       34.089       35.682       15.993     1162.063     1273.181      255.775        0.180        0.135       29.750       11.810        0.158      340.076       13.847      861.392
05/27/2014  06:25:00      -50.869      -28.158       -3.545       14.756       11.586        9.215      217.741      134.225       84.924        0.191        0.022       58.142        7.682        0.017      340.024       13.760      861.417
05/27/2014  06:26:00        1.860       -2.476       12.436       30.492       10.781       11.160      929.747      116.233      124.546        0.067        0.059        3.097       12.192       15.496      340.173       14.011      861.415
05/27/2014  06:27:00        1.680      -25.539       -2.247       31.163       35.217       17.765      971.125     1240.209      315.611        0.159        0.126       25.594       13.780        0.290      339.988       13.699      861.417
05/27/2014  06:28:00      -34.347      -33.622       -3.049       48.555       18.437       13.391     2357.563      339.939      179.315        0.260        0.144       48.064       12.541        0.068      340.034       13.778      861.440
05/27/2014  06:29:00     -111.116      -31.742       -4.714       28.512       30.074       12.595      812.921      904.420      158.634        0.763        0.094      115.561        9.408        0.007      339.997       13.713      861.430
05/27/2014  06:30:00      -93.676        6.564      -10.441       28.832       15.816       12.690      831.272      250.147      161.036        0.508        0.062       93.906       11.682        0.015      339.958       13.648      861.385
05/27/2014  06:31:00      -88.066      -31.699       -3.755       22.735       28.680       14.719      516.902      822.527      216.660        0.517        0.078       93.597       13.763        0.022      340.042       13.790      861.393
05/27/2014  06:32:00      -38.166      -21.632        2.496       30.622       20.062       16.271      937.718      402.465      264.735        0.177        0.080       43.870       15.155        0.119      340.253       14.147      861.390
05/27/2014  06:33:00       -0.598        1.471        8.594       10.312        9.291       13.674      106.342       86.317      186.980        0.023        0.019        1.588        6.587       17.201      340.689       14.881      861.324
05/27/2014  06:34:00        8.569       12.455        2.160       13.305        8.944       10.517      177.035       80.002      110.609        0.030        0.018       15.118        3.937        0.068      340.256       14.152      861.281
05/27/2014  06:35:00       13.944      -31.590        3.475       24.650       31.893       14.571      607.628     1017.179      212.306        0.152        0.092       34.531       14.052        0.166      339.998       13.716      861.296
05/27/2014  06:36:00      -66.440      -42.357        3.021       54.032       20.995       18.685     2919.430      440.782      349.145        0.496        0.185       78.794       28.002        0.126      340.130       13.939      861.385
05/27/2014  06:37:00      -58.578        4.064       -4.924       32.053       14.815        6.599     1027.411      219.471       43.542        0.238        0.065       58.719        6.074        0.011      340.220       14.090      861.382
05/27/2014  06:38:00      -43.231       25.215       -4.024        6.943        9.363        5.770       48.210       87.658       33.298        0.134        0.008       50.047        5.364        0.011      340.338       14.290      861.301
05/27/2014  06:39:00      -29.553        8.271       -8.177       16.591       24.292       10.298      275.261      590.098      106.053        0.099        0.049       30.689       12.985        0.179      340.414       14.420      861.263
05/27/2014  06:40:00      -21.394       -1.399       -3.812        6.612        3.868        5.624       43.723       14.958       31.625        0.028        0.005       21.440        2.666        0.015      340.467       14.507      861.261
05/27/2014  06:41:00      -40.822       -0.748       -0.261       19.132       19.586        9.219      366.043      383.615       84.989        0.125        0.042       40.829        7.524        0.034      340.457       14.492      861.266
05/27/2014  06:42:00     -101.298      -40.288       -0.957       29.699       16.442       12.177      882.059      270.337      148.268        0.659        0.065      109.016       13.240        0.015      340.395       14.387      861.327
05/27/2014  06:43:00      -63.087      -20.032        1.258       22.975       18.304       13.818      527.870      335.031      190.940        0.272        0.053       66.191       10.859        0.027      340.399       14.393      861.368
05/27/2014  06:44:00       -8.052      -27.586        3.811       21.334       12.894       11.632      455.138      166.251      135.302        0.080        0.038       28.737       10.461        0.133      340.618       14.764      861.341
05/27/2014  06:45:00       12.775      -63.180       -3.953       26.572       27.063       24.509      706.068      732.417      600.702        0.310        0.102       64.458       17.381        0.073      340.188       14.037      861.328
05/27/2014  06:46:00       44.796      -16.422       10.322       25.567       23.385       35.661      653.649      546.846     1271.677        0.243        0.124       47.711       24.926        0.273      340.484       14.538      861.326
05/27/2014  06:47:00       16.720      -30.188        7.923       20.000       22.616       17.426      400.017      511.479      303.677        0.123        0.061       34.510        9.344        0.073      340.367       14.340      861.338
05/27/2014  06:48:00        4.596      -21.179        9.882       25.679       21.164       23.397      659.390      447.896      547.443        0.111        0.083       21.672       19.826        0.837      340.851       15.158      861.382
05/27/2014  06:49:00      -20.395       -6.961       18.673       22.083       22.451       20.047      487.663      504.042      401.863        0.110        0.070       21.550       15.629        0.526      341.163       15.685      861.406
05/27/2014  06:50:00        9.933        1.958       24.829       28.893       18.406       14.770      834.832      338.769      218.138        0.106        0.070       10.124       10.955        1.171      341.084       15.553      861.366
05/27/2014  06:51:00        9.918      -15.860       -8.432       23.984       27.756       31.701      575.234      770.394     1004.924        0.139        0.118       18.705       24.218        1.676      340.744       14.978      861.370
05/27/2014  06:52:00       -5.610       18.397       11.281       25.457       25.491       26.889      648.064      649.792      723.039        0.126        0.101       19.233       16.451        0.732      340.932       15.294      861.379
05/27/2014  06:53:00       -4.566       13.527        5.163       16.563       17.685       23.745      274.347      312.755      563.837        0.069        0.058       14.277       15.620        1.197      341.076       15.540      861.357
05/27/2014  06:54:00       37.089      -25.169       14.536       31.641       29.903       26.301     1001.138      894.215      691.735        0.240        0.129       44.823       19.466        0.189      340.796       15.064      861.392
05/27/2014  06:55:00        3.918      -13.109       46.109       28.371       47.585       25.957      804.901     2264.324      673.760        0.303        0.187       13.682       24.532        3.215      341.215       15.773      861.431
05/27/2014  06:56:00        6.549       16.779       44.529       33.880       32.482       25.176     1147.858     1055.080      633.823        0.257        0.142       18.012       22.370        1.543      341.296       15.910      861.432
05/27/2014  06:57:00        1.066       12.271       37.112       19.553       22.485       22.550      382.316      505.557      508.512        0.146        0.070       12.317       13.060        1.124      341.256       15.841      861.410
05/27/2014  06:58:00        6.085      -33.337       14.710       23.446       25.403       20.718      549.701      645.316      429.217        0.149        0.081       33.888       14.663        0.187      341.057       15.505      861.404
05/27/2014  06:59:00      -24.622      -59.864      -11.352       55.354       34.998       16.208     3064.097     1224.879      262.714        0.443        0.228       64.729       10.094        0.024      340.907       15.251      861.483
05/27/2014  07:00:00      -95.712      -32.392        1.309       57.379       32.688       19.911     3292.380     1068.514      396.468        0.748        0.238      101.045       22.101        0.048      341.137       15.640      861.524
05/27/2014  07:01:00      -30.099      -11.891       15.756       21.578       20.394       14.388      465.626      415.926      207.011        0.119        0.054       32.363       11.540        0.127      341.442       16.159      861.467
05/27/2014  07:02:00       -0.711        1.622       12.107       11.247        7.901        9.441      126.491       62.419       89.128        0.021        0.014        1.771        7.184       16.449      341.588       16.405      861.406
05/27/2014  07:03:00       -4.806        3.618       18.508       11.144        6.710       10.060      124.187       45.023      101.195        0.032        0.014        6.016        6.600        1.204      341.795       16.758      861.400
05/27/2014  07:04:00      -13.415      -49.987       -3.040       22.651       21.525       16.317      513.090      463.325      266.257        0.197        0.062       51.756       11.208        0.047      341.175       15.706      861.455
05/27/2014  07:05:00       56.389      -31.348       11.751       60.322       43.247       38.598     3638.725     1870.308     1489.813        0.565        0.350       64.517       29.314        0.206      341.629       16.476      861.527
05/27/2014  07:06:00       54.320       11.576       36.397       62.145       38.225       34.972     3861.996     1461.141     1223.050        0.548        0.327       55.540       36.051        0.421      341.272       15.870      861.476
05/27/2014  07:07:00       47.934        4.755       13.524       25.412       24.958       22.215      645.755      622.909      493.497        0.213        0.088       48.169       13.844        0.083      341.138       15.643      861.394
05/27/2014  07:08:00       16.026       -5.298       12.049       25.355       25.985       19.360      642.853      675.206      374.802        0.106        0.085       16.879       18.093        1.149      341.425       16.130      861.359
05/27/2014  07:09:00      -90.718      -34.007       -7.482       32.147       19.540       19.069     1033.409      381.818      363.628        0.561        0.089       96.882        8.997        0.009      341.295       15.910      861.407
05/27/2014  07:10:00     -104.434      -51.317        5.536       45.753       32.453       22.126     2093.361     1053.205      489.576        0.860        0.182      116.362       19.025        0.027      341.399       16.084      861.454
05/27/2014  07:11:00     -107.107      -98.873       -7.776       44.239       35.327       18.591     1957.081     1247.992      345.637        1.243        0.178      145.767       18.525        0.016      341.436       16.147      861.466
05/27/2014  07:12:00      -52.910      -79.003       -4.713       54.188       47.071       25.375     2936.287     2215.637      643.880        0.743        0.290       95.084       28.361        0.089      341.471       16.205      861.492
05/27/2014  07:13:00      -76.154      -30.782       -3.073       52.348       28.435       23.529     2740.349      808.551      553.606        0.543        0.205       82.140       25.973        0.100      341.623       16.465      861.457
05/27/2014  07:14:00      -80.257       -2.713       -1.203       34.904       35.115       22.107     1218.267     1233.044      488.703        0.469        0.147       80.303       17.138        0.046      341.485       16.231      861.407
05/27/2014  07:15:00     -120.628       15.714       -4.501       31.235       32.173       13.985      975.619     1035.087      195.576        0.851        0.110      121.647       13.776        0.013      341.513       16.277      861.382
05/27/2014  07:16:00     -131.839      -64.019       -2.377       39.725       37.767       21.572     1578.095     1426.343      465.367        1.248        0.173      146.560       22.488        0.024      341.549       16.337      861.401
05/27/2014  07:17:00      -92.528      -75.957        6.865       44.016       35.989       26.284     1937.403     1295.193      690.825        0.915        0.196      119.712       18.328        0.023      341.617       16.452      861.453
05/27/2014  07:18:00      -71.729      -54.144        7.551       48.873       46.132       26.380     2388.581     2128.202      695.889        0.667        0.261       89.870       25.114        0.078      341.775       16.723      861.434
05/27/2014  07:19:00     -118.250      -87.606       -5.804       39.358       40.535       20.741     1549.054     1643.079      430.192        1.266        0.181      147.166       16.600        0.013      341.713       16.616      861.387
05/27/2014  07:20:00     -191.184      -80.248       -4.940       74.704       40.600       23.822     5580.650     1648.326      567.510        2.540        0.390      207.343       12.843        0.004      341.773       16.718      861.390
05/27/2014  07:21:00     -210.635      -68.446       -9.149       80.129       54.924       33.626     6420.609     3016.625     1130.741        2.985        0.528      221.476       35.661        0.026      341.762       16.696      861.411
05/27/2014  07:22:00     -108.040      -26.114        8.365       59.968       49.135       33.637     3596.174     2414.227     1131.463        0.978        0.357      111.151       36.876        0.110      341.904       16.940      861.404
05/27/2014  07:23:00      -60.856     -121.444        6.676       49.893       56.809       25.772     2489.285     3227.265      664.210        1.244        0.319      135.839       31.613        0.054      341.921       16.969      861.416
05/27/2014  07:24:00      -66.319     -100.626       -0.809       26.818       45.858       22.121      719.179     2102.925      489.344        0.892        0.166      120.515       19.611        0.026      341.967       17.048      861.391
05/27/2014  07:25:00     -100.322      -64.756        3.369       54.948       47.049       30.932     3019.260     2213.643      956.802        1.023        0.309      119.406       30.935        0.067      342.009       17.119      861.359
05/27/2014  07:26:00     -118.710      -97.420        1.501       70.672       61.127       33.899     4994.465     3736.519     1149.161        1.673        0.494      153.567       40.285        0.069      342.107       17.284      861.355
05/27/2014  07:27:00     -100.659     -127.005       -0.282       49.714       44.849       34.063     2471.438     2011.411     1160.310        1.595        0.282      162.057       31.199        0.037      342.176       17.403      861.351
05/27/2014  07:28:00     -121.727     -109.725      -13.964       50.926       52.728       25.402     2593.416     2780.225      645.260        1.653        0.301      163.881        8.049        0.002      342.225       17.486      861.356
05/27/2014  07:29:00     -110.101     -130.553        0.854       69.977       69.492       36.128     4896.786     4829.188     1305.229        2.010        0.552      170.782       33.202        0.038      342.354       17.702      861.371
05/27/2014  07:30:00     -141.479     -116.343        4.785       50.584       36.703       28.781     2558.740     1347.105      828.335        1.915        0.237      183.172       24.981        0.019      342.399       17.780      861.386
05/27/2014  07:31:00     -127.465     -124.290        6.485       76.129       49.615       35.233     5795.609     2461.661     1241.330        2.062        0.475      178.032       34.407        0.037      342.510       17.969      861.411
05/27/2014  07:32:00     -109.373     -197.900        4.174       66.750      104.411       38.055     4455.577    10901.606     1448.197        3.397        0.840      226.113       36.618        0.026      342.638       18.187      861.444
05/27/2014  07:33:00      -98.998     -118.834       11.791       82.395      101.392       43.148     6789.007    10280.354     1861.725        2.149        0.947      154.667       49.461        0.102      342.783       18.434      861.438
05/27/2014  07:34:00     -143.859     -198.411        5.774       96.880       92.119       42.617     9385.729     8485.956     1816.184        3.989        0.984      245.076       44.502        0.033      342.759       18.391      861.415
05/27/2014  07:35:00     -100.641     -194.966       -1.276       53.305       86.494       39.947     2841.434     7481.188     1595.752        3.003        0.596      219.409       37.759        0.030      343.004       18.808      861.389
05/27/2014  07:36:00      -90.231     -102.274        4.619       59.560       61.828       34.628     3547.428     3822.644     1199.111        1.359        0.428      136.388       30.990        0.052      342.992       18.789      861.399
05/27/2014  07:37:00     -115.124     -141.999        0.804       76.706       65.313       38.368     5883.743     4265.743     1472.109        2.252        0.581      182.804       33.042        0.033      342.981       18.769      861.405
05/27/2014  07:38:00     -183.092     -228.604      -14.690       79.461      101.898       60.392     6313.994    10383.243     3647.157        5.317        1.017      292.887       50.876        0.030      343.002       18.803      861.410
05/27/2014  07:39:00     -160.890     -189.186       -7.066       66.706       97.116       41.584     4449.726     9431.506     1729.211        3.867        0.781      248.348       30.426        0.015      343.016       18.827      861.403
05/27/2014  07:40:00     -176.912     -144.495       -0.385       79.692       70.409       43.558     6350.804     4957.429     1897.342        3.269        0.660      228.423       45.388        0.039      343.147       19.051      861.441
05/27/2014  07:41:00     -124.167      -77.222       12.552      104.193       81.428       43.140    10856.194     6630.539     1861.057        2.044        0.967      146.222       43.029        0.087      343.295       19.304      861.415
05/27/2014  07:42:00      -98.760      -55.240       16.539       58.459       65.543       35.349     3417.501     4295.881     1249.551        1.102        0.448      113.159       32.336        0.082      343.368       19.431      861.370
05/27/2014  07:43:00      -79.985     -177.952       -0.345       56.773       51.483       27.841     3223.133     2650.508      775.115        2.236        0.332      195.101       24.076        0.015      343.469       19.599      861.354
05/27/2014  07:44:00     -123.524     -187.761       -4.350       67.023       49.948       39.365     4492.109     2494.794     1549.607        2.953        0.427      224.750       31.393        0.020      343.323       19.351      861.384
05/27/2014  07:45:00      -56.507     -127.843        3.832       63.012       64.697       32.948     3970.496     4185.754     1085.570        1.439        0.462      139.774       31.100        0.050      343.353       19.402      861.391
05/27/2014  07:46:00     -158.430     -234.248      -22.093       88.116       85.980       51.986     7764.439     7392.574     2702.576        4.916        0.893      282.793       39.682        0.020      343.361       19.417      861.432
05/27/2014  07:47:00      -82.174     -157.539        5.865       63.373       84.486       39.070     4016.151     7137.833     1526.443        2.214        0.634      177.683       34.544        0.038      343.438       19.548      861.444
05/27/2014  07:48:00     -100.708      -75.276        0.876       70.813       63.795       32.538     5014.435     4069.853     1058.726        1.297        0.507      125.732       33.536        0.071      343.557       19.751      861.428
05/27/2014  07:49:00      -90.018     -165.666       -1.075       55.842       52.426       28.568     3118.346     2748.523      816.129        2.111        0.334      188.543       20.044        0.011      343.611       19.844      861.416
05/27/2014  07:50:00      -91.845     -164.449       -3.681       57.686       55.745       36.213     3327.700     3107.455     1311.382        2.162        0.387      188.358       32.983        0.031      343.662       19.930      861.409
05/27/2014  07:51:00      -85.259     -112.344       -5.356       49.257       66.947       28.867     2426.284     4481.883      833.314        1.383        0.387      141.033       31.331        0.049      343.765       20.106      861.372
05/27/2014  07:52:00      -93.248     -139.175      -10.051       53.897       51.250       31.368     2904.927     2626.529      983.971        1.734        0.326      167.526       30.798        0.034      343.752       20.083      861.397
05/27/2014  07:53:00     -116.678     -167.845       -3.718       59.279       46.008       35.165     3513.994     2116.718     1236.604        2.433        0.343      204.416       34.136        0.028      343.822       20.203      861.424
05/27/2014  07:54:00     -104.335     -139.265        1.835       56.484       64.517       38.026     3190.477     4162.447     1445.996        1.954        0.440      174.012       31.754        0.033      343.863       20.273      861.427
05/27/2014  07:55:00     -149.193     -107.159        4.619       73.180       75.666       40.042     5355.364     5725.275     1603.343        2.322        0.634      183.689       34.542        0.035      343.987       20.485      861.399
05/27/2014  07:56:00     -135.697      -83.527       12.119       69.083       44.741       31.689     4772.402     2001.774     1004.188        1.666        0.389      159.344       31.586        0.039      344.083       20.650      861.408
05/27/2014  07:57:00     -111.801     -151.799        9.605       87.316       94.969       44.976     7624.037     9019.195     2022.800        2.715        0.933      188.527       49.659        0.069      344.196       20.840      861.450
05/27/2014  07:58:00     -204.858     -224.530       -5.819      102.238      102.485       52.308    10452.522    10503.101     2736.168        5.805        1.185      303.942       48.888        0.026      344.065       20.616      861.474
05/27/2014  07:59:00     -120.049      -86.999       14.309      108.011       88.617       53.522    11666.395     7853.001     2864.581        2.228        1.119      148.258       61.628        0.173      344.185       20.822      861.462
05/27/2014  08:00:00     -157.365     -121.418       -1.727       87.184       87.579       43.775     7601.104     7670.101     1916.241        2.834        0.859      198.761       45.603        0.053      344.001       20.507      861.438
05/27/2014  08:01:00     -209.692     -192.207       -6.587       70.957       80.665       54.631     5034.863     6506.816     2984.538        4.774        0.726      284.454       46.045        0.026      344.080       20.642      861.431
05/27/2014  08:02:00     -114.296     -165.434        4.302       78.661      101.309       35.839     6187.620    10263.556     1284.431        2.909        0.887      201.077       32.516        0.026      344.187       20.825      861.426
05/27/2014  08:03:00     -103.165     -127.269        0.632       60.970       55.605       32.532     3717.336     3091.876     1058.312        1.735        0.393      163.830       33.756        0.042      344.223       20.887      861.397
05/27/2014  08:04:00     -100.889      -77.559        5.917       81.741       81.188       38.582     6681.536     6591.499     1488.570        1.549        0.738      127.256       43.099        0.115      344.366       21.130      861.382
05/27/2014  08:05:00     -199.858     -187.484      -11.876       79.901       64.409       41.444     6384.215     4148.532     1717.601        4.374        0.613      274.032       35.961        0.017      344.350       21.102      861.403
05/27/2014  08:06:00     -183.622     -112.080       16.418      119.551      108.685       57.577    14292.535    11812.480     3315.156        3.798        1.471      215.125       65.267        0.092      344.389       21.169      861.408
05/27/2014  08:07:00      -61.113      -34.786       11.440       81.717       52.289       40.326     6677.643     2734.127     1626.188        0.805        0.552       70.320       41.975        0.356      344.555       21.458      861.404
05/27/2014  08:08:00     -102.904     -159.581       -6.049       54.225       62.161       24.767     2940.387     3863.959      613.401        2.175        0.371      189.882       22.343        0.014      344.409       21.204      861.385
05/27/2014  08:09:00      -64.466     -141.502       -1.435       64.632       74.357       38.323     4177.351     5528.975     1468.690        1.768        0.559      155.495       40.639        0.068      344.462       21.297      861.394
05/27/2014  08:10:00      -44.088      -61.378       22.303       56.300       58.407       37.319     3169.700     3411.369     1392.696        0.709        0.399       75.572       38.018        0.253      344.624       21.577      861.405
05/27/2014  08:11:00     -118.980     -182.815       -0.280       84.253       89.970       42.283     7098.583     8094.582     1787.825        3.228        0.849      218.123       48.706        0.050      344.589       21.513      861.416
05/27/2014  08:12:00     -139.374      -94.021        0.338       57.289       60.185       34.139     3281.973     3622.287     1165.486        1.817        0.403      168.122       32.208        0.037      344.702       21.707      861.423
05/27/2014  08:13:00     -147.260      -89.382        9.764       93.932       60.625       43.327     8823.136     3675.335     1877.244        2.207        0.719      172.263       43.338        0.063      344.702       21.705      861.428
05/27/2014  08:14:00      -77.509     -143.933       12.216       68.772       95.664       41.478     4729.645     9151.590     1720.424        2.123        0.780      163.475       48.813        0.089      344.746       21.779      861.423
05/27/2014  08:15:00      -85.634     -103.277       -0.428       54.645       85.366       41.346     2986.129     7287.376     1709.476        1.499        0.599      134.162       32.977        0.060      344.718       21.735      861.401
05/27/2014  08:16:00     -114.556      -69.461        1.296       56.221       96.393       32.707     3160.836     9291.552     1069.719        1.573        0.676      133.970       25.889        0.037      344.643       21.607      861.374
05/27/2014  08:17:00      -96.271      -61.234       12.792       75.289       66.483       40.215     5668.369     4419.934     1617.227        1.244        0.585      114.095       34.147        0.090      344.727       21.749      861.375
05/27/2014  08:18:00      -93.501      -96.933       16.749       81.014      105.202       47.996     6563.200    11067.535     2303.620        1.917        0.997      134.679       49.605        0.136      344.840       21.943      861.392
05/27/2014  08:19:00     -203.184      -98.113       -3.895      107.791       67.020       44.000    11618.822     4491.731     1936.037        3.448        0.902      225.632       42.423        0.035      344.673       21.654      861.386
05/27/2014  08:20:00     -129.317     -119.786        3.447       89.074       84.004       45.320     7934.144     7056.613     2053.939        2.406        0.852      176.271       53.966        0.094      344.714       21.727      861.375
05/27/2014  08:21:00      -61.263      -16.701       25.914      100.602       81.060       59.646    10120.744     6570.780     3557.666        1.247        1.012       63.499       59.573        0.880      344.886       22.023      861.372
05/27/2014  08:22:00        7.518      -21.927       30.399       64.950       64.793       35.276     4218.515     4198.159     1244.422        0.556        0.483       23.180       39.453        2.897      344.952       22.138      861.371
05/27/2014  08:23:00     -111.798     -212.448        5.914       81.744       56.145       39.850     6682.140     3152.286     1588.047        3.454        0.571      240.068       35.312        0.022      344.649       21.613      861.395
05/27/2014  08:24:00     -189.187     -238.421       -8.792       90.183      115.444       48.073     8132.888    13327.362     2311.034        5.824        1.189      304.362       47.216        0.024      344.712       21.722      861.409
05/27/2014  08:25:00     -164.114     -184.364       -7.837       84.527      112.214       48.431     7144.838    12592.069     2345.557        4.153        1.104      246.827       46.026        0.035      344.791       21.856      861.440
05/27/2014  08:26:00      -99.451     -314.065       -0.702       79.043       88.499       43.039     6247.785     7832.069     1852.355        6.223        0.797      329.435       31.186        0.009      344.825       21.915      861.474
05/27/2014  08:27:00       -1.601     -182.451        2.148       85.639       88.987       48.630     7334.087     7918.650     2364.909        2.545        0.881      182.458       31.757        0.030      344.988       22.195      861.462
05/27/2014  08:28:00      -15.569      -99.989        0.575       70.512       51.809       42.847     4971.999     2684.139     1835.867        0.986        0.475      101.194       25.214        0.062      344.998       22.214      861.398
05/27/2014  08:29:00      -38.674      -76.888        5.185       78.042       73.020       39.886     6090.575     5331.928     1590.882        1.022        0.651       86.066       43.542        0.256      345.080       22.357      861.397
05/27/2014  08:30:00        2.483      -56.665       10.762       42.289       52.691       31.981     1788.343     2776.303     1022.785        0.446        0.279       56.719       17.338        0.093      345.214       22.585      861.444
05/27/2014  08:31:00        0.018      -76.413        2.589       90.892       84.668       52.297     8261.289     7168.676     2735.011        1.200        0.908       76.413       52.699        0.476      345.187       22.539      861.481
05/27/2014  08:32:00      -24.998     -169.273        9.141      100.728      115.165       57.341    10146.214    13263.083     3287.950        2.802        1.335      171.109       50.995        0.089      345.083       22.359      861.505
05/27/2014  08:33:00      -65.603      -95.023       19.415       83.953       71.630       53.148     7048.052     5130.859     2824.734        1.435        0.750      115.469       55.475        0.231      345.073       22.343      861.455
05/27/2014  08:34:00      -73.829      -89.675       -6.506       76.528       58.678       42.061     5856.595     3443.129     1769.089        1.230        0.553      116.156       31.103        0.072      345.048       22.301      861.438
05/27/2014  08:35:00      -68.661     -122.232       -0.856       49.608       79.238       40.402     2460.959     6278.719     1632.296        1.501        0.519      140.196       40.072        0.082      344.977       22.176      861.451
05/27/2014  08:36:00     -113.306     -151.025      -18.448       48.303       63.424       37.124     2333.161     4022.560     1378.220        2.186        0.387      188.804       25.337        0.018      344.986       22.191      861.458
05/27/2014  08:37:00     -118.074     -123.531       12.668       89.229       57.258       46.377     7961.901     3278.464     2150.850        2.137        0.670      170.884       33.289        0.038      344.995       22.209      861.464
05/27/2014  08:38:00      -70.368      -19.430       -4.629       82.344       43.533       35.050     6780.518     1895.159     1228.479        0.763        0.495       73.001       23.264        0.102      345.136       22.450      861.437
05/27/2014  08:39:00      -80.902      -86.482       11.328       89.586      111.174       33.749     8025.684    12359.701     1139.025        1.783        1.076      118.424       41.002        0.120      345.199       22.559      861.436
05/27/2014  08:40:00     -100.442      -83.239       25.268      135.342       86.048       52.183    18317.420     7404.187     2723.049        2.304        1.422      130.450       63.643        0.238      345.211       22.578      861.437
05/27/2014  08:41:00     -111.044     -114.455        5.251       91.050       74.310       45.982     8290.114     5521.911     2114.318        2.069        0.796      159.470       47.052        0.087      345.191       22.544      861.463
05/27/2014  08:42:00     -157.766     -131.294       -3.896      112.542       49.136       33.185    12665.621     2414.318     1101.268        2.916        0.809      205.252       28.204        0.019      345.119       22.421      861.467
05/27/2014  08:43:00      -35.875      -44.691       19.203       53.197       59.330       32.922     2829.967     3520.016     1083.837        0.554        0.372       57.309       29.269        0.261      345.728       23.467      861.443
05/27/2014  08:44:00      -59.105      -77.010        8.508       49.671      105.637       26.801     2467.213    11159.165      718.294        1.192        0.717       97.077       23.341        0.058      345.318       22.762      861.472
05/27/2014  08:45:00     -161.081     -204.607      -13.963       74.316       83.330       33.114     5522.876     6943.969     1096.548        4.078        0.678      260.406       26.784        0.011      345.103       22.391      861.515
05/27/2014  08:46:00     -156.133     -207.387      -22.926       65.579       70.164       42.058     4300.591     4922.948     1768.906        3.945        0.550      259.590       27.164        0.011      345.118       22.416      861.506
05/27/2014  08:47:00      -25.198      -16.887       25.279       67.089       77.354       58.294     4500.907     5983.677     3398.186        0.772        0.694       30.334       58.149        3.675      345.353       22.823      861.455
05/27/2014  08:48:00      -31.311       15.445       -3.251       46.170       51.248       28.269     2131.685     2626.393      799.109        0.339        0.278       34.913       15.970        0.209      345.378       22.865      861.455
05/27/2014  08:49:00       46.115      -90.416       -9.585      118.951      120.643       48.490    14149.351    14554.637     2351.257        2.072        1.553      101.498       52.669        0.269      345.517       23.102      861.450
05/27/2014  08:50:00      -17.786     -157.435        0.765      145.621      100.481       57.608    21205.587    10096.335     3318.704        2.985        1.731      158.436       42.127        0.071      345.379       22.866      861.476
05/27/2014  08:51:00     -102.519      -72.081       -3.344       94.693       60.477       49.920     8966.845     3657.526     2491.980        1.541        0.756      125.323       29.347        0.055      345.380       22.867      861.499
05/27/2014  08:52:00      -63.675      -72.693       20.215      104.466       79.314       33.476    10913.066     6290.729     1120.617        1.403        0.916       96.637       32.754        0.115      345.467       23.016      861.493
05/27/2014  08:53:00       22.459      -64.550        7.619      109.633       63.754       46.814    12019.430     4064.592     2191.508        1.150        0.914       68.345       33.439        0.239      345.522       23.111      861.473
05/27/2014  08:54:00       24.322      -89.903        5.980       78.459      104.453       55.004     6155.854    10910.424     3025.387        1.440        1.005       93.135       50.607        0.295      345.245       22.637      861.385
05/27/2014  08:55:00      -52.505     -118.026        6.745       93.357      127.000       59.299     8715.536    16128.937     3516.316        2.254        1.418      129.178       64.631        0.250      345.519       23.106      861.477
05/27/2014  08:56:00       33.469      -91.429       33.296      111.976       86.316       61.572    12538.562     7450.471     3791.152        1.718        1.189       97.362       49.438        0.258      345.621       23.280      861.492
05/27/2014  08:57:00     -143.476      -64.796      -27.193       60.117       61.167       20.501     3614.006     3741.367      420.279        1.665        0.389      157.429       14.456        0.008      345.481       23.042      861.463
05/27/2014  08:58:00     -208.182     -160.086       -7.074      128.838      117.962       56.328    16599.133    13914.977     3172.829        5.135        1.684      262.617       45.426        0.030      345.385       22.876      861.452
05/27/2014  08:59:00      -40.960     -104.191       20.081       80.878       84.995       61.073     6541.213     7224.130     3729.952        1.521        0.875      111.953       35.220        0.099      345.609       23.261      861.439
05/27/2014  09:00:00      -26.729     -155.490       12.198      125.803      117.843       59.586    15826.519    13887.002     3550.478        2.915        1.663      157.770       50.764        0.104      345.694       23.405      861.466
05/27/2014  09:01:00       51.151     -291.249       -4.416      136.246      185.209       89.939    18563.096    34302.230     8088.967        7.420        3.048      295.707       74.330        0.063      345.604       23.249      861.494
05/27/2014  09:02:00       34.117     -187.772       21.059      112.543      115.149       70.423    12665.975    13259.232     4959.390        3.387        1.544      190.846       54.150        0.081      345.555       23.167      861.483
05/27/2014  09:03:00       31.318      -72.358       36.686       66.984       73.076       65.922     4486.816     5340.117     4345.678        1.086        0.709       78.845       55.245        0.491      345.662       23.353      861.449
05/27/2014  09:04:00      -64.073      -59.392       23.361       76.346       78.483       53.481     5828.665     6159.577     2860.269        1.151        0.742       87.366       32.277        0.136      345.558       23.172      861.464
05/27/2014  09:05:00      -46.001      -59.097        6.454       47.512       74.651       39.690     2257.348     5572.729     1575.266        0.753        0.470       74.890       27.823        0.138      345.584       23.218      861.468
05/27/2014  09:06:00      -77.300     -109.919       15.949       64.019       51.208       39.361     4098.433     2622.219     1549.301        1.329        0.413      134.378       27.815        0.043      345.680       23.382      861.483
05/27/2014  09:07:00      -89.554     -114.943       -7.908       77.009       50.574       35.239     5930.457     2557.703     1241.753        1.551        0.486      145.712       18.675        0.016      345.681       23.384      861.498
05/27/2014  09:08:00     -234.141     -205.720       -5.157      208.519      127.828       72.774    43480.205    16340.004     5296.125        8.113        3.256      311.678       58.105        0.035      345.474       23.027      861.470
05/27/2014  09:09:00      -75.016     -115.577       21.953      119.394      100.164       51.531    14254.908    10032.915     2655.460        2.320        1.347      137.788       48.693        0.125      345.890       23.744      861.478
05/27/2014  09:10:00     -121.802     -115.807        0.353      131.895      103.043       51.831    17396.403    10617.858     2686.466        2.947        1.535      168.068       44.308        0.069      345.723       23.457      861.470
05/27/2014  09:11:00     -115.531      -65.782       16.940      140.100       89.327       53.850    19628.054     7979.325     2899.784        2.423        1.525      132.946       56.762        0.182      345.695       23.407      861.463
05/27/2014  09:12:00      -47.940     -195.090        4.463      122.811      154.633       76.264    15082.439    23911.390     5816.166        4.259        2.240      200.894       69.283        0.119      345.774       23.542      861.467
05/27/2014  09:13:00       -7.147     -109.918        1.237       93.941      105.476       75.928     8824.896    11125.100     5765.081        1.892        1.286      110.150       62.377        0.321      345.880       23.726      861.421
05/27/2014  09:14:00     -189.913     -189.964        8.821      186.446      183.541       64.652    34762.146    33687.116     4179.818        7.242        3.631      268.614       86.979        0.105      345.811       23.607      861.455
05/27/2014  09:15:00     -141.164     -139.059        6.942      105.271      137.839       57.193    11081.989    18999.540     3271.003        3.633        1.668      198.153       44.994        0.052      345.609       23.260      861.460
05/27/2014  09:16:00      -46.223     -187.938        7.757       72.599       82.090       38.079     5270.590     6738.736     1450.024        2.549        0.673      193.539       20.524        0.011      345.610       23.262      861.421
05/27/2014  09:17:00     -137.738     -210.562       -0.671      100.308      130.054       57.110    10061.789    16914.091     3261.503        4.677        1.512      251.611       53.480        0.045      345.668       23.359      861.403
05/27/2014  09:18:00      -77.891     -175.768      -17.368       98.389       79.870       40.077     9680.300     6379.283     1606.178        2.746        0.883      192.253       20.120        0.011      345.681       23.382      861.420
05/27/2014  09:19:00       41.365     -198.787      -15.504      113.675      108.988       56.390    12921.939    11878.293     3179.811        3.472        1.399      203.045       31.770        0.024      345.911       23.778      861.454
05/27/2014  09:20:00       36.480     -134.185        4.875      114.120      122.537       71.740    13023.323    15015.422     5146.689        2.627        1.659      139.056       71.862        0.267      345.980       23.898      861.399
05/27/2014  09:21:00      -52.572     -151.477       -6.769      109.429      136.992       65.514    11974.657    18766.831     4292.108        3.039        1.752      160.340       57.335        0.128      345.824       23.630      861.411
05/27/2014  09:22:00      -35.329      -53.191       12.498       58.549       63.048       39.228     3427.962     3975.088     1538.850        0.659        0.447       63.855       29.073        0.207      345.883       23.733      861.417
05/27/2014  09:23:00      -77.184     -103.571       19.169       72.189       88.196       53.223     5211.237     7778.499     2832.712        1.643        0.791      129.168       39.346        0.093      346.054       24.024      861.424
05/27/2014  09:24:00      -38.848      -20.458       15.755       28.765       34.166       34.829      827.453     1167.348     1213.027        0.269        0.160       43.906       24.617        0.314      346.140       24.174      861.404
05/27/2014  09:25:00      -79.023     -116.687       -0.885       60.208       61.203       29.152     3624.966     3745.800      849.844        1.404        0.411      140.927       17.444        0.015      345.911       23.778      861.422
05/27/2014  09:26:00       20.990     -162.516      -10.783      114.982      125.902       85.706    13220.893    15851.272     7345.445        3.169        1.821      163.866       81.319        0.246      345.985       23.905      861.418
05/27/2014  09:27:00       24.528     -157.792       21.973      132.793      115.306       96.323    17634.055    13295.557     9278.156        3.309        2.010      159.687       82.424        0.266      346.087       24.079      861.344
05/27/2014  09:28:00     -176.343     -311.625       -4.736      249.029      166.971       81.289    62015.431    27879.361     6607.950       11.235        4.825      358.060       88.849        0.062      345.807       23.599      861.433
05/27/2014  09:29:00      -73.939     -262.692       19.751      153.020      135.429       80.063    23415.255    18340.979     6410.140        6.151        2.408      272.899       62.345        0.052      345.703       23.420      861.445
05/27/2014  09:30:00     -121.274     -180.542      -15.967      142.439      118.316       53.051    20289.002    13998.589     2814.381        4.232        1.855      217.492       47.537        0.048      345.717       23.445      861.429
05/27/2014  09:31:00      -49.448     -179.560       -8.427      126.947       96.038       59.785    16115.464     9223.380     3574.266        3.183        1.446      186.245       44.089        0.056      345.849       23.671      861.387
05/27/2014  09:32:00      -77.829     -161.022        2.166      113.645       85.085       78.144    12915.108     7239.411     6106.508        2.912        1.313      178.844       28.899        0.026      345.835       23.647      861.341
05/27/2014  09:33:00     -142.409     -228.117      -12.736      142.582       97.808       71.286    20329.653     9566.399     5081.644        5.372        1.749      268.919       55.674        0.043      345.908       23.771      861.345
05/27/2014  09:34:00     -130.043     -144.969       26.224      154.744      168.248       71.081    23945.665    28307.555     5052.530        4.795        2.865      194.749       83.308        0.183      346.065       24.043      861.368
05/27/2014  09:35:00     -111.920     -257.846       10.952      134.287      234.828       78.825    18033.104    55143.958     6213.402        7.924        3.970      281.088       91.780        0.107      345.977       23.890      861.386
05/27/2014  09:36:00     -102.065     -167.335      -22.541      102.265       97.041       50.166    10458.104     9416.967     2516.586        3.065        1.120      196.006       40.660        0.043      345.887       23.738      861.366
05/27/2014  09:37:00      -44.306     -147.882       14.644      122.279      138.323       88.393    14952.230    19133.307     7813.329        3.296        2.095      154.377       62.487        0.164      346.117       24.132      861.338
05/27/2014  09:38:00      -35.199     -180.379       -4.977      120.155      139.758       67.314    14437.193    19532.164     4531.225        3.614        1.925      183.782       45.066        0.060      346.042       24.004      861.338
05/27/2014  09:39:00      100.955     -337.379      -10.120      205.801      214.167      122.904    42353.877    45867.600    15105.496       11.370        5.166      352.159      110.445        0.098      345.904       23.765      861.371
05/27/2014  09:40:00       -9.105     -335.095       -3.457      134.230      209.792       87.586    18017.809    44012.572     7671.235        9.103        3.485      335.218       78.974        0.056      345.769       23.532      861.378
05/27/2014  09:41:00       26.598      -84.705       18.365      113.163      107.401       74.697    12805.882    11535.009     5579.616        1.906        1.496       88.783       73.106        0.678      345.888       23.739      861.346
05/27/2014  09:42:00      123.720     -208.757       -3.663      125.846      174.076       90.763    15837.103    30302.466     8237.973        5.663        2.719      242.665      108.938        0.202      345.945       23.836      861.346
05/27/2014  09:43:00     -140.461     -167.268       -2.767      101.035      127.849       47.010    10208.170    16345.434     2209.934        3.823        1.438      218.421       23.413        0.011      345.910       23.777      861.380
05/27/2014  09:44:00      -60.634     -111.284      -10.303      116.164       95.195       55.787    13493.993     9062.123     3112.175        2.091        1.283      126.731       46.238        0.133      346.113       24.124      861.386
05/27/2014  09:45:00     -159.422     -287.488       11.617      159.226      197.151       80.793    25352.762    38868.440     6527.572        8.946        3.537      328.732       86.142        0.069      345.945       23.835      861.400
05/27/2014  09:46:00     -137.973     -417.748       -1.025      137.788      159.403       72.026    18985.524    25409.403     5187.736       12.156        2.479      439.943       74.151        0.028      345.747       23.495      861.341
05/27/2014  09:47:00     -179.024     -242.902      -14.985      150.801      130.334       72.318    22740.960    16987.076     5229.956        6.811        2.248      301.747       64.854        0.046      345.974       23.887      861.347
05/27/2014  09:48:00     -234.096     -288.004        0.978      133.441      183.845       70.936    17806.413    33798.824     5031.937        9.718        2.832      371.144       65.290        0.031      345.910       23.777      861.384
05/27/2014  09:49:00     -155.312     -226.608       11.804      138.298      135.043       58.655    19126.436    18236.566     3440.401        5.820        2.040      274.724       44.841        0.027      345.947       23.840      861.351
05/27/2014  09:50:00     -173.358     -126.440        7.730      136.265       87.101       52.131    18568.224     7586.647     2717.634        3.748        1.444      214.570       59.974        0.078      345.996       23.923      861.331
05/27/2014  09:51:00     -102.215      -79.868       -8.050      101.970      104.215       46.042    10397.803    10860.746     2119.864        2.013        1.169      129.718       33.826        0.068      346.011       23.952      861.304
05/27/2014  09:52:00     -112.723     -174.434      -10.873       66.849       73.600       44.445     4468.819     5416.924     1975.341        2.755        0.593      207.686       38.278        0.034      345.862       23.692      861.282
05/27/2014  09:53:00     -186.453     -156.841        9.214      168.250      172.346       58.213    28308.074    29703.229     3388.788        6.041        3.070      243.647       81.152        0.111      346.219       24.308      861.286
05/27/2014  09:54:00     -145.430     -252.209        8.816      171.898      195.009       85.423    29548.814    38028.705     7297.070        7.984        3.744      291.135       79.406        0.074      345.967       23.873      861.238
05/27/2014  09:55:00      -52.995     -192.981       -5.397      147.024      150.850       70.693    21616.078    22755.625     4997.545        4.471        2.468      200.126       24.528        0.015      346.145       24.179      861.249
05/27/2014  09:56:00      -34.055     -168.277        6.008      122.186      137.010       57.725    14929.508    18771.733     3332.175        3.327        1.852      171.688       53.930        0.099      346.078       24.065      861.312
05/27/2014  09:57:00      -80.148     -131.645      -15.491       83.510       71.270       36.563     6973.893     5079.439     1336.822        1.869        0.670      154.124       12.351        0.006      345.794       23.578      861.264
05/27/2014  09:58:00      -58.250     -180.851      -24.658       90.815       91.709       41.425     8247.432     8410.603     1716.008        2.754        0.919      190.000       39.656        0.044      345.791       23.571      861.225
05/27/2014  09:59:00     -150.151     -169.996        5.852      130.854      183.367       71.962    17122.867    33623.546     5178.540        5.369        2.796      226.813       72.934        0.103      346.028       23.980      861.214
05/27/2014  10:00:00     -114.369     -165.053       11.979      153.528      128.788       83.730    23570.963    16586.334     7010.664        4.381        2.358      200.805       70.622        0.124      346.365       24.556      861.198
05/27/2014  10:01:00       46.359     -207.663       -5.425      147.916      174.831       79.827    21879.241    30566.034     6372.330        5.205        2.941      212.775       84.230        0.157      346.347       24.528      861.204
05/27/2014  10:02:00      -51.178     -374.629      -37.249      203.185      179.641       98.104    41284.177    32270.944     9624.408       11.375        4.159      378.108       89.281        0.056      346.094       24.090      861.287
05/27/2014  10:03:00      -55.391      -62.754       32.405      111.762       90.407       58.422    12490.777     8173.506     3413.141        1.606        1.204       83.703       76.489        0.835      346.425       24.663      861.269
05/27/2014  10:04:00      -22.672     -111.950        1.164       90.004      105.985       57.435     8100.663    11232.727     3298.748        1.784        1.132      114.223       51.297        0.202      346.399       24.617      861.276
05/27/2014  10:05:00       37.996     -153.628       25.602      101.233      255.224       74.265    10248.115    65139.302     5515.324        5.329        4.045      158.257      109.813        0.481      346.305       24.455      861.233
05/27/2014  10:06:00      -72.535     -156.680       -2.311      119.920      151.049       83.642    14380.739    22815.844     6996.034        3.700        2.210      172.656       63.182        0.134      346.380       24.582      861.200
05/27/2014  10:07:00       92.005     -224.718        3.122      147.242      163.179       84.017    21680.175    26627.309     7058.905        5.716        2.768      242.823       86.675        0.127      346.278       24.408      861.163
05/27/2014  10:08:00      121.032     -208.183       40.421      235.532      240.591      121.523    55475.184    57884.248    14767.749        9.385        6.406      240.809      161.715        0.451      346.399       24.618      861.084
05/27/2014  10:09:00      105.439     -309.133       13.280      170.794      214.746      125.089    29170.488    46116.048    15647.302        9.888        4.547      326.620      101.371        0.096      346.196       24.267      861.071
05/27/2014  10:10:00      224.643     -298.813       18.372      170.129      254.776      155.996    28943.754    64910.662    24334.845       12.912        5.909      373.837      174.732        0.218      346.270       24.393      860.971
05/27/2014  10:11:00        9.244     -234.867        4.033      170.942      207.095      131.018    29221.020    42888.403    17165.808        7.225        4.464      235.049      138.922        0.349      346.401       24.618      860.994
05/27/2014  10:12:00      -35.670     -166.218        7.643       81.306      154.534       55.263     6610.705    23880.875     3053.977        3.125        1.677      170.002       48.556        0.082      346.479       24.753      861.166
05/27/2014  10:13:00      -14.079     -150.526       35.628      135.601      145.517       91.883    18387.626    21175.155     8442.479        3.606        2.400      151.183       86.505        0.327      346.540       24.858      861.183
05/27/2014  10:14:00       79.237      -61.147       53.957      110.196      169.825       76.514    12143.185    28840.410     5854.348        2.987        2.342      100.087      103.796        1.075      346.215       24.302      861.119
05/27/2014  10:15:00       41.047      -83.503       21.387       66.549      115.663       54.820     4428.754    13377.862     3005.243        1.496        1.041       93.046       68.609        0.544      346.381       24.585      861.088
05/27/2014  10:16:00      151.515     -146.240        1.110      101.883      213.035       69.303    10380.161    45383.985     4802.867        5.244        3.028      210.577       96.797        0.211      346.136       24.164      861.123
05/27/2014  10:17:00       65.995     -185.070       34.402      163.031      223.223       95.280    26579.015    49828.476     9078.197        6.262        4.274      196.485      111.898        0.324      346.397       24.611      861.076
05/27/2014  10:18:00     -176.935     -298.638       -3.926      153.553      192.326       78.138    23578.575    36989.114     6105.525        9.358        3.334      347.118       82.122        0.056      346.144       24.178      861.162
05/27/2014  10:19:00     -244.834     -280.519      -11.982      194.551      165.591       67.366    37850.022    27420.326     4538.179       10.428        3.490      372.337       70.990        0.036      346.082       24.070      861.098
05/27/2014  10:20:00     -115.647     -105.787       27.427      142.512      129.370       67.577    20309.779    16736.720     4566.717        3.346        2.081      156.733       72.860        0.216      346.469       24.736      861.084
05/27/2014  10:21:00     -189.984      -98.326        3.516      138.682       90.328       59.535    19232.676     8159.187     3544.451        3.835        1.547      213.920       71.280        0.111      346.383       24.588      861.093
05/27/2014  10:22:00     -214.268     -194.342       -0.215      145.687       99.541       69.329    21224.718     9908.447     4806.573        5.980        1.797      289.274       76.890        0.071      346.032       23.984      861.066
05/27/2014  10:23:00     -188.443     -274.645      -11.881      106.603      114.806       48.376    11364.224    13180.521     2340.237        6.898        1.344      333.077       35.523        0.011      346.039       23.996      861.072
05/27/2014  10:24:00     -220.202     -121.588       14.784      163.410      116.940       63.210    26702.824    13674.924     3995.491        5.392        2.219      251.540       74.209        0.087      346.395       24.608      861.082
05/27/2014  10:25:00      -52.951     -184.618       -5.253      128.369      117.071       68.990    16478.591    13705.608     4759.665        3.592        1.747      192.061       63.022        0.108      346.441       24.688      861.114
05/27/2014  10:26:00       83.829     -177.285      -34.760      124.983      129.383       60.065    15620.857    16739.851     3607.767        3.781        1.798      196.105       53.116        0.073      346.539       24.857      861.088
05/27/2014  10:27:00      -24.814     -152.918      -26.633      125.582       80.336       57.462    15770.941     6453.795     3301.842        2.511        1.276      154.918       42.548        0.075      346.320       24.481      861.056
05/27/2014  10:28:00      -45.135      -96.682        1.851      101.218       85.764       48.926    10245.047     7355.515     2393.727        1.569        1.000      106.699       49.935        0.219      346.642       25.035      861.068
05/27/2014  10:29:00       12.652     -152.029       17.300      113.389      149.145       85.532    12857.083    22244.205     7315.791        3.299        2.121      152.554       91.143        0.357      346.654       25.056      861.092
05/27/2014  10:30:00      -40.227     -108.442        7.535       86.349      105.286       41.316     7456.211    11085.181     1707.026        1.684        1.012      115.663       40.925        0.125      346.722       25.171      861.037
05/27/2014  10:31:00       86.104     -244.857       -4.713      114.367      155.305       74.370    13079.732    24119.760     5530.855        5.505        2.137      259.555       69.026        0.071      346.321       24.483      861.054
05/27/2014  10:32:00      -70.888     -195.630       -8.577      163.274      146.415       81.029    26658.428    21437.291     6565.624        4.900        2.733      208.077       61.584        0.088      346.438       24.682      861.053
05/27/2014  10:33:00     -200.589     -224.259      -19.753      167.530      171.037       58.825    28066.245    29253.813     3460.357        7.584        3.039      300.878       65.903        0.048      345.992       23.917      861.098
05/27/2014  10:34:00      -79.316     -101.716       28.297      151.995       89.015       59.173    23102.518     7923.638     3501.419        2.598        1.726      128.985       47.844        0.138      346.515       24.818      861.025
05/27/2014  10:35:00      -60.815     -172.230       -2.487       75.284      107.153       52.019     5667.688    11481.794     2705.967        2.661        0.993      182.652       31.698        0.030      346.359       24.547      861.014
05/27/2014  10:36:00      -43.412      -39.021       27.213       50.280       71.154       59.794     2528.110     5062.850     3575.381        0.765        0.558       58.372       54.680        0.877      346.975       25.609      861.024
05/27/2014  10:37:00      -71.535     -181.136       -2.609      146.283      129.785       75.150    21398.859    16844.085     5647.576        4.090        2.195      194.750       84.255        0.187      346.503       24.794      861.053
05/27/2014  10:38:00       33.985     -240.723       -5.071      133.442      166.959       94.332    17806.680    27875.466     8898.609        5.684        2.729      243.110      102.804        0.179      346.522       24.827      861.040
05/27/2014  10:39:00      -89.752     -112.221       10.670      142.721      111.986       68.640    20369.365    12540.773     4711.405        2.918        1.881      143.697       58.499        0.166      346.658       25.062      861.038
05/27/2014  10:40:00      -99.942     -122.918      -14.731       58.919       94.290       47.779     3471.436     8890.515     2282.836        1.998        0.732      158.421       51.517        0.106      346.481       24.758      861.039
05/27/2014  10:41:00      -67.717      -65.918        0.016       76.400       49.157       31.417     5836.965     2416.417      987.011        0.908        0.462       94.503       36.257        0.147      346.957       25.580      861.031
05/27/2014  10:42:00     -231.198     -212.559        7.261      160.227      129.659       93.089    25672.628    16811.523     8665.577        7.491        2.557      314.060       88.636        0.080      346.696       25.126      861.066
05/27/2014  10:43:00     -259.671     -219.182       -9.732      157.703      136.285       78.495    24870.250    18573.704     6161.497        8.257        2.480      339.808       84.197        0.061      346.502       24.793      861.057
05/27/2014  10:44:00     -246.893     -197.130      -15.860      125.242       97.877       57.002    15685.621     9579.997     3249.215        6.429        1.426      315.938       49.725        0.025      346.386       24.592      861.025
05/27/2014  10:45:00      -40.917     -123.138        2.497      120.020       74.404       47.166    14404.901     5536.024     2224.622        1.950        1.108      129.758       30.453        0.055      346.644       25.040      861.025
05/27/2014  10:46:00     -208.591     -194.960      -11.893      142.670      169.331       79.258    20354.673    28672.998     6281.904        6.847        2.765      285.517       84.405        0.087      346.677       25.094      861.032
05/27/2014  10:47:00     -145.614     -161.726       23.090      127.589      133.026       60.052    16278.970    17695.942     3606.265        4.273        1.879      217.621       53.437        0.060      346.530       24.842      861.021
05/27/2014  10:48:00     -114.517     -137.380       23.196      115.303      113.552       74.843    13294.872    12894.051     5601.428        3.215        1.590      178.850       37.481        0.044      346.756       25.231      860.993
05/27/2014  10:49:00     -187.925     -156.470        2.882      177.487      143.261       81.415    31501.460    20523.724     6628.393        5.922        2.933      244.538       72.405        0.088      346.705       25.142      861.006
05/27/2014  10:50:00     -255.874     -157.611        8.627      206.380      141.863       78.465    42592.827    20125.041     6156.793        7.962        3.444      300.521       92.954        0.096      346.622       24.999      861.004
05/27/2014  10:51:00     -193.943     -183.766       15.220      130.502      137.043       69.178    17030.865    18780.815     4785.589        5.610        2.030      267.178       66.214        0.061      346.635       25.022      861.036
05/27/2014  10:52:00     -331.449     -244.130        2.819      174.912      134.108       79.401    30594.096    17985.085     6304.497       11.216        2.744      411.653       66.318        0.026      346.458       24.716      861.026
05/27/2014  10:53:00     -174.497     -119.618       -3.277      158.452      111.013       52.957    25107.127    12323.815     2804.455        4.249        2.012      211.560       67.287        0.101      346.657       25.061      861.016
05/27/2014  10:54:00      -27.447     -101.871       24.925       90.837      100.372       47.640     8251.418    10074.441     2269.568        1.617        1.030      105.504       40.698        0.149      346.710       25.153      861.040
05/27/2014  10:55:00       51.615     -216.623      -20.156       99.410      119.524       75.205     9882.257    14285.972     5655.739        3.990        1.491      222.687       73.675        0.109      346.876       25.435      861.020
05/27/2014  10:56:00        9.749       -9.244       69.532       51.792      127.145       82.539     2682.399    16165.759     6812.619        1.533        1.283       13.435       91.193       46.075      347.422       26.379      861.026
05/27/2014  10:57:00       -3.580      -32.481       31.542       74.631       85.993       63.592     5569.825     7394.823     4043.999        0.953        0.850       32.677       56.544        2.994      347.363       26.279      860.986
05/27/2014  10:58:00      -71.627      -59.641       -1.131       52.846       44.073       30.699     2792.694     1942.468      942.432        0.718        0.284       93.206       23.061        0.061      346.927       25.527      860.986
05/27/2014  10:59:00     -194.573      -91.188       -1.877      126.365       78.190       55.461    15968.063     6113.635     3075.913        3.566        1.258      214.881       65.434        0.093      346.697       25.129      860.985
05/27/2014  11:00:00      -46.477      -85.334        7.827       75.038       58.057       43.997     5630.767     3370.606     1935.769        1.022        0.547       97.170       40.000        0.169      346.907       25.492      860.960
05/27/2014  11:01:00      -88.559     -111.054       13.393       80.813       83.425       47.813     6530.754     6959.785     2286.080        1.806        0.789      142.041       40.721        0.082      346.856       25.404      860.969
05/27/2014  11:02:00     -255.349      -92.859      -12.474      146.289      109.994       60.226    21400.364    12098.741     3627.149        5.555        1.856      271.710       76.886        0.080      346.905       25.486      860.947
05/27/2014  11:03:00     -188.797     -133.839        0.479      120.390       88.854       56.020    14493.698     7894.968     3138.276        3.954        1.276      231.425       53.704        0.054      347.030       25.701      860.891
05/27/2014  11:04:00      -96.552     -198.888        5.629      155.283      152.890       79.866    24112.803    23375.244     6378.576        5.138        2.693      221.086       70.254        0.101      347.132       25.877      860.889
05/27/2014  11:05:00       57.140     -117.270       25.214      103.129      126.066       85.222    10635.579    15892.650     7262.806        2.572        1.690      130.450       73.703        0.319      347.258       26.097      860.889
05/27/2014  11:06:00       23.891     -166.670       48.385      115.692      147.913       84.762    13384.542    21878.353     7184.538        3.656        2.122      168.374       87.445        0.270      347.340       26.237      860.883
05/27/2014  11:07:00       15.853     -134.525       16.102      127.001       97.341       65.850    16129.331     9475.300     4336.181        2.427        1.497      135.456       52.865        0.152      347.165       25.936      860.937
05/27/2014  11:08:00     -140.411     -167.376        1.368       99.473       90.278       55.969     9894.785     8150.205     3132.476        3.445        1.059      218.472       53.363        0.060      347.017       25.679      860.973
05/27/2014  11:09:00      -95.332     -100.770        0.308      115.143       66.878       49.733    13257.836     4472.723     2473.356        1.972        1.010      138.718       23.592        0.029      347.192       25.982      860.971
05/27/2014  11:10:00      -17.146     -122.180      -34.821      107.419       87.557       50.911    11538.922     7666.216     2591.952        1.911        1.090      123.378       44.936        0.133      347.210       26.014      860.926
05/27/2014  11:11:00     -112.525      -77.984       10.782      145.566      115.397       56.069    21189.464    13316.424     3143.717        2.825        1.882      136.907       62.576        0.209      347.264       26.107      860.961
05/27/2014  11:12:00      -65.846     -132.882       -3.637       77.299       99.232       46.464     5975.098     9847.029     2158.926        1.999        0.899      148.301       46.634        0.099      346.876       25.437      860.970
05/27/2014  11:13:00      -46.712     -117.724        0.529      113.899      141.167       70.120    12972.883    19928.056     4916.860        2.692        1.891      126.653       67.928        0.288      347.113       25.845      860.942
05/27/2014  11:14:00     -114.402      -88.489       -7.524      102.110       70.276       44.921    10426.550     4938.748     2017.936        1.918        0.869      144.631       36.603        0.064      347.216       26.023      860.945
05/27/2014  11:15:00       75.064      -28.762       48.117       96.593       99.917       58.938     9330.137     9983.481     3473.721        1.578        1.139       80.386       55.890        0.483      347.227       26.043      860.899
05/27/2014  11:16:00      -20.618      -87.191       24.602       79.024       99.303       80.987     6244.861     9861.005     6558.833        1.564        1.133       89.596       66.621        0.553      347.202       26.000      860.867
05/27/2014  11:17:00     -178.449      -70.159      -20.311      137.065      100.234       70.814    18786.860    10046.901     5014.668        3.551        1.692      191.746       53.957        0.079      346.856       25.404      860.902
05/27/2014  11:18:00     -247.779      -96.711       -2.192      191.320       89.915       64.414    36603.317     8084.660     4149.183        5.978        2.442      265.983       72.656        0.075      346.977       25.611      860.967
05/27/2014  11:19:00     -113.361     -100.878       24.957      111.429      110.092       58.381    12416.405    12120.310     3408.294        2.579        1.397      151.746       38.765        0.065      347.282       26.137      860.958
05/27/2014  11:20:00     -299.835     -339.852      -24.290      210.501      205.491       82.302    44310.839    42226.424     6773.697       14.963        4.666      453.212       84.697        0.035      346.720       25.167      860.954
05/27/2014  11:21:00      -35.635     -120.397      -15.983      119.396       89.331       55.387    14255.425     7980.040     3067.746        2.066        1.265      125.560       40.978        0.107      347.086       25.799      860.941
05/27/2014  11:22:00     -169.519      -60.382        7.949      156.331       98.166       49.466    24439.230     9636.531     2446.920        3.448        1.826      179.952       65.371        0.132      347.011       25.669      860.917
05/27/2014  11:23:00     -292.153      -67.315       17.687      179.036      143.987       81.735    32053.738    20732.214     6680.584        7.482        2.973      299.808       88.241        0.087      347.121       25.858      860.909
05/27/2014  11:24:00     -237.768     -147.105       -1.631      169.077      122.187       82.671    28587.014    14929.586     6834.525        6.425        2.518      279.596       85.402        0.093      346.961       25.582      860.907
05/27/2014  11:25:00     -145.883     -112.021       13.913      112.031       96.158       56.773    12551.009     9246.452     3223.144        2.952        1.251      183.931       56.142        0.093      347.221       26.031      860.921
05/27/2014  11:26:00     -350.634     -209.144       -9.773      204.239      147.432       81.804    41713.497    21736.085     6691.847       11.845        3.507      408.272       85.656        0.044      346.986       25.625      860.938
05/27/2014  11:27:00     -259.655     -121.719       16.517      145.456      166.908       83.268    21157.426    27858.410     6933.611        6.922        2.797      286.769       96.263        0.113      346.989       25.632      860.890
05/27/2014  11:28:00     -153.518     -124.679        2.686      137.285       97.150       59.912    18847.147     9438.167     3589.489        3.549        1.594      197.769       67.834        0.118      347.102       25.825      860.893
05/27/2014  11:29:00     -145.671     -101.454       16.442      139.340      103.468       67.104    19415.718    10705.583     4502.976        3.320        1.731      177.519       63.892        0.130      347.436       26.401      860.886
05/27/2014  11:30:00     -169.930     -354.091        2.211      153.059      224.231       83.687    23426.992    50279.569     7003.462       11.747        4.036      392.755       77.451        0.039      347.251       26.081      860.908
05/27/2014  11:31:00     -215.513     -287.288       -1.951       98.123      169.415       74.269     9628.203    28701.552     5515.896        8.641        2.192      359.138       74.538        0.043      346.880       25.443      860.960
05/27/2014  11:32:00       15.469     -229.053       -2.257      166.269      151.464       84.533    27645.536    22941.484     7145.826        5.521        2.887      229.574       71.247        0.096      346.990       25.633      860.935
05/27/2014  11:33:00      -94.099     -165.435        3.747      144.126      147.144       76.556    20772.360    21651.391     5860.803        4.225        2.414      190.324       43.370        0.052      347.094       25.812      860.893
05/27/2014  11:34:00     -101.859     -236.200      -11.550      208.259      173.148       91.211    43371.627    29980.074     8319.517        7.397        4.084      257.227       68.437        0.071      347.086       25.797      860.905
05/27/2014  11:35:00       14.528     -468.183      -18.830      216.382      184.754      119.477    46821.381    34134.013    14274.711       15.748        4.762      468.408       86.626        0.034      346.701       25.134      860.922
05/27/2014  11:36:00      -87.567     -244.199       19.998      174.634      167.531       89.232    30497.187    28066.764     7962.398        6.710        3.326      259.425      102.966        0.158      347.029       25.700      860.891
05/27/2014  11:37:00      -22.013     -246.869       -9.593      171.892      191.892       67.197    29546.832    36822.501     4515.374        6.619        3.544      247.848       48.132        0.038      346.980       25.615      860.888
05/27/2014  11:38:00      -30.875     -218.727       19.290      125.873      114.711       79.127    15844.064    13158.548     6261.124        4.221        1.763      220.896       39.785        0.032      347.111       25.841      860.881
05/27/2014  11:39:00     -207.392     -287.881      -15.387      135.702      167.242       63.679    18415.109    27969.941     4055.069        8.827        2.522      354.806       49.159        0.019      346.787       25.283      860.879
05/27/2014  11:40:00     -216.617     -280.383       -0.241      176.729      137.604       71.192    31233.124    18934.807     5068.278        9.038        2.762      354.313       67.792        0.037      346.918       25.508      860.848
05/27/2014  11:41:00     -327.599     -248.829       -6.088      180.959      140.398       80.920    32746.262    19711.607     6548.052       11.413        2.950      411.385       82.392        0.040      346.911       25.495      860.844
05/27/2014  11:42:00     -415.211     -282.075        3.065      208.732      141.605       87.650    43568.935    20051.903     7682.471       16.163        3.565      501.963       90.904        0.033      346.736       25.196      860.846
05/27/2014  11:43:00     -206.218     -108.940       -0.451      103.492      100.281       45.018    10710.593    10056.315     2026.640        3.859        1.140      233.225       35.604        0.023      346.666       25.074      860.867
05/27/2014  11:44:00      -77.280     -120.659        0.707       49.518       69.757       37.488     2452.006     4866.092     1405.382        1.463        0.436      143.286       25.018        0.030      346.768       25.252      860.823
05/27/2014  11:45:00     -141.479      -95.187        4.743       84.645       91.362       35.322     7164.835     8346.937     1247.620        2.293        0.838      170.519       32.364        0.036      347.013       25.673      860.822
05/27/2014  11:46:00      -59.251     -183.073       -2.758      132.205      115.736       75.535    17478.262    13394.750     5705.606        3.680        1.829      192.422       61.729        0.103      347.031       25.703      860.846
05/27/2014  11:47:00     -239.074     -128.730       11.600      122.971       97.058       66.972    15121.966     9420.168     4485.268        5.144        1.451      271.529       59.747        0.048      347.092       25.807      860.848
05/27/2014  11:48:00      -57.332     -181.412      -16.788      101.757       89.971       56.310    10354.393     8094.850     3170.851        2.905        1.081      190.256       12.429        0.004      347.236       26.055      860.834
05/27/2014  11:49:00     -250.995     -186.078        0.706      129.772      130.405       61.721    16840.811    17005.371     3809.453        6.763        1.883      312.448       52.380        0.028      347.081       25.788      860.851
05/27/2014  11:50:00     -243.567     -119.754      -16.393      123.900       77.420       53.490    15351.309     5993.786     2861.206        4.907        1.210      271.415       57.678        0.045      346.917       25.506      860.809
05/27/2014  11:51:00     -119.461     -129.584       10.282      129.442      128.051       78.284    16755.181    16397.143     6128.437        3.522        1.964      176.247       72.383        0.169      347.264       26.105      860.786
05/27/2014  11:52:00     -165.313     -224.219       -5.211      101.455      147.493       57.701    10293.101    21754.329     3329.389        5.650        1.769      278.573       50.038        0.032      347.059       25.751      860.787
05/27/2014  11:53:00     -169.796     -198.417        5.388      148.690      114.613       62.716    22108.685    13136.051     3933.288        5.370        1.959      261.151       50.199        0.037      347.208       26.007      860.759
05/27/2014  11:54:00     -202.727      -47.807        7.976      139.256      105.288       59.134    19392.306    11085.615     3496.888        3.870        1.699      208.288       69.543        0.111      347.609       26.701      860.774
05/27/2014  11:55:00     -152.939     -170.778       27.508      182.210      197.131       85.265    33200.470    38860.441     7270.133        6.631        3.967      229.250       97.333        0.180      347.569       26.631      860.779
05/27/2014  11:56:00     -337.206     -308.856       -8.783      223.074      158.547      113.781    49762.019    25137.135    12946.099       14.849        4.392      457.274      138.731        0.092      347.109       25.836      860.769
05/27/2014  11:57:00     -270.540     -130.246      -19.480      166.103      150.112       81.099    27590.287    22533.628     6576.973        7.361        2.835      300.259       80.960        0.073      347.093       25.810      860.803
05/27/2014  11:58:00     -217.718      -95.827       -5.034      180.106      123.312       68.347    32438.192    15205.787     4671.291        5.445        2.616      237.873       84.853        0.127      347.248       26.078      860.757
05/27/2014  11:59:00     -227.788      -65.509       -2.335      260.094      142.867       84.702    67649.061    20410.918     7174.370        7.569        4.762      237.021      116.086        0.240      347.411       26.359      860.746
05/27/2014  12:00:00     -469.423     -152.513      -25.285      149.141      153.421       74.683    22242.942    23537.998     5577.578       14.780        2.568      493.576       77.441        0.025      346.821       25.341      860.739
05/27/2014  12:01:00     -355.484      -59.671      -12.372      176.822      115.667       72.857    31265.994    13378.799     5308.212        9.001        2.498      360.457       75.033        0.043      346.900       25.476      860.678
05/27/2014  12:02:00     -393.861      -12.662      -17.709      210.442      155.011      105.633    44285.821    24028.469    11158.363       11.752        3.974      394.064       95.580        0.059      347.281       26.133      860.583
05/27/2014  12:03:00     -309.794     -188.142      -15.877      167.766      118.378       80.452    28145.481    14013.400     6472.510        9.012        2.432      362.450       76.740        0.045      347.379       26.301      860.687
05/27/2014  12:04:00     -377.050     -211.594        2.901      170.236      157.731       85.488    28980.279    24879.083     7308.271       12.405        3.058      432.364       95.092        0.048      347.389       26.322      860.705
05/27/2014  12:05:00     -290.497     -237.055       13.384      211.159      260.375      100.358    44588.296    67795.369    10071.737       13.158        6.123      374.945      106.321        0.080      347.231       26.048      860.686
05/27/2014  12:06:00     -407.121     -528.225      -23.961      247.107      225.510      110.744    61061.905    50854.728    12264.154       28.474        6.209      666.910       94.886        0.020      347.028       25.697      860.616
05/27/2014  12:07:00     -342.816     -129.616        0.963      235.283      197.549       98.990    55357.888    39025.571     9798.959       11.923        5.209      366.501      105.943        0.084      347.193       25.981      860.651
05/27/2014  12:08:00     -450.682     -185.642      -10.322      190.226      196.136       90.333    36185.838    38469.372     8159.972       16.023        4.141      487.419       89.126        0.033      347.101       25.823      860.712
05/27/2014  12:09:00     -243.426     -182.341       10.967      147.499      134.809       72.688    21756.010    18173.411     5283.543        6.891        2.261      304.145       73.668        0.059      347.112       25.844      860.742
05/27/2014  12:10:00     -344.338     -203.082        2.175      170.559      131.095       67.750    29090.442    17185.907     4590.092       10.533        2.543      399.764       70.711        0.031      346.978       25.612      860.715
05/27/2014  12:11:00     -180.791     -149.330        8.214      165.485       95.986       56.656    27385.166     9213.280     3209.857        4.742        1.990      234.488       62.877        0.072      347.087       25.800      860.714
05/27/2014  12:12:00     -294.253     -123.331      -27.264      151.723      172.582       64.810    23019.794    29784.403     4200.362        7.976        2.850      319.054       55.600        0.030      347.068       25.765      860.732
05/27/2014  12:13:00     -347.165     -137.039      -23.000      215.896      233.591       85.954    46611.101    54564.714     7388.105       12.418        5.428      373.234       98.482        0.070      346.992       25.637      860.693
05/27/2014  12:14:00     -528.326     -375.328      -35.232      196.314      198.357       99.543    38539.072    39345.429     9908.876       25.450        4.390      648.074      107.981        0.028      346.653       25.053      860.688
05/27/2014  12:15:00     -259.369      -12.469       -5.168      131.142       80.647       57.701    17198.323     6503.888     3329.403        4.724        1.352      259.669       50.335        0.038      346.903       25.481      860.693
05/27/2014  12:16:00     -216.716       -0.729        1.184       97.239       77.192       43.931     9455.398     5958.609     1929.955        3.215        0.867      216.718       43.964        0.041      347.231       26.047      860.655
05/27/2014  12:17:00     -238.325      -29.639        8.662      156.367      134.652       68.828    24450.785    18131.181     4737.278        5.253        2.366      240.161       76.826        0.102      347.575       26.642      860.643
05/27/2014  12:18:00     -399.757     -115.604      -16.785      251.705      163.514       65.439    63355.451    26736.875     4282.216       13.389        4.719      416.137       74.433        0.032      347.004       25.656      860.600
05/27/2014  12:19:00     -376.225     -230.018      -13.055      260.625      234.054      112.455    67925.472    54781.065    12646.094       16.496        6.768      440.969      124.462        0.080      347.217       26.021      860.587
05/27/2014  12:20:00     -146.809     -122.453       50.055      207.934      188.910      101.651    43236.475    35686.968    10333.016        6.414        4.463      191.175       94.810        0.246      347.478       26.474      860.571
05/27/2014  12:21:00     -454.550     -155.117       -4.040      289.353      190.428      107.424    83725.439    36262.980    11539.916       18.108        6.576      480.289      127.868        0.071      347.400       26.339      860.481
05/27/2014  12:22:00     -558.957     -259.662       -4.961      275.949      200.636      109.379    76147.790    40254.800    11963.759       25.410        6.418      616.325      130.026        0.045      347.268       26.110      860.530
05/27/2014  12:23:00     -513.301     -230.899      -12.651      343.436      226.940      115.843   117948.335    51501.956    13419.585       24.987        9.143      562.843      147.394        0.069      347.173       25.947      860.540
05/27/2014  12:24:00     -545.838     -275.771      -37.781      293.267      218.461      131.037    86005.263    47725.314    17170.779       26.313        7.545      611.546      117.688        0.037      346.903       25.483      860.562
05/27/2014  12:25:00     -302.418     -110.791       -2.478      242.295      154.262      100.725    58706.670    23796.622    10145.475        9.817        4.632      322.073      114.314        0.126      347.111       25.840      860.517
05/27/2014  12:26:00     -316.396     -131.292        3.853      249.991      194.275      104.525    62495.387    37742.589    10925.501       11.424        5.558      342.555      125.563        0.134      347.311       26.185      860.526
05/27/2014  12:27:00     -145.999     -174.630       28.183      208.993      181.948      119.780    43678.206    33105.137    14347.175        7.185        4.557      227.621      119.978        0.278      347.396       26.332      860.514
05/27/2014  12:28:00     -305.061     -142.350        9.922      221.019      168.348       79.758    48849.339    28340.944     6361.368        9.847        4.178      336.639       96.714        0.083      347.508       26.527      860.511
05/27/2014  12:29:00     -429.371      -40.485      -13.198      236.675      172.754       93.138    56015.077    29843.878     8674.731       14.033        4.727      431.276      119.407        0.077      347.398       26.336      860.498
05/27/2014  12:30:00     -488.826      -40.425       -3.679      240.490      165.805       98.467    57835.400    27491.185     9695.744       16.779        4.751      490.495      105.743        0.046      347.180       25.958      860.479
05/27/2014  12:31:00     -390.470      -91.733       13.042      241.783      197.939      103.793    58458.966    39180.013    10772.913       13.471        5.421      401.101      112.177        0.078      347.425       26.381      860.462
05/27/2014  12:32:00     -593.631     -279.229      -11.452      308.140      264.138      137.215    94950.479    69768.932    18827.901       30.699        9.177      656.023      158.650        0.058      347.117       25.851      860.497
05/27/2014  12:33:00     -458.585     -276.464      -18.468      218.971      172.933       99.794    47948.382    29905.930     9958.920       18.743        4.391      535.474      112.870        0.044      347.210       26.012      860.518
05/27/2014  12:34:00     -625.691      -86.385      -43.738      254.839      208.017      110.006    64942.947    43270.918    12101.397       26.057        6.016      631.626      125.525        0.039      347.027       25.695      860.538
05/27/2014  12:35:00     -483.228     -107.793      -18.422      244.191      228.579      119.863    59629.129    52248.586    14367.106       18.583        6.312      495.104      129.184        0.068      347.145       25.899      860.433
05/27/2014  12:36:00     -421.259     -130.533       -5.835      242.164      248.080      102.563    58643.590    61543.904    10519.113       16.259        6.535      441.019      110.710        0.063      347.232       26.048      860.486
05/27/2014  12:37:00     -282.730     -229.721       -4.055      250.449      173.870      122.875    62724.834    30230.698    15098.302       12.037        5.403      364.291      130.168        0.128      347.104       25.828      860.506
05/27/2014  12:38:00     -360.227     -302.121       -0.267      220.353      198.573      110.397    48555.447    39431.109    12187.387       16.059        5.009      470.149      128.216        0.074      347.220       26.027      860.529
05/27/2014  12:39:00     -396.364     -299.917       -8.026      202.964      172.555      105.203    41194.481    29775.192    11067.636       16.456        4.102      497.046      104.084        0.044      346.861       25.409      860.517
05/27/2014  12:40:00     -494.707     -359.406      -20.168      217.789      171.246      117.217    47431.874    29325.288    13739.932       23.239        4.525      611.480      121.788        0.040      346.857       25.404      860.495
05/27/2014  12:41:00     -352.058     -210.537        5.984      258.383      214.438      109.503    66761.653    45983.460    11990.936       14.650        6.237      410.208      120.281        0.086      347.242       26.065      860.453
05/27/2014  12:42:00     -331.064     -204.043       -0.203      224.456      147.944       99.131    50380.484    21887.540     9826.992       11.665        4.105      388.892      100.946        0.067      347.187       25.972      860.465
05/27/2014  12:43:00     -411.756     -314.354        8.869      273.829      178.883      118.713    74982.377    31998.962    14092.822       19.473        6.054      518.036      125.986        0.059      347.195       25.985      860.452
05/27/2014  12:44:00     -348.609     -259.351        7.767      263.664      181.489       90.466    69518.720    32938.306     8184.012       14.972        5.532      434.501      126.147        0.084      347.409       26.354      860.439
05/27/2014  12:45:00     -431.407     -165.813      -12.750      167.434      135.294       77.630    28034.166    18304.354     6026.469       13.306        2.618      462.175       77.783        0.028      347.449       26.421      860.415
05/27/2014  12:46:00     -212.257     -146.202        2.856      181.306      138.286       89.193    32871.992    19123.030     7955.317        6.318        2.998      257.737      110.420        0.184      347.689       26.838      860.361
05/27/2014  12:47:00     -225.147     -173.057        9.829      195.260      193.189       96.520    38126.463    37322.049     9316.081        8.273        4.238      283.971      109.987        0.150      347.872       27.153      860.377
05/27/2014  12:48:00     -251.642     -122.524       -0.392      237.533      195.054      113.199    56422.112    38046.172    12814.008        9.279        5.364      279.886      128.410        0.210      347.604       26.690      860.351
05/27/2014  12:49:00     -233.415     -143.322       -0.412      199.833      137.679       73.453    39933.214    18955.400     5395.403        6.964        3.214      273.904       66.046        0.058      347.597       26.678      860.397
05/27/2014  12:50:00     -263.449     -150.929       11.034      224.807      174.278      109.208    50538.407    30372.933    11926.333        9.255        4.642      303.619      132.186        0.190      347.606       26.694      860.398
05/27/2014  12:51:00     -396.081     -272.749        1.824      229.855      225.273      105.561    52833.217    50748.117    11143.188       17.298        5.736      480.908      118.340        0.061      347.449       26.424      860.395
05/27/2014  12:52:00     -413.293     -332.693      -15.900      299.757      250.906      120.725    89854.510    62954.014    14574.482       22.453        8.369      530.562      149.159        0.079      347.353       26.257      860.421
05/27/2014  12:53:00     -414.487     -386.835      -14.188      206.573      199.597      114.665    42672.601    39839.078    13148.144       20.863        4.783      566.957      125.688        0.049      347.231       26.047      860.428
05/27/2014  12:54:00     -510.613     -352.028       -5.769      231.325      181.176      101.948    53511.242    32824.584    10393.471       24.069        4.836      620.201      112.053        0.033      347.124       25.862      860.440
05/27/2014  12:55:00     -250.572      -66.314       12.962      198.782      144.331       88.347    39514.225    20831.505     7805.148        6.774        3.408      259.198       91.101        0.124      347.507       26.523      860.396
05/27/2014  12:56:00     -270.330     -108.928       -4.899      173.956      127.010       77.616    30260.690    16131.533     6024.306        6.868        2.621      291.451       79.991        0.075      347.575       26.642      860.391
05/27/2014  12:57:00     -110.563     -317.198       16.639      177.595      166.497       76.095    31540.078    27721.144     5790.387        8.907        3.253      335.914       63.328        0.036      347.429       26.389      860.408
05/27/2014  12:58:00     -143.103     -174.825      -12.886      151.288      143.301       67.267    22888.192    20535.183     4524.846        4.957        2.397      225.925       27.245        0.015      347.183       25.965      860.414
05/27/2014  12:59:00     -186.304     -192.817       14.909      179.783      124.026       77.817    32321.862    15382.446     6055.562        6.292        2.688      268.118       94.341        0.124      347.405       26.347      860.403
05/27/2014  13:00:00     -440.849     -146.853      -17.032      248.245      155.878       97.777    61625.672    24298.081     9560.419       15.582        4.774      464.665      119.807        0.066      347.446       26.418      860.370
05/27/2014  13:01:00     -347.584      -62.529       16.127      183.048      193.851       97.581    33506.533    37578.120     9522.119       10.278        4.030      353.163       96.491        0.075      347.312       26.188      860.382
05/27/2014  13:02:00     -161.188     -146.218       12.798      120.587      111.543       67.299    14541.179    12441.887     4529.139        3.951        1.576      217.627       57.632        0.070      347.343       26.241      860.368
05/27/2014  13:03:00     -328.045     -226.952      -19.719      236.955      183.303       79.352    56147.798    33600.129     6296.754       12.776        4.802      398.899      101.255        0.064      347.262       26.100      860.335
05/27/2014  13:04:00     -308.509      -83.487       17.709      164.482      127.486       81.671    27054.212    16252.672     6670.075        7.621        2.499      319.606       66.878        0.044      347.708       26.872      860.339
05/27/2014  13:05:00     -512.733     -290.580      -10.386      238.636      175.793      108.129    56946.968    30903.114    11691.812       22.347        4.977      589.349      116.869        0.039      347.281       26.134      860.365
05/27/2014  13:06:00     -353.950     -188.590      -11.875      245.367      158.394       86.538    60205.072    25088.744     7488.843       12.687        4.639      401.057       96.767        0.058      347.227       26.040      860.353
05/27/2014  13:07:00     -306.314     -310.366       11.398      221.345      161.564       99.376    48993.530    26102.793     9875.608       13.761        4.249      436.068      107.874        0.061      347.024       25.689      860.382
05/27/2014  13:08:00     -231.572     -118.281       -7.656      195.168      115.996       73.281    38090.523    13455.100     5370.077        6.228        2.846      260.031       74.067        0.081      347.161       25.926      860.312
05/27/2014  13:09:00     -286.409     -392.407        2.699      255.569      239.326      104.440    65315.736    57277.145    10907.705       18.473        6.675      485.812       93.908        0.037      347.298       26.163      860.269
05/27/2014  13:10:00     -583.300     -419.590      -36.594      261.086      214.520      116.723    68165.761    46018.730    13624.178       32.270        6.390      718.536      112.772        0.025      347.153       25.911      860.289
05/27/2014  13:11:00     -429.742     -380.462      -19.809      242.391      214.119       87.621    58753.423    45847.042     7677.409       22.103        5.614      573.960       89.439        0.024      346.986       25.624      860.313
05/27/2014  13:12:00     -425.913     -348.352        4.493      337.769      237.273      107.439   114087.894    56298.577    11543.104       24.231        9.096      550.229      107.584        0.038      347.284       26.139      860.170
05/27/2014  13:13:00     -510.373     -310.501      -19.770      275.695      213.131      119.844    76007.856    45424.759    14362.494       24.651        6.790      597.404      119.314        0.040      347.417       26.367      860.213
05/27/2014  13:14:00     -358.286     -154.071       -4.687      247.507      188.951      106.772    61259.726    35702.657    11400.291       13.022        5.418      390.009      112.292        0.083      347.501       26.513      860.322
05/27/2014  13:15:00     -410.843     -362.392       -1.564      234.875      193.045      111.332    55166.032    37266.243    12394.836       20.245        5.241      547.833      120.250        0.048      347.214       26.017      860.354
05/27/2014  13:16:00     -408.672     -324.689      -20.852      208.637      210.978       83.316    43529.240    44511.739     6941.546       18.391        4.749      521.953       78.338        0.023      347.232       26.048      860.272
05/27/2014  13:17:00     -351.335     -188.167        7.393      232.739      158.754       92.387    54167.546    25202.823     8535.271       12.338        4.395      398.551      107.819        0.073      347.680       26.822      860.365
05/27/2014  13:18:00     -348.630     -280.690       10.507      263.523      166.122      115.587    69444.491    27596.625    13360.459       15.540        5.520      447.583      140.548        0.099      347.273       26.120      860.385
05/27/2014  13:19:00     -629.058     -285.105      -30.428      280.276      214.113      120.621    78554.902    45844.264    14549.541       30.841        6.947      690.651      141.153        0.042      347.106       25.832      860.338
05/27/2014  13:20:00     -470.700      -88.336      -15.512      246.287      180.571      100.074    60657.431    32605.787    10014.767       16.642        5.164      478.917      100.688        0.044      347.247       26.074      860.293
05/27/2014  13:21:00     -543.196     -356.628       -2.482      265.334      247.969      118.815    70402.124    61488.504    14117.074       28.410        7.300      649.804      121.415        0.035      347.168       25.937      860.277
05/27/2014  13:22:00     -268.782     -188.579        8.748      271.377      194.127      111.440    73645.427    37685.276    12418.833       11.579        6.187      328.338      127.600        0.151      347.482       26.479      860.244
05/27/2014  13:23:00     -280.617     -128.492       -9.135      156.722      162.918       90.180    24561.700    26542.258     8132.518        7.728        2.962      308.636       84.960        0.076      347.581       26.650      860.219
05/27/2014  13:24:00     -504.989      -88.247       -4.469      218.076      215.715      107.505    47557.006    46533.122    11557.372       18.421        5.282      512.642      110.340        0.046      347.629       26.733      860.218
05/27/2014  13:25:00     -360.849     -217.950        4.850      264.262      177.802      106.401    69834.296    31613.553    11321.155       14.523        5.638      421.561      124.380        0.087      347.586       26.661      860.282
05/27/2014  13:26:00     -284.178     -113.986        8.731      233.828      180.570       88.062    54675.426    32605.383     7754.844        9.441        4.752      306.186       95.315        0.097      347.343       26.241      860.267
05/27/2014  13:27:00     -369.909     -268.819      -26.653      244.642      157.608       94.967    59849.863    24840.269     9018.724       15.174        4.685      457.270      117.168        0.066      347.210       26.012      860.260
05/27/2014  13:28:00     -403.684     -214.552       -2.637      218.129      150.429       87.768    47580.280    22628.915     7703.243       14.344        3.896      457.158       86.106        0.035      347.458       26.439      860.269
05/27/2014  13:29:00     -570.998     -186.740      -14.292      316.097      261.681      138.293    99917.468    68476.690    19124.978       27.428        9.376      600.758      155.973        0.067      347.271       26.116      860.239
05/27/2014  13:30:00     -612.243     -252.529      -23.869      314.652      233.961      129.548    99005.804    54737.971    16782.583       30.482        8.526      662.278      139.522        0.044      347.230       26.046      860.249
05/27/2014  13:31:00     -582.992     -261.594      -20.981      211.859      185.183       94.298    44884.396    34292.692     8892.205       24.839        4.403      638.992      102.408        0.026      347.141       25.891      860.236
05/27/2014  13:32:00     -550.507     -431.946      -29.212      276.254      203.478      116.865    76316.261    41403.347    13657.399       31.091        6.569      699.739      135.762        0.038      347.050       25.736      860.218
05/27/2014  13:33:00     -507.187     -166.215      -17.028      255.750      188.937      119.291    65407.822    35697.313    14230.288       20.022        5.767      533.728      112.477        0.044      347.302       26.170      860.213
05/27/2014  13:34:00     -512.423     -137.812      -23.210      376.634      226.503      109.047   141853.089    51303.505    11891.165       24.354       10.252      530.631      156.699        0.087      347.379       26.303      860.211
05/27/2014  13:35:00     -392.434     -148.961       12.308      215.339      206.501      117.979    46370.808    42642.784    13919.034       13.962        5.147      419.754      128.144        0.093      347.412       26.360      860.211
05/27/2014  13:36:00     -501.429     -344.092       -4.691      225.385      173.587      104.728    50798.410    30132.424    10967.858       23.086        4.595      608.136       91.099        0.022      347.297       26.160      860.276
05/27/2014  13:37:00     -494.255     -369.692        7.736      397.711      228.367      139.255   158173.943    52151.688    19392.019       30.532       11.486      617.219      184.741        0.090      347.339       26.233      860.226
05/27/2014  13:38:00     -479.768     -312.002      -29.949      275.840      166.193      122.228    76087.792    27620.242    14939.783       22.351        5.932      572.296      139.821        0.060      347.096       25.816      860.210
05/27/2014  13:39:00     -577.201     -329.948      -12.199      216.561      201.432      106.325    46898.485    40574.686    11304.945       27.046        4.939      664.851      104.905        0.025      347.043       25.724      860.199
05/27/2014  13:40:00     -575.042     -211.317      -43.518      204.803      243.213      106.730    41944.290    59152.806    11391.312       24.483        5.624      612.640      113.766        0.034      347.159       25.922      860.170
05/27/2014  13:41:00     -302.603      -94.959       12.142      185.513      148.895       92.832    34415.238    22169.763     8617.783        8.295        3.260      317.153      103.685        0.107      347.496       26.504      860.172
05/27/2014  13:42:00     -373.792      -62.826        1.578      270.320      161.666       98.105    73073.146    26135.819     9624.546       12.623        5.442      379.035      121.112        0.102      347.503       26.517      860.154
05/27/2014  13:43:00     -332.666     -250.020        8.222      247.254      233.014      111.111    61134.384    54295.303    12345.630       15.048        6.389      416.145      123.244        0.088      347.484       26.484      860.169
05/27/2014  13:44:00     -416.748     -369.328      -12.685      236.032      272.651      110.319    55711.121    74338.663    12170.231       22.620        7.111      556.850      122.999        0.049      347.301       26.167      860.174
05/27/2014  13:45:00     -278.787     -248.529        5.346      173.167      222.349       92.206    29986.770    49438.887     8501.964       11.371        4.396      373.482       83.751        0.050      347.465       26.450      860.148
05/27/2014  13:46:00     -330.801     -206.208       -6.125      182.428      181.594       76.834    33279.883    32976.472     5903.395       11.206        3.608      389.809       77.460        0.039      347.329       26.216      860.183
05/27/2014  13:47:00     -428.729     -176.998      -25.109      185.701      177.805       97.989    34484.961    31614.704     9601.933       14.572        3.785      463.829       84.497        0.033      347.419       26.372      860.153
05/27/2014  13:48:00     -446.912      -80.849       12.475      269.199      210.864      115.337    72468.103    44463.625    13302.520       16.830        6.512      454.166      124.757        0.075      347.393       26.326      860.115
05/27/2014  13:49:00     -387.118     -274.339      -11.528      231.150      193.584      103.900    53430.287    37474.921    10795.222       16.346        5.085      474.471      115.615        0.059      347.244       26.069      860.081
05/27/2014  13:50:00     -357.711     -376.661       -0.775      256.997      190.215      114.283    66047.571    36181.749    13060.684       19.254        5.765      519.452      114.321        0.048      347.276       26.124      860.112
05/27/2014  13:51:00     -256.758     -196.574       10.062      164.158      122.668       74.939    26947.929    15047.508     5615.888        7.613        2.381      323.367       73.711        0.052      347.719       26.888      860.141
05/27/2014  13:52:00     -138.391      -94.969       37.560      226.675      149.406       95.887    51381.473    22322.044     9194.358        5.622        4.145      167.843      113.935        0.461      347.791       27.014      860.145
05/27/2014  13:53:00     -338.867     -273.493      -17.233      179.328      160.179       78.969    32158.553    25657.163     6236.175       12.698        3.203      435.464       75.321        0.030      347.383       26.308      860.115
05/27/2014  13:54:00     -328.608     -350.443       -7.843      204.466      239.812       92.867    41806.541    57509.891     8624.254       16.938        5.397      480.410       91.372        0.036      347.273       26.117      860.116
05/27/2014  13:55:00     -452.483     -379.145      -11.213      241.519      176.526      106.243    58331.531    31161.418    11287.644       22.468        5.039      590.332       97.781        0.027      347.097       25.816      860.013
05/27/2014  13:56:00     -203.271     -245.083        3.582      155.001      148.208       88.333    24025.463    21965.506     7802.669        7.758        2.690      318.410       87.493        0.076      347.485       26.485      860.008
05/27/2014  13:57:00     -446.052     -308.096       -9.737      242.008      176.806      101.415    58567.777    31260.382    10285.079       19.703        5.006      542.112      125.102        0.053      347.422       26.376      859.996
05/27/2014  13:58:00     -427.920     -183.540        3.481      288.936      152.649       87.131    83484.131    23301.573     7591.841       16.557        5.719      465.620      107.170        0.053      347.477       26.472      860.020
05/27/2014  13:59:00     -553.832     -147.015      -19.938      220.156      170.252       94.929    48468.605    28985.696     9011.591       20.759        4.323      573.013       97.007        0.029      347.342       26.236      860.036
05/27/2014  14:00:00     -305.401     -303.194        8.178      241.972      181.168      103.102    58550.363    32821.747    10630.111       14.361        5.100      430.344      110.150        0.066      347.398       26.335      860.092
05/27/2014  14:01:00     -388.321     -229.077      -18.288      295.876      195.331      107.227    87542.498    38154.348    11497.679       17.037        6.860      450.854      129.646        0.083      347.533       26.566      860.083
05/27/2014  14:02:00     -461.883     -296.213      -35.250      282.819      233.970       99.613    79986.762    54742.032     9922.717       22.346        7.233      548.706      105.027        0.037      347.265       26.104      859.935
05/27/2014  14:03:00     -139.249      -98.991       -7.840      130.305       88.621       52.878    16979.298     7853.633     2796.097        2.843        1.381      170.850       44.464        0.068      347.459       26.440      859.876
05/27/2014  14:04:00      -50.799      -43.644       14.889      128.907       93.713       63.740    16617.043     8782.209     4062.804        1.708        1.473       66.973       59.258        0.783      347.935       27.263      859.880
05/27/2014  14:05:00      -49.206     -226.659        6.979      220.826      191.211       86.479    48764.030    36561.736     7478.679        7.331        4.640      231.939       87.466        0.142      347.790       27.011      859.846
05/27/2014  14:06:00     -211.316     -415.251       17.293      209.442      219.342      111.148    43865.936    48110.832    12353.858       16.084        5.217      465.927      109.594        0.055      347.638       26.748      859.870
05/27/2014  14:07:00     -447.299     -244.108      -29.036      199.383      162.311       89.141    39753.742    26344.856     7946.138       16.726        3.702      509.573       84.376        0.027      347.387       26.316      859.953
05/27/2014  14:08:00     -728.125     -188.182      -60.951      268.544      242.838      108.381    72116.145    58970.123    11746.548       35.603        7.142      752.050      111.980        0.022      347.229       26.042      859.923
05/27/2014  14:09:00     -299.145       39.801       11.465      221.990      125.390       86.254    49279.463    15722.714     7439.704        8.181        3.622      301.781      102.765        0.116      347.481       26.478      859.940
05/27/2014  14:10:00     -419.425     -114.253      -17.040      222.301      152.889       79.399    49417.693    23374.977     6304.235       13.416        3.955      434.708      106.304        0.060      347.487       26.487      859.904
05/27/2014  14:11:00     -129.206     -177.038        2.767      133.992      122.259       61.654    17953.889    14947.333     3801.207        4.237        1.835      219.173       63.662        0.084      347.695       26.848      859.933
05/27/2014  14:12:00      -55.211     -184.356       13.050       52.603      110.709       38.035     2767.033    12256.580     1446.660        2.683        0.824      192.445       36.025        0.035      347.174       25.951      859.891
05/27/2014  14:13:00     -229.976      -11.370      -24.686      127.494       78.333       54.568    16254.677     6136.044     2977.697        3.949        1.268      230.257       40.764        0.031      347.510       26.528      859.848
05/27/2014  14:14:00     -270.417      -44.102       12.474      161.291      125.940       77.778    26014.843    15860.981     6049.364        6.157        2.396      273.990       87.140        0.101      347.820       27.063      859.860
05/27/2014  14:15:00     -461.832      -15.786      -35.047      177.315      121.325       73.573    31440.719    14719.730     5413.040       13.316        2.579      462.102       77.326        0.028      347.584       26.655      859.825
05/27/2014  14:16:00     -428.285      -12.094      -23.368      150.740      124.978       76.225    22722.586    15619.471     5810.215       11.413        2.208      428.456       76.039        0.031      347.675       26.813      859.867
05/27/2014  14:17:00     -456.859     -105.239      -21.807      240.451      156.245       96.149    57816.633    24412.636     9244.549       15.585        4.574      468.824      110.622        0.056      347.561       26.615      859.860
05/27/2014  14:18:00     -355.392     -129.308       -7.087      212.729      168.863       81.698    45253.486    28514.569     6674.613       11.174        4.022      378.185       95.874        0.064      347.791       27.014      859.883
05/27/2014  14:19:00     -530.357     -211.136      -24.361      286.652      190.421      105.144    82169.274    36260.268    11055.169       22.794        6.474      570.839      134.316        0.055      347.286       26.141      859.931
05/27/2014  14:20:00     -414.009     -307.981       -6.885      241.676      179.728      112.753    58407.370    32302.330    12713.253       18.484        5.171      516.000      126.197        0.060      347.125       25.863      859.903
05/27/2014  14:21:00     -521.914     -208.634      -12.746      214.965      217.133       97.959    46210.058    47146.619     9596.003       20.950        5.148      562.070       90.055        0.026      347.267       26.109      859.907
05/27/2014  14:22:00     -298.702     -190.961       -7.844      177.846      165.564       76.189    31629.192    27411.396     5804.823        9.528        3.242      354.527       78.556        0.049      347.526       26.556      859.949
05/27/2014  14:23:00     -275.674     -258.781       11.870      179.334      123.132       88.209    32160.788    15161.488     7780.841        9.909        2.755      378.106       94.985        0.063      347.485       26.486      859.959
05/27/2014  14:24:00     -155.798      -70.681       17.839      160.524      101.547       70.209    25767.940    10311.782     4929.308        3.529        2.050      171.081       82.546        0.233      347.811       27.048      859.937
05/27/2014  14:25:00      -53.918     -173.877      -18.235      124.441      153.800       84.157    15485.513    23654.472     7082.456        3.984        2.311      182.045       84.410        0.215      347.695       26.849      859.889
05/27/2014  14:26:00     -180.128     -147.957       -5.167      102.238      138.945       57.846    10452.584    19305.754     3346.149        4.373        1.655      233.104       62.564        0.072      347.525       26.554      859.778
05/27/2014  14:27:00     -433.092      -40.372      -39.190      125.508      103.524       49.361    15752.200    10717.248     2436.485       10.981        1.445      434.970       49.448        0.013      347.632       26.739      859.793
05/27/2014  14:28:00     -590.108      -60.741      -46.224      318.597      183.232      120.727   101504.137    33573.827    14574.927       25.182        7.483      593.226      165.960        0.078      347.508       26.523      859.808
05/27/2014  14:29:00     -246.087      -84.500       15.581      202.724      139.982       77.829    41096.867    19595.037     6057.307        6.733        3.337      260.190       88.124        0.115      347.794       27.018      859.837
05/27/2014  14:30:00     -340.765     -273.549       -9.386      213.939      194.585       98.053    45769.962    37863.348     9614.320       14.212        4.662      436.978       96.694        0.049      347.648       26.766      859.888
05/27/2014  14:31:00     -525.992     -344.631      -15.259      266.479      251.172      116.585    71010.840    63087.409    13591.996       27.165        7.385      628.839      137.274        0.048      347.128       25.870      859.853
05/27/2014  14:32:00     -373.977     -222.856       -7.258      256.335      221.796      104.614    65707.720    49193.489    10944.185       15.769        6.292      435.343      107.251        0.061      347.184       25.965      859.838
05/27/2014  14:33:00     -329.998      -62.008       -9.251      237.400      171.377       89.115    56358.766    29370.175     7941.461       10.323        4.684      335.773      101.764        0.092      347.426       26.384      859.802
05/27/2014  14:34:00     -282.740     -161.059       18.125      207.895      156.072       93.551    43220.526    24358.543     8751.794        9.126        3.817      325.395      104.074        0.102      347.466       26.454      859.838
05/27/2014  14:35:00     -193.012     -133.000       15.310      165.056      126.187       88.398    27243.476    15923.131     7814.201        5.307        2.549      234.399      104.973        0.201      347.477       26.471      859.897
05/27/2014  14:36:00     -205.149      -53.734        6.701      148.528      117.770       66.967    22060.659    13869.883     4484.563        4.271        2.021      212.070       71.771        0.115      347.767       26.971      859.879
05/27/2014  14:37:00     -378.501      -74.011      -13.283      280.276      150.095       83.774    78554.789    22528.475     7018.112       12.849        5.405      385.669      115.127        0.089      347.463       26.448      859.826
05/27/2014  14:38:00     -193.395      -66.856       11.729      142.165      134.413       71.327    20210.886    18066.768     5087.530        4.268        2.168      204.625       66.366        0.105      347.832       27.085      859.839
05/27/2014  14:39:00     -411.875     -229.301       -6.817      171.345      158.379       79.615    29359.197    25083.766     6338.476       14.151        3.039      471.403       74.386        0.025      347.464       26.449      859.837
05/27/2014  14:40:00     -428.512     -275.923       -6.982      243.471      133.637       90.238    59278.102    17858.917     8142.879       17.253        4.264      509.663      100.502        0.039      347.195       25.985      859.883
05/27/2014  14:41:00     -353.284     -218.955      -18.268      179.745      140.654       80.635    32308.430    19783.574     6502.025       11.583        2.930      415.633       73.855        0.032      347.454       26.433      859.871
05/27/2014  14:42:00     -285.861     -253.125      -10.152      152.761      175.877       85.186    23336.013    30932.595     7256.728       10.370        3.076      381.823       73.671        0.037      347.389       26.318      859.858
05/27/2014  14:43:00     -414.558     -224.110      -12.220      232.849      165.608       85.879    54218.664    27426.057     7375.227       15.561        4.451      471.257       92.206        0.038      347.453       26.430      859.796
05/27/2014  14:44:00     -502.542     -272.472      -32.804      222.580      180.415      104.543    49542.051    32549.639    10929.311       21.042        4.651      571.655       97.028        0.029      347.082       25.790      859.776
05/27/2014  14:45:00     -387.222     -119.237      -21.783      227.085      168.068       83.503    51567.416    28246.924     6972.744       12.569        4.339      405.164      106.464        0.069      347.513       26.533      859.765
05/27/2014  14:46:00     -269.381      -84.486       -4.073      120.801      147.969       66.141    14592.787    21894.828     4374.600        6.028        2.043      282.319       68.295        0.059      347.837       27.091      859.752
05/27/2014  14:47:00     -358.157     -105.821       -1.757      218.151      200.173       82.171    47589.798    40069.134     6752.044       11.693        4.721      373.463       83.405        0.050      347.790       27.010      859.769
05/27/2014  14:48:00     -416.770     -301.456       -0.137      307.470      223.527      134.116    94538.056    49964.144    17987.066       21.350        8.124      514.367      167.776        0.106      347.436       26.401      859.751
05/27/2014  14:49:00     -386.347      -91.896      -13.140      206.834      190.851       97.554    42780.197    36424.009     9516.763       12.328        4.436      397.126       94.604        0.057      347.545       26.589      859.755
05/27/2014  14:50:00     -585.851      -11.642      -66.104      222.127      153.516       87.953    49340.270    23567.033     7735.678       21.417        4.032      585.967       88.994        0.023      347.412       26.359      859.743
05/27/2014  14:51:00     -267.175      -73.510        2.765      169.248      170.861       81.864    28644.740    29193.566     6701.775        7.065        3.227      277.103       89.262        0.104      347.797       27.024      859.731
05/27/2014  14:52:00     -350.885     -101.928       16.708      224.253      142.212       83.714    50289.291    20224.358     7008.088       10.564        3.876      365.390       87.691        0.058      347.741       26.928      859.712
05/27/2014  14:53:00     -516.930     -161.519       -9.365      242.669      173.852      102.965    58888.077    30224.441    10601.837       19.653        4.986      541.576      120.502        0.050      347.620       26.718      859.725
05/27/2014  14:54:00     -286.429     -107.191        3.185      198.548      180.665       99.293    39421.183    32639.711     9859.107        8.771        4.096      305.830      107.605        0.124      347.563       26.620      859.738
05/27/2014  14:55:00     -331.329     -170.330       10.361      230.912      147.202       86.359    53320.547    21668.301     7457.901       11.066        4.122      372.546      112.766        0.092      347.566       26.626      859.711
05/27/2014  14:56:00     -255.873     -150.883       -1.722      226.936      160.936      109.291    51499.744    25900.288    11944.625        8.877        4.467      297.047      114.644        0.149      347.822       27.066      859.689
05/27/2014  14:57:00     -294.684        8.946       19.651      225.838      151.804       79.869    51002.594    23044.334     6378.992        8.385        4.021      294.820       98.445        0.111      347.965       27.315      859.714
05/27/2014  14:58:00     -351.917     -191.041      -10.616      189.364      170.230      104.040    35858.625    28978.386    10824.375       11.804        3.783      400.427       96.921        0.059      347.903       27.206      859.721
05/27/2014  14:59:00     -391.239     -228.722       -2.192      194.158      155.294       81.037    37697.327    24116.235     6566.988       13.687        3.419      453.191       78.674        0.030      347.577       26.645      859.746
05/27/2014  15:00:00     -283.773      -21.668       -9.558      144.604       94.809       64.890    20910.201     8988.687     4210.679        5.759        1.705      284.599       65.333        0.053      347.722       26.894      859.703
05/27/2014  15:01:00     -393.389      -37.246       -1.226      252.022      164.242      101.273    63515.102    26975.596    10256.238       12.842        5.037      395.148      111.743        0.080      347.799       27.027      859.684
05/27/2014  15:02:00     -553.373     -196.328       -4.473      206.158      191.138       97.656    42501.226    36533.748     9536.620       21.666        4.429      587.168      103.502        0.031      347.319       26.199      859.680
05/27/2014  15:03:00     -434.678     -229.995       -0.429      236.129      167.737      100.931    55756.796    28135.742    10187.108       16.794        4.704      491.775      104.899        0.045      347.329       26.216      859.663
05/27/2014  15:04:00     -512.351     -177.663      -32.219      224.838      194.785       96.098    50552.321    37941.028     9234.856       19.640        4.886      542.280       82.932        0.023      347.380       26.303      859.690
05/27/2014  15:05:00     -393.718     -282.791      -14.519      232.034      196.161       94.961    53839.913    38479.289     9017.659       16.825        5.067      484.752      117.266        0.059      347.398       26.334      859.714
05/27/2014  15:06:00     -291.869     -153.526        6.664      201.188      138.970       92.366    40476.629    19312.797     8531.534        8.855        3.416      329.784       82.113        0.062      347.318       26.196      859.714
05/27/2014  15:07:00     -270.331     -127.447      -14.492      185.117      114.859       73.901    34268.452    13192.550     5461.387        7.122        2.646      298.867       94.696        0.100      347.528       26.559      859.705
05/27/2014  15:08:00     -132.286     -237.521       -9.105      139.090      115.222       58.672    19346.081    13275.995     3442.453        5.502        1.803      271.875       59.510        0.048      347.351       26.253      859.675
05/27/2014  15:09:00     -185.851     -321.307        8.102      187.595      133.258       79.345    35191.939    17757.679     6295.693        9.853        2.962      371.185       81.454        0.048      347.369       26.285      859.635
05/27/2014  15:10:00     -331.877     -278.270        5.596      203.224      139.450      104.203    41299.825    19446.310    10858.174       12.959        3.580      433.101      122.532        0.080      347.368       26.283      859.634
05/27/2014  15:11:00     -289.409     -265.224      -21.244      158.333      117.223       86.296    25069.474    13741.215     7447.016       10.040        2.313      392.557       69.387        0.031      347.469       26.457      859.600
05/27/2014  15:12:00     -270.252     -213.264       15.871      237.350      197.903      109.961    56335.187    39165.678    12091.417       11.316        5.380      344.264      133.334        0.150      347.748       26.938      859.616
05/27/2014  15:13:00     -352.344     -213.251        8.973      256.152      225.130      116.174    65614.028    50683.691    13496.400       14.972        6.490      411.852      144.185        0.123      347.509       26.525      859.611
05/27/2014  15:14:00     -399.776     -334.109       -7.596      243.536      180.057      109.474    59309.686    32420.352    11984.586       18.759        5.186      521.008      126.558        0.059      347.375       26.297      859.601
05/27/2014  15:15:00     -549.953     -285.152      -12.000      211.709      153.482       94.839    44820.621    23556.762     8994.373       23.062        3.869      619.484      102.398        0.027      347.246       26.074      859.551
05/27/2014  15:16:00     -381.244     -119.360      -15.297      177.445      130.144       80.696    31486.625    16937.445     6511.772       10.737        2.747      399.492       92.917        0.054      347.652       26.773      859.593
05/27/2014  15:17:00     -358.086       10.529      -13.398      158.294      160.558       71.771    25056.898    25778.913     5151.058        9.224        2.799      358.241       77.218        0.046      347.692       26.842      859.613
05/27/2014  15:18:00     -260.047     -102.130       -4.748      120.017      114.418       62.524    14404.048    13091.562     3909.257        5.473        1.570      279.383       46.819        0.028      347.595       26.674      859.635
05/27/2014  15:19:00     -366.903       11.846       -9.589      176.556       99.579       72.840    31172.028     9915.904     5305.658        9.061        2.320      367.094       70.613        0.037      347.454       26.429      859.599
05/27/2014  15:20:00     -347.077      -98.172       -8.593      183.692      113.153       76.549    33742.862    12803.618     5859.693        9.128        2.620      360.694       84.802        0.055      347.458       26.439      859.589
05/27/2014  15:21:00     -328.904     -143.894       17.788      281.299      200.315      107.998    79129.181    40126.060    11663.676       13.003        6.546      359.003      131.853        0.135      347.692       26.844      859.555
05/27/2014  15:22:00     -312.216     -209.999        2.310      291.302      170.601      101.977    84857.084    29104.543    10399.334       13.295        6.218      376.270      130.598        0.120      347.461       26.442      859.589
05/27/2014  15:23:00     -354.517     -212.431      -12.979      169.646      202.405       84.045    28779.835    40967.970     7063.555       12.388        3.841      413.291       74.644        0.033      347.410       26.356      859.591
05/27/2014  15:24:00     -527.937     -221.711      -22.046      232.283      203.597      101.610    53955.491    41451.899    10324.525       21.702        5.287      572.602      101.712        0.032      347.434       26.397      859.569
05/27/2014  15:25:00     -553.860     -176.310       -4.605      284.576      202.426      128.789    80983.398    40976.364    16586.572       23.818        6.927      581.245      135.525        0.054      347.437       26.403      859.541
05/27/2014  15:26:00     -654.340     -168.330      -35.414      220.401      208.017       93.817    48576.485    43271.075     8801.578       27.918        5.032      675.644      107.151        0.025      347.354       26.259      859.560
05/27/2014  15:27:00     -541.519     -299.574      -13.035      232.699      202.675      111.006    54149.006    41077.230    12322.395       24.533        5.377      618.860      119.799        0.037      347.302       26.170      859.621
05/27/2014  15:28:00     -236.891     -140.667        9.715      176.622      132.114       77.882    31195.494    17454.196     6065.616        6.535        2.736      275.507       85.037        0.095      347.319       26.199      859.642
05/27/2014  15:29:00     -283.681     -105.353      -24.291       97.085      104.090       54.447     9425.524    10834.741     2964.449        5.769        1.161      302.612       46.742        0.024      347.106       25.831      859.566
05/27/2014  15:30:00     -282.777     -112.683       -1.452      107.029       87.098       46.741    11455.229     7586.049     2184.712        5.694        1.061      304.401       47.307        0.024      347.259       26.094      859.492
05/27/2014  15:31:00     -337.556     -109.586        3.052      235.615      171.741       94.701    55514.613    29494.955     8968.329       10.995        4.699      354.898      100.711        0.081      347.589       26.665      859.495
05/27/2014  15:32:00     -388.438     -219.175        0.758      258.668      221.997      113.171    66909.091    49282.661    12807.635       16.394        6.450      446.007      127.938        0.082      347.648       26.766      859.506
05/27/2014  15:33:00     -419.220     -187.456      -11.492      195.387      220.051       92.434    38176.007    48422.330     8544.110       15.306        4.757      459.223       95.593        0.043      347.402       26.342      859.567
05/27/2014  15:34:00     -269.801     -219.259       -8.538      190.409      118.701       79.931    36255.681    14089.811     6388.921        8.883        2.837      347.659       96.111        0.076      347.350       26.251      859.551
05/27/2014  15:35:00     -235.242     -111.037      -16.782      188.945      104.879       61.832    35700.386    10999.670     3823.189        5.923        2.526      260.131       77.605        0.089      347.430       26.390      859.491
05/27/2014  15:36:00     -319.387      -90.716      -13.076      217.971      163.479       81.347    47511.452    26725.383     6617.407        9.561        4.043      332.020       99.745        0.090      347.511       26.531      859.437
05/27/2014  15:37:00     -401.035     -153.337      -25.625      205.845      202.337       90.654    42372.253    40940.345     8218.135       13.825        4.577      429.350      103.075        0.058      347.558       26.611      859.444
05/27/2014  15:38:00     -635.125      -73.322      -24.639      304.280      145.109      110.602    92586.536    21056.491    12232.782       26.760        6.294      639.343      129.787        0.041      347.377       26.299      859.464
05/27/2014  15:39:00     -319.675      -90.466        1.780      221.556      108.871       72.903    49086.931    11852.921     5314.847        8.830        3.313      332.229       81.037        0.059      347.466       26.452      859.500
05/27/2014  15:40:00     -300.240     -104.317      -12.644      169.325      175.277       73.919    28670.902    30721.924     5463.983        8.301        3.243      317.846       89.828        0.080      347.485       26.486      859.540
05/27/2014  15:41:00     -265.767     -119.387       -9.069      137.127      130.339       59.806    18803.743    16988.145     3576.777        6.216        1.968      291.351       65.173        0.050      347.726       26.901      859.503
05/27/2014  15:42:00     -340.543     -101.078       -7.533      155.552      113.837       49.669    24196.350    12958.912     2467.058        8.292        1.981      355.227       63.556        0.032      347.579       26.648      859.471
05/27/2014  15:43:00     -252.984       22.871      -17.082      122.763      124.179       59.284    15070.777    15420.548     3514.552        4.940        1.700      254.015       56.573        0.050      347.577       26.643      859.404
05/27/2014  15:44:00     -447.935      -27.641      -49.175      232.741      181.973       86.078    54168.248    33114.277     7409.413       14.924        4.735      448.787       92.161        0.042      347.637       26.746      859.302
05/27/2014  15:45:00     -512.582      -60.156       -8.076      244.276      181.762      112.031    59670.770    33037.590    12550.957       18.582        5.263      516.100      123.696        0.057      347.747       26.937      859.349
05/27/2014  15:46:00     -507.865     -233.697       -1.627      214.151      223.851      107.251    45860.830    50109.200    11502.772       20.999        5.374      559.053      112.894        0.041      347.622       26.719      859.413
05/27/2014  15:47:00     -523.916     -191.290      -17.528      249.327      218.374      110.900    62164.007    47687.325    12298.814       21.674        6.108      557.745      116.721        0.044      347.260       26.096      859.442
05/27/2014  15:48:00     -438.596     -179.063       -5.935      199.659      231.178       86.031    39863.523    53443.411     7401.310       16.257        5.035      473.741       93.957        0.039      347.219       26.025      859.441
05/27/2014  15:49:00     -240.801     -345.892      -11.592      173.621      179.555       79.712    30144.380    32239.836     6354.036       12.324        3.437      421.457       88.807        0.044      347.175       25.949      859.408
05/27/2014  15:50:00     -343.749      -72.543      -24.590      144.210      134.795       64.111    20796.431    18169.808     4110.164        8.354        2.154      351.320       54.446        0.024      347.480       26.476      859.413
05/27/2014  15:51:00     -204.626        1.931        2.862      163.322      142.109       88.121    26674.110    20195.018     7765.354        4.825        2.732      204.636       98.086        0.230      347.777       26.990      859.425
05/27/2014  15:52:00     -347.702     -231.533        1.803      181.710      156.730       79.922    33018.417    24564.197     6387.602       11.923        3.199      417.737       84.030        0.040      347.363       26.274      859.437
05/27/2014  15:53:00     -464.763     -336.520      -20.608      243.191      142.608       79.702    59142.054    20337.098     6352.440       20.774        4.292      573.803       92.295        0.026      347.399       26.337      859.351
05/27/2014  15:54:00     -273.086     -278.793       -3.552      233.088      256.989       88.415    54330.204    66043.444     7817.201       14.023        6.410      390.258      118.998        0.093      347.579       26.649      859.428
05/27/2014  15:55:00     -379.459     -363.980       11.583      261.417      209.401      110.153    68339.100    43848.753    12133.598       20.044        6.216      525.804      124.400        0.056      347.140       25.890      859.380
05/27/2014  15:56:00     -474.438     -336.736      -10.501      208.525      174.106      115.067    43482.523    30312.834    13240.392       21.280        4.352      581.792      110.034        0.036      347.140       25.891      859.395
05/27/2014  15:57:00     -235.465     -157.221       21.341      177.290      131.125       75.656    31431.729    17193.712     5723.795        6.747        2.717      283.129       87.128        0.095      347.266       26.108      859.408
05/27/2014  15:58:00     -298.802     -244.056      -10.851      141.774      106.560       62.533    20099.786    11355.021     3910.413        9.216        1.768      385.805       71.422        0.034      347.236       26.057      859.382
05/27/2014  15:59:00     -203.659     -132.259        4.508      128.785       98.258       50.523    16585.560     9654.719     2552.541        4.389        1.440      242.836       45.362        0.035      347.586       26.659      859.406
05/27/2014  16:00:00     -285.862     -186.225       -3.607      157.110      115.560       72.385    24683.510    13354.041     5239.583        7.983        2.164      341.170       76.136        0.050      347.434       26.395      859.402
05/27/2014  16:01:00     -443.751     -121.043      -34.057      206.680      147.424       74.468    42716.575    21733.693     5545.414       14.135        3.500      459.964       85.064        0.034      347.439       26.406      859.406
05/27/2014  16:02:00     -237.848      -75.934       -6.017      167.284       68.133       57.803    27983.800     4642.095     3341.167        4.916        1.798      249.676       78.799        0.100      347.225       26.037      859.428
05/27/2014  16:03:00     -292.339      -95.247       -3.601      216.046      139.879       84.016    46675.704    19566.211     7058.687        8.391        3.665      307.464      100.673        0.107      347.556       26.609      859.407
05/27/2014  16:04:00     -589.495     -161.064      -16.484      298.633      175.412       91.903    89181.467    30769.492     8446.245       25.103        6.420      611.103      109.771        0.032      347.209       26.010      859.341
05/27/2014  16:05:00     -521.351     -111.445      -22.859      238.315      206.306      104.999    56793.815    42562.049    11024.793       19.754        5.519      533.129      110.813        0.043      347.263       26.102      859.322
05/27/2014  16:06:00     -391.884      -84.901       -0.266      232.117      151.389       99.412    53878.352    22918.531     9882.817       12.371        4.334      400.975      113.117        0.080      347.513       26.533      859.304
05/27/2014  16:07:00     -229.106     -114.987       10.775      156.103      139.015       71.614    24368.198    19325.048     5128.574        5.732        2.441      256.343       67.335        0.069      347.630       26.735      859.351
05/27/2014  16:08:00     -289.407     -162.887      -11.490      159.084      154.741       89.097    25307.705    23944.846     7938.218        8.379        2.860      332.098       83.371        0.063      347.378       26.299      859.292
05/27/2014  16:09:00     -233.213     -128.900       11.988      221.784      128.287       79.147    49188.054    16457.479     6264.206        7.151        3.595      266.465       86.784        0.106      347.514       26.536      859.257
05/27/2014  16:10:00     -530.931     -147.249      -17.977      212.262      172.977       93.357    45055.274    29921.035     8715.568       19.378        4.185      550.972       91.061        0.027      347.418       26.370      859.219
05/27/2014  16:11:00     -546.845      -71.011        0.201      266.055      178.041       95.287    70785.019    31698.543     9079.707       20.780        5.578      551.436      106.001        0.037      347.451       26.427      859.212
05/27/2014  16:12:00     -404.052     -206.334        2.214      221.390      197.722      109.229    49013.536    39093.933    11931.035       15.292        5.002      453.687      118.205        0.068      347.239       26.061      859.281
05/27/2014  16:13:00     -308.705     -150.864       38.040      289.625      198.685      118.792    83882.856    39475.700    14111.464       12.846        6.874      343.596      139.929        0.166      347.442       26.411      859.236
05/27/2014  16:14:00     -541.480     -233.508      -11.707      294.612      155.702      100.874    86796.063    24243.176    10175.572       23.451        6.061      589.683      129.755        0.048      347.211       26.013      859.277
05/27/2014  16:15:00     -466.490     -249.483      -24.833      173.053      161.052       84.493    29947.341    25937.590     7139.002       17.173        3.151      529.013       80.363        0.023      346.949       25.561      859.319
05/27/2014  16:16:00     -392.056     -335.237      -16.158      179.016      177.564       97.592    32046.651    31529.146     9524.253       16.971        3.655      515.841       96.966        0.035      347.013       25.671      859.290
05/27/2014  16:17:00     -404.376     -160.171      -14.880      192.454      155.143       73.937    37038.453    24069.368     5466.670       12.797        3.329      434.943       77.008        0.031      347.121       25.859      859.336
05/27/2014  16:18:00     -344.585     -182.617       -7.436      267.796      185.625      103.500    71714.799    34456.719    10712.337       13.449        5.844      389.984      127.690        0.107      347.085       25.796      859.297
05/27/2014  16:19:00     -324.795     -117.777       -5.360      255.610      172.835       98.688    65336.640    29871.964     9739.288       11.215        5.247      345.490      117.090        0.115      347.136       25.884      859.223
05/27/2014  16:20:00     -409.941     -114.125       -6.889      195.903      181.813       89.980    38378.079    33055.912     8096.369       13.031        3.977      425.530       95.790        0.051      347.311       26.184      859.228
05/27/2014  16:21:00     -317.840      -93.181      -11.295      203.884      119.340       72.528    41568.525    14241.950     5260.242        8.544        3.054      331.218       79.004        0.057      347.473       26.465      859.241
05/27/2014  16:22:00     -340.294     -266.265       -2.009      203.922      171.828       90.202    41584.297    29524.958     8136.419       13.296        3.962      432.084      107.695        0.062      347.417       26.368      859.233
05/27/2014  16:23:00     -344.353      -90.659        6.746      222.422      177.238       95.788    49471.578    31413.311     9175.305       10.843        4.503      356.087      108.952        0.094      347.363       26.275      859.248
05/27/2014  16:24:00     -313.938     -115.427       -7.135      165.978      135.496       77.679    27548.739    18359.183     6033.951        8.193        2.597      334.485       87.296        0.068      347.504       26.517      859.253
05/27/2014  16:25:00     -656.069     -199.170      -14.836      317.306      171.417      101.203   100682.990    29383.737    10242.011       30.528        7.015      685.635      112.855        0.027      347.053       25.740      859.232
05/27/2014  16:26:00     -409.171     -263.076      -13.783      183.274      136.502       87.125    33589.320    18632.815     7590.710       14.830        2.991      486.446       93.001        0.037      347.125       25.863      859.240
05/27/2014  16:27:00     -254.279     -198.257       -2.323      141.070      107.627       73.877    19900.692    11583.515     5457.864        7.045        1.847      322.434       71.939        0.050      347.295       26.157      859.239
05/27/2014  16:28:00     -188.680     -102.007       20.474      151.777      101.677       60.479    23036.282    10338.240     3657.734        4.172        1.852      214.489       68.466        0.102      347.491       26.496      859.239
05/27/2014  16:29:00     -268.358      -10.826       -3.082      146.821      112.516       54.470    21556.387    12659.815     2966.999        5.466        1.859      268.576       35.626        0.018      347.574       26.639      859.252
05/27/2014  16:30:00     -371.113     -245.570       -8.566      279.688      254.413      114.483    78225.653    64725.771    13106.409       17.705        7.803      445.005      140.445        0.100      347.453       26.429      859.256
05/27/2014  16:31:00     -343.052     -258.431      -15.678      269.233      211.022      130.577    72486.456    44530.163    17050.418       15.936        6.703      429.501      159.631        0.138      347.190       25.977      859.260
05/27/2014  16:32:00     -462.688     -208.067      -14.816      234.964      195.796      102.037    55207.907    38336.199    10411.634       18.075        5.198      507.319      109.346        0.046      346.947       25.559      859.309
05/27/2014  16:33:00     -527.512     -145.493      -20.481      198.526      193.754       90.783    39412.381    37540.627     8241.478       19.251        4.260      547.209       97.540        0.032      347.047       25.729      859.304
05/27/2014  16:34:00     -615.625     -132.283      -27.816      279.942      190.350      113.618    78367.772    36233.189    12909.091       26.236        6.376      629.676      127.574        0.041      346.987       25.626      859.277
05/27/2014  16:35:00     -606.433     -349.610      -35.796      230.474      226.694       98.857    53118.278    51390.333     9772.647       30.275        5.714      699.991       98.786        0.020      346.841       25.374      859.280
05/27/2014  16:36:00     -275.962     -231.717        1.832      205.005      137.512       93.432    42026.881    18909.622     8729.598        9.974        3.483      360.344      101.768        0.080      347.096       25.814      859.313
05/27/2014  16:37:00     -188.945      -48.340       31.530      199.350      155.834      106.585    39740.372    24284.188    11360.275        5.719        3.769      195.030      114.398        0.344      347.282       26.133      859.301
05/27/2014  16:38:00     -375.117      -83.369       26.673      252.256      187.153      109.391    63633.228    35026.388    11966.384       12.948        5.531      384.270      127.393        0.110      347.345       26.243      859.281
05/27/2014  16:39:00     -388.890     -271.508        0.603      234.948      208.026      102.891    55200.682    43275.001    10586.501       16.699        5.453      474.291      100.965        0.045      347.118       25.852      859.299
05/27/2014  16:40:00     -318.723      -85.324      -14.050      200.755      172.299       86.433    40302.476    29686.985     7470.671        9.325        3.873      329.946       81.705        0.061      347.107       25.834      859.290
05/27/2014  16:41:00     -288.725     -228.735       11.246      234.353      192.893      113.764    54921.380    37207.578    12942.236       12.042        5.254      368.351      123.553        0.113      347.164       25.931      859.327
05/27/2014  16:42:00     -416.311     -254.135      -18.322      211.541      203.963       94.535    44749.586    41601.016     8936.825       16.674        4.764      487.749      101.688        0.043      346.803       25.310      859.295
05/27/2014  16:43:00     -271.637     -118.966        4.886      200.166      171.350       82.259    40066.279    29360.957     6766.512        8.206        3.810      296.547      107.363        0.131      347.234       26.051      859.300
05/27/2014  16:44:00     -397.154     -238.724       -3.973      273.280      204.302      101.930    74681.800    41739.157    10389.771       17.075        6.341      463.379      100.722        0.047      347.102       25.826      859.331
05/27/2014  16:45:00     -523.840     -135.396      -29.990      251.567      157.330       85.710    63285.997    24752.626     7346.170       19.449        4.769      541.054       98.778        0.033      346.768       25.250      859.350
05/27/2014  16:46:00     -392.181     -170.200       -2.532      196.493      165.285       89.263    38609.372    27319.113     7967.847       12.832        3.695      427.521      102.321        0.057      346.859       25.406      859.359
05/27/2014  16:47:00     -405.313     -275.525      -19.260      183.233      181.554       84.715    33574.446    32961.897     7176.665       15.712        3.686      490.094       90.325        0.034      346.710       25.149      859.334
05/27/2014  16:48:00     -298.200     -155.315       -1.006      221.106      156.805       93.188    48887.645    24587.960     8684.028        9.759        4.108      336.223       99.551        0.088      347.033       25.705      859.364
05/27/2014  16:49:00     -360.195     -221.852        4.311      233.291      161.473       91.191    54424.560    26073.672     8315.840       13.388        4.441      423.035      112.302        0.070      346.826       25.350      859.372
05/27/2014  16:50:00     -182.306     -175.007        6.210      162.840      134.940       69.666    26516.934    18208.677     4853.366        5.673        2.479      252.711       81.265        0.103      346.892       25.463      859.327
05/27/2014  16:51:00     -229.734      -95.331        7.054      122.352      118.468       57.479    14970.077    14034.679     3303.891        4.711        1.615      248.728       55.589        0.050      347.034       25.708      859.328
05/27/2014  16:52:00     -109.273      -13.223       27.954      114.675      124.417       71.339    13150.319    15479.523     5089.214        2.330        1.686      110.070       63.108        0.329      347.253       26.087      859.323
05/27/2014  16:53:00     -152.257     -113.247       22.518      204.801      201.493      115.890    41943.378    40599.408    13430.500        6.622        4.799      189.755      126.981        0.448      347.170       25.943      859.312
05/27/2014  16:54:00     -507.326     -132.853      -19.912      252.893      183.820       98.307    63955.122    33789.800     9664.219       19.140        5.370      524.433      118.255        0.051      347.027       25.695      859.375
05/27/2014  16:55:00     -487.868     -148.057      -20.955      281.062      254.624      102.531    78995.730    64833.570    10512.661       20.733        7.717      509.840      112.763        0.049      346.879       25.441      859.352
05/27/2014  16:56:00     -502.927      -87.119        3.161      257.926      197.869      106.173    66526.033    39152.156    11272.600       18.872        5.848      510.417      126.885        0.062      346.854       25.396      859.359
05/27/2014  16:57:00     -370.539     -341.178      -20.233      234.966      175.974      100.730    55209.041    30966.789    10146.441       17.520        4.816      503.688      113.164        0.050      346.788       25.284      859.337
05/27/2014  16:58:00     -439.793     -238.231      -15.657      243.167      216.826      102.639    59130.068    47013.519    10534.757       18.352        5.834      500.172      120.683        0.058      346.840       25.372      859.344
05/27/2014  16:59:00     -522.025     -141.139      -35.400      211.617      152.023       89.743    44781.566    23110.913     8053.762       18.480        3.797      540.768       94.140        0.030      346.838       25.371      859.360
05/27/2014  17:00:00     -618.893     -294.557      -13.911      304.691      256.645      114.951    92836.872    65866.412    13213.794       32.092        8.596      685.414      119.657        0.030      346.603       24.965      859.339
05/27/2014  17:01:00     -553.607     -109.813      -36.373      255.597      213.822      100.628    65329.736    45719.756    10125.981       22.049        6.059      564.393      120.557        0.046      346.719       25.164      859.355
05/27/2014  17:02:00     -553.885      -21.864      -13.126      287.799      212.981      114.492    82828.086    45360.772    13108.331       22.434        7.065      554.316      119.134        0.046      346.721       25.169      859.385
05/27/2014  17:03:00     -576.326     -212.784      -26.972      304.656      198.620      104.776    92815.225    39450.076    10978.007       26.067        7.162      614.352      138.897        0.051      346.504       24.796      859.370
05/27/2014  17:04:00     -543.724     -114.009       -7.732      247.957      183.403       97.785    61482.703    33636.616     9561.960       20.667        5.234      555.548      112.655        0.041      346.552       24.878      859.372
05/27/2014  17:05:00     -408.574     -103.920       18.191      201.785      165.874       90.560    40717.374    27514.182     8201.047       12.723        3.822      421.583       98.462        0.055      346.693       25.120      859.356
05/27/2014  17:06:00     -177.261      -86.025       23.065      162.608      106.007       59.110    26441.289    11237.472     3494.019        4.025        2.059      197.032       73.650        0.140      346.934       25.536      859.382
05/27/2014  17:07:00     -350.950     -214.957        6.532      266.630      172.279       80.458    71091.810    29679.983     6473.440       13.831        5.362      411.549       98.436        0.057      346.762       25.239      859.395
05/27/2014  17:08:00     -381.737     -284.150       -0.230      245.259      151.324      116.813    60151.796    22898.928    13645.279       16.156        4.835      475.883      116.627        0.060      346.569       24.907      859.343
05/27/2014  17:09:00     -571.177     -178.596       -8.444      289.043      164.417       96.243    83546.085    27032.892     9262.619       23.900        5.992      598.447      126.711        0.045      346.612       24.982      859.350
05/27/2014  17:10:00     -628.749     -153.875      -10.074      277.201      197.360      101.647    76840.323    38950.797    10332.182       27.259        6.306      647.305      101.592        0.025      346.625       25.003      859.306
05/27/2014  17:11:00     -396.186      -67.300      -18.216      185.550      159.775       84.307    34428.949    25528.077     7107.641       11.443        3.353      401.862       86.519        0.046      346.813       25.327      859.348
05/27/2014  17:12:00     -299.247        2.298       12.497      205.854      142.110      100.103    42375.965    20195.309    10020.651        8.114        3.630      299.256      103.743        0.120      346.849       25.389      859.375
05/27/2014  17:13:00     -503.931     -214.832      -14.433      283.451      268.310      112.681    80344.350    71990.310    12697.061       23.264        8.252      547.813      143.303        0.068      346.588       24.941      859.357
05/27/2014  17:14:00     -483.019      -76.036      -26.739      203.825      178.188       92.064    41544.736    31751.051     8475.872       16.077        4.089      488.967       97.044        0.039      346.621       24.997      859.340
05/27/2014  17:15:00     -385.712     -127.807       11.669      247.261      190.499      105.764    61138.123    36289.679    11186.001       13.691        5.431      406.335      123.549        0.092      346.750       25.219      859.318
05/27/2014  17:16:00     -347.521      -31.935       14.454      215.392      143.987      100.448    46393.673    20732.368    10089.833        9.959        3.861      348.985      100.181        0.082      346.622       24.999      859.340
05/27/2014  17:17:00     -484.648     -143.758      -12.065      213.550      163.762       96.425    45603.488    26818.127     9297.758       16.869        4.086      505.520      100.519        0.040      346.649       25.044      859.320
05/27/2014  17:18:00     -344.382     -307.537      -17.308      234.616      214.295      105.243    55044.587    45922.495    11076.131       16.274        5.602      461.712      125.497        0.074      346.602       24.963      859.313
05/27/2014  17:19:00     -255.591     -180.100       -3.212      149.225      111.090       66.423    22268.078    12341.020     4411.979        6.839        1.951      312.671       71.764        0.053      346.720       25.167      859.328
05/27/2014  17:20:00     -290.385     -164.237        4.689      197.142      123.587       81.343    38865.163    15273.746     6616.752        8.603        3.038      333.612       81.052        0.059      346.766       25.245      859.329
05/27/2014  17:21:00     -432.750      -66.070       -9.353      231.176      171.445       96.453    53442.373    29393.491     9303.275       14.191        4.607      437.765      113.428        0.067      346.766       25.246      859.349
05/27/2014  17:22:00     -558.650     -111.731      -28.636      271.006      182.395      112.387    73444.373    33267.939    12630.799       22.234        5.967      569.713      126.997        0.050      346.595       24.952      859.341
05/27/2014  17:23:00     -341.325     -106.725       21.678      231.328      178.867      106.326    53512.536    31993.478    11305.272       11.257        4.841      357.621      120.415        0.113      346.730       25.185      859.329
05/27/2014  17:24:00     -257.676      -98.364       19.618      177.403      133.259       75.281    31471.833    17757.896     5667.254        6.567        2.745      275.813       86.030        0.097      346.775       25.262      859.350
05/27/2014  17:25:00     -564.960     -334.979      -18.554      296.751      204.101      111.355    88061.259    41657.355    12399.851       28.690        7.106      656.803      102.300        0.024      346.484       24.761      859.316
05/27/2014  17:26:00     -767.037     -258.924      -57.727      251.823      186.405       95.498    63414.958    34747.005     9119.904       38.298        5.364      809.560       87.905        0.012      346.347       24.525      859.315
05/27/2014  17:27:00     -495.421     -291.801      -21.936      272.557      222.315      106.944    74287.056    49423.811    11437.079       23.308        6.757      574.970      126.393        0.048      346.434       24.673      859.332
05/27/2014  17:28:00     -545.255     -320.973      -15.039      311.524      204.784      106.235    97047.489    41936.492    11285.803       27.538        7.513      632.714      108.325        0.029      346.406       24.627      859.335
05/27/2014  17:29:00     -324.267     -239.083       10.113      279.965      187.672      117.978    78380.604    35220.902    13918.808       14.494        6.376      402.877      138.206        0.118      346.460       24.720      859.312
05/27/2014  17:30:00     -347.761     -263.065       -4.359      208.759      164.325      106.108    43580.464    27002.765    11258.866       13.598        4.092      436.052      119.841        0.076      346.469       24.737      859.315
05/27/2014  17:31:00     -208.977     -175.731        8.931      159.435      131.930       78.688    25419.409    17405.611     6191.726        6.181        2.451      273.043       93.434        0.117      346.561       24.893      859.304
05/27/2014  17:32:00     -246.093     -146.439        4.896      172.024      176.519       78.839    29592.365    31159.049     6215.580        7.449        3.348      286.367       78.686        0.076      346.564       24.899      859.312
05/27/2014  17:33:00     -350.314     -248.350      -20.938      163.984      133.365       71.050    26890.723    17786.141     5048.157       11.727        2.486      429.415       72.806        0.029      346.611       24.979      859.306
05/27/2014  17:34:00     -291.193     -209.946       -0.460      173.633      138.397       89.462    30148.305    19153.693     8003.395        9.308        2.865      358.986       95.763        0.071      346.580       24.926      859.291
05/27/2014  17:35:00     -206.239      -98.250       -5.983      145.562      100.249       71.036    21188.174    10049.953     5046.153        4.425        1.814      228.447       65.192        0.081      346.773       25.258      859.292
05/27/2014  17:36:00     -161.810      -13.804        0.674      112.664      100.212       58.403    12693.201    10042.532     3410.863        2.625        1.307      162.398       56.593        0.121      346.918       25.510      859.291
05/27/2014  17:37:00     -265.135     -129.901        8.578      232.505      159.594       78.809    54058.494    25470.289     6210.786        8.647        4.287      295.247      103.703        0.123      346.706       25.144      859.289
05/27/2014  17:38:00     -271.580      -21.440        3.255      169.901      154.297       75.569    28866.249    23807.693     5710.698        6.629        2.919      272.425       77.782        0.082      346.523       24.829      859.270
05/27/2014  17:39:00     -349.891      -82.560       -4.930      163.727      142.331       80.229    26806.522    20257.974     6436.756        9.137        2.675      359.499       87.458        0.059      346.627       25.007      859.282
05/27/2014  17:40:00     -160.972      -20.322        4.026      178.240      105.470       64.726    31769.591    11123.823     4189.402        3.670        2.354      162.249       66.851        0.170      346.778       25.269      859.287
05/27/2014  17:41:00     -198.454     -106.850        3.444      151.901      153.974       67.533    23074.013    23707.926     4560.700        5.107        2.567      225.391       72.875        0.105      346.651       25.049      859.294
05/27/2014  17:42:00     -692.396     -166.130      -38.281      262.766      214.339      121.682    69046.148    45941.191    14806.481       31.911        6.490      712.047      137.671        0.037      346.268       24.390      859.297
05/27/2014  17:43:00     -405.725     -273.365      -12.803      224.384      185.073      100.597    50348.097    34251.987    10119.833       16.709        4.736      489.225      117.206        0.057      346.177       24.234      859.275
05/27/2014  17:44:00     -391.532     -223.651      -10.366      223.463      142.481       75.914    49935.824    20300.903     5762.999       13.970        3.800      450.907       96.706        0.046      346.207       24.285      859.277
05/27/2014  17:45:00     -308.470      -98.233       -6.474      154.728      121.862       71.836    23940.621    14850.403     5160.443        7.439        2.198      323.733       75.535        0.054      346.347       24.525      859.285
05/27/2014  17:46:00     -495.960     -134.130      -24.172      252.512      195.629      100.492    63762.556    38270.793    10098.557       18.832        5.607      513.777      122.701        0.057      346.233       24.329      859.282
05/27/2014  17:47:00     -382.838        5.470      -31.406      236.578      252.460       91.742    55969.216    63735.967     8416.571       13.783        6.406      382.877      109.211        0.081      346.352       24.535      859.189
05/27/2014  17:48:00     -473.093     -220.837      -13.510      178.469      139.262       91.146    31851.296    19393.912     8307.540       16.615        2.978      522.098       97.606        0.035      346.404       24.623      859.243
05/27/2014  17:49:00     -472.524     -115.920       -8.312      234.330      171.864       95.957    54910.362    29537.313     9207.732       16.520        4.683      486.536       90.467        0.035      346.351       24.532      859.250
05/27/2014  17:50:00     -310.473     -128.460      -19.848      141.471      122.565       70.334    20013.997    15022.151     4946.824        7.663        1.999      335.999       71.641        0.045      346.407       24.628      859.255
05/27/2014  17:51:00     -261.734     -232.674       -9.683      201.826      139.221       99.424    40733.609    19382.565     9885.079        9.635        3.500      350.203      111.600        0.102      346.461       24.723      859.258
05/27/2014  17:52:00     -303.410     -151.161       -2.528      175.224      125.442       83.463    30703.443    15735.775     6966.123        8.415        2.670      338.980       92.548        0.075      346.510       24.805      859.267
05/27/2014  17:53:00     -603.623       10.820      -25.732      279.289      171.090      110.874    78002.229    29271.815    12293.052       24.233        5.978      603.720      145.713        0.058      346.375       24.574      859.240
05/27/2014  17:54:00     -454.901      -60.589      -30.683      177.876      167.768       83.281    31640.014    28146.092     6935.706       13.912        3.336      458.918       81.699        0.032      346.446       24.696      859.263
05/27/2014  17:55:00     -520.352     -252.049      -47.535      267.630      209.529      103.129    71625.967    43902.290    10635.558       23.133        6.308      578.182      127.304        0.048      346.223       24.312      859.247
05/27/2014  17:56:00     -506.448      -56.024      -10.904      209.125      181.694      101.345    43733.422    33012.803    10270.847       17.336        4.351      509.537      104.978        0.042      346.287       24.423      859.276
05/27/2014  17:57:00     -394.624     -183.677        0.073      268.055      228.233      124.328    71853.740    52090.329    15457.439       16.441        6.970      435.276      148.567        0.116      346.268       24.388      859.260
05/27/2014  17:58:00     -332.787     -213.749        4.378      256.946      199.890      118.780    66021.017    39956.003    14108.748       13.825        6.004      395.520      125.386        0.100      346.264       24.383      859.257
05/27/2014  17:59:00     -579.113     -192.018      -39.856      260.055      204.012       95.609    67628.525    41620.777     9141.073       24.609        5.920      610.117      109.608        0.032      346.103       24.106      859.295
05/27/2014  18:00:00     -526.319     -272.831      -10.063      317.908      290.906      142.675   101065.398    84626.371    20356.138       27.876       10.302      592.831      150.075        0.064      346.071       24.051      859.243
05/27/2014  18:01:00     -319.795     -187.585       24.034      249.697      279.578      139.727    62348.725    78163.801    19523.524       14.900        8.002      370.752      158.017        0.182      346.101       24.104      859.248
05/27/2014  18:02:00     -479.082      -57.524      -23.866      213.722      178.798      103.977    45677.133    31968.689    10811.121       16.091        4.423      482.523      105.438        0.048      346.117       24.130      859.321
05/27/2014  18:03:00     -429.826     -132.148      -13.127      236.464      232.904      109.640    55915.191    54244.400    12020.955       16.226        6.109      449.681       89.397        0.040      346.050       24.016      859.319
05/27/2014  18:04:00     -280.514      -44.921        2.470      187.643      116.404       71.413    35209.908    13549.808     5099.778        6.728        2.693      284.088       79.789        0.079      346.187       24.251      859.330
05/27/2014  18:05:00     -316.480     -210.094       -9.867      248.328      174.680       77.956    61666.658    30513.247     6077.092       12.131        4.913      379.868       96.367        0.064      346.149       24.186      859.309
05/27/2014  18:06:00     -430.632     -274.600      -10.696      324.919      172.653      117.872   105572.100    29808.925    13893.835       20.509        7.464      510.734      124.877        0.060      346.017       23.958      859.276
05/27/2014  18:07:00     -335.338     -205.310        6.934      254.314      202.797       97.672    64675.429    41126.795     9539.901       13.497        5.767      393.196      109.666        0.078      346.036       23.991      859.306
05/27/2014  18:08:00     -446.719     -109.651      -14.320      270.167      173.212      100.476    72990.092    30002.263    10095.482       16.241        5.654      459.980      127.529        0.077      346.100       24.101      859.326
05/27/2014  18:09:00     -562.267     -177.823      -29.017      214.648      230.138       97.142    46073.930    52963.437     9436.565       22.852        5.424      589.717       96.236        0.027      345.995       23.920      859.343
05/27/2014  18:10:00     -501.339      -90.374      -14.079      230.277      254.178       95.418    53027.619    64606.670     9104.508       19.320        6.337      509.419       99.552        0.038      346.088       24.080      859.364
05/27/2014  18:11:00     -497.667     -221.682      -14.996      255.646      191.907      106.035    65354.714    36828.488    11243.466       20.521        5.671      544.807      121.256        0.050      345.975       23.888      859.382
05/27/2014  18:12:00     -404.468     -167.249      -11.390      236.832      205.559      100.935    56089.527    42254.463    10187.905       15.009        5.427      437.683      107.601        0.060      345.951       23.845      859.400
05/27/2014  18:13:00     -438.862     -208.172       -8.419      146.669      157.666       81.563    21511.740    24858.490     6652.465       14.450        2.651      485.732       77.659        0.026      345.924       23.800      859.379
05/27/2014  18:14:00     -251.779     -152.445        8.227      156.639      143.189       72.766    24535.791    20503.173     5294.956        6.851        2.517      294.333       78.770        0.072      346.063       24.038      859.387
05/27/2014  18:15:00     -393.196     -159.169       -9.839      236.364      169.317      101.472    55867.708    28668.126    10296.652       13.741        4.742      424.191      122.051        0.083      346.043       24.003      859.420
05/27/2014  18:16:00     -608.867     -312.866      -37.902      282.250      221.522      115.320    79664.988    49072.029    13298.815       30.601        7.102      684.547      113.212        0.027      345.784       23.559      859.405
05/27/2014  18:17:00     -341.259     -165.539        3.343      294.790      175.575       97.485    86901.307    30826.676     9503.414       13.553        6.362      379.290      106.283        0.079      345.861       23.692      859.383
05/27/2014  18:18:00     -493.701     -277.761       -8.020      213.957      221.434      111.627    45777.584    49033.000    12460.692       21.409        5.364      566.473      126.946        0.050      345.794       23.577      859.370
05/27/2014  18:19:00     -320.749     -248.259      -12.451      213.045      148.541       94.972    45388.149    22064.297     9019.760       12.055        3.824      405.602       88.450        0.048      345.824       23.627      859.382
05/27/2014  18:20:00     -537.431     -160.040      -31.351      188.983      190.421       81.202    35714.470    36260.069     6593.707       19.698        3.928      560.754       86.457        0.024      345.849       23.671      859.361
05/27/2014  18:21:00     -254.957      -74.394       -5.725      171.088      181.670       81.517    29271.063    33003.933     6645.008        6.973        3.446      265.589       88.790        0.112      345.997       23.925      859.358
05/27/2014  18:22:00     -431.094     -101.111      -35.168      248.433      159.808       87.886    61718.873    25538.517     7724.016       14.612        4.749      442.793      113.977        0.066      345.987       23.908      859.397
05/27/2014  18:23:00     -337.307     -218.877       11.607      287.114      239.355      132.823    82434.711    57290.893    17641.881       15.956        7.868      402.098      148.189        0.136      345.987       23.908      859.356
05/27/2014  18:24:00     -371.912     -157.654       -1.916      239.304      165.994      106.250    57266.583    27553.997    11289.038       12.962        4.805      403.947      103.611        0.066      345.947       23.840      859.385
05/27/2014  18:25:00     -406.092     -201.366      -26.489      245.441      215.884      104.586    60241.484    46605.823    10938.310       16.195        5.889      453.276      125.367        0.076      345.768       23.532      859.405
05/27/2014  18:26:00     -486.137     -294.656      -12.449      287.839      209.244      137.371    82851.553    43782.986    18870.743       23.438        7.275      568.464      156.578        0.076      345.670       23.363      859.393
05/27/2014  18:27:00     -269.589     -159.928        7.013      205.040      192.771       86.878    42041.344    37160.661     7547.768        9.251        4.337      313.457      106.418        0.115      345.792       23.574      859.423
05/27/2014  18:28:00     -372.096     -149.782        0.676      234.712      148.347       91.081    55089.520    22006.867     8295.735       12.312        4.270      401.111      113.919        0.081      345.827       23.634      859.438
05/27/2014  18:29:00     -278.040     -162.143       -8.244      184.730      112.155       65.529    34125.327    12578.702     4293.987        7.732        2.550      321.865       63.084        0.038      345.875       23.716      859.461
05/27/2014  18:30:00     -412.828     -274.635        8.270      263.298      193.317      123.438    69325.913    37371.604    15237.025       18.390        6.097      495.834      145.091        0.086      345.825       23.629      859.470
05/27/2014  18:31:00     -333.183     -218.862       11.014      266.255      169.086      117.542    70891.947    28590.195    13816.202       13.614        5.665      398.637      138.301        0.120      345.765       23.527      859.434
05/27/2014  18:32:00     -448.987     -265.466      -27.287      229.347      169.504       97.450    52600.257    28731.658     9496.434       18.180        4.541      521.595      112.452        0.046      345.740       23.482      859.461
05/27/2014  18:33:00     -432.578     -212.567        4.307      283.062      163.274      103.429    80123.927    26658.524    10697.604       17.488        5.874      481.984      118.483        0.060      345.761       23.520      859.464
05/27/2014  18:34:00     -417.603      -64.506      -31.017      169.113      170.188       76.884    28599.084    28963.974     5911.108       12.148        3.174      422.556       71.307        0.028      345.885       23.733      859.506
05/27/2014  18:35:00     -298.383      -47.003        0.931      133.539      102.192       71.239    17832.562    10443.127     5074.960        6.229        1.668      302.062       66.782        0.049      345.903       23.762      859.535
05/27/2014  18:36:00     -361.548      -33.739       -8.742      178.105      122.989       78.879    31721.541    15126.279     6221.921        9.249        2.653      363.119       89.035        0.060      345.853       23.678      859.536
05/27/2014  18:37:00     -378.437     -128.014      -24.612      126.486      147.245       75.916    15998.669    21681.229     5763.188       10.182        2.172      399.502       73.339        0.034      345.876       23.718      859.563
05/27/2014  18:38:00     -650.499     -183.966      -37.295      210.922      168.896      103.747    44487.914    28525.780    10763.535       27.106        4.189      676.012      110.112        0.027      345.610       23.259      859.543
05/27/2014  18:39:00     -470.999     -114.371      -36.391      177.973      201.479       81.663    31674.276    40593.727     6668.769       15.758        3.947      484.686       83.082        0.029      345.649       23.327      859.544
05/27/2014  18:40:00     -271.140     -113.756      -11.138      188.894      150.197       83.187    35680.901    22559.140     6920.019        7.586        3.258      294.036       85.922        0.085      345.788       23.565      859.568
05/27/2014  18:41:00     -431.278     -148.333      -15.492      243.474      142.162       90.624    59279.646    20209.919     8212.732       14.796        4.385      456.074      102.693        0.051      345.632       23.297      859.573
05/27/2014  18:42:00     -431.040     -218.970      -10.854      242.570      138.980       77.689    58839.980    19315.402     6035.584       15.901        4.210      483.470       81.173        0.028      345.571       23.193      859.574
05/27/2014  18:43:00     -500.828     -175.816      -16.327      211.639      158.119       77.788    44791.173    25001.468     6050.956       17.891        3.792      530.792       99.993        0.035      345.564       23.180      859.595
05/27/2014  18:44:00     -464.150     -109.318       -8.317      297.748      182.597      126.223    88654.107    33341.766    15932.362       18.266        6.896      476.850      159.584        0.112      345.585       23.216      859.543
05/27/2014  18:45:00     -446.706      -55.992      -27.295      147.085      131.533       71.920    21634.028    17300.878     5172.473       12.376        2.205      450.202       70.679        0.025      345.603       23.246      859.560
05/27/2014  18:46:00     -448.702      -79.540        1.574      230.709      181.954      101.024    53226.571    33107.350    10205.795       15.208        4.827      455.697      112.078        0.060      345.617       23.272      859.557
05/27/2014  18:47:00     -281.331      -53.906        1.307      191.183      114.268       71.679    36551.115    13057.272     5137.830        6.839        2.737      286.449       73.125        0.065      345.698       23.411      859.613
05/27/2014  18:48:00     -395.301     -250.436       -4.559      212.274      154.959       92.800    45060.049    24012.344     8611.908       14.833        3.884      467.954       95.361        0.042      345.577       23.204      859.610
05/27/2014  18:49:00     -369.080     -201.936      -23.244      246.716      216.844       89.890    60868.615    47021.133     8080.280       14.673        5.799      420.711       93.614        0.050      345.563       23.179      859.670
05/27/2014  18:50:00     -436.481     -226.665      -33.613      239.082      203.009       92.785    57160.131    41212.647     8609.136       17.498        5.349      491.825      101.190        0.042      345.493       23.058      859.665
05/27/2014  18:51:00     -474.643     -239.887      -26.814      229.016      200.411       98.980    52448.481    40164.515     9797.065       19.296        5.121      531.819       96.843        0.033      345.487       23.047      859.666
05/27/2014  18:52:00     -359.062     -199.173      -10.141      190.988      136.389       72.245    36476.248    18601.877     5219.351       11.449        3.015      410.603       70.898        0.030      345.531       23.123      859.692
05/27/2014  18:53:00     -252.111     -110.526        1.657      235.197      212.197      102.539    55317.702    45027.727    10514.211        9.330        5.543      275.275      118.625        0.186      345.574       23.198      859.699
05/27/2014  18:54:00     -344.906      -24.862      -10.880      161.569      160.234       92.461    26104.650    25674.840     8548.982        9.000        3.016      345.801       88.502        0.066      345.572       23.196      859.727
05/27/2014  18:55:00     -474.192       60.536      -27.652      201.759      106.724       69.856    40706.631    11389.910     4879.876       14.312        2.849      478.041       83.734        0.031      345.509       23.087      859.736
05/27/2014  18:56:00     -121.569      -95.756       25.120      146.040      106.170       64.273    21327.687    11272.000     4131.061        3.065        1.837      154.752       80.615        0.271      345.683       23.386      859.740
05/27/2014  18:57:00     -365.279       12.904      -21.672      261.072      123.413       77.743    68158.538    15230.839     6043.970       11.173        4.472      365.507      111.670        0.093      345.605       23.252      859.746
05/27/2014  18:58:00     -300.613     -212.744      -12.578      204.993      154.188       84.530    42022.087    23774.092     7145.382       10.435        3.647      368.277       79.965        0.047      345.518       23.101      859.747
05/27/2014  18:59:00     -330.097      -59.110       -8.148      180.606      171.372       84.183    32618.698    29368.288     7086.767        9.079        3.454      335.348       84.187        0.063      345.552       23.161      859.770
05/27/2014  19:00:00     -527.992      -56.483      -22.714      279.725      247.887      116.280    78245.863    61447.831    13520.982       21.782        7.661      531.004      121.849        0.053      345.375       22.857      859.727
05/27/2014  19:01:00     -491.221     -203.305      -38.734      250.517      187.269      113.131    62758.764    35069.584    12798.713       19.736        5.531      531.631      124.760        0.055      345.326       22.773      859.750
05/27/2014  19:02:00     -392.905       -6.892       -2.394      183.726      160.598       83.524    33755.139    25791.793     6976.240       11.046        3.326      392.965       82.628        0.044      345.403       22.904      859.744
05/27/2014  19:03:00     -261.591      -58.990      -18.150      171.430      158.502       82.945    29388.353    25123.028     6879.882        6.680        3.070      268.160       78.100        0.085      345.432       22.956      859.756
05/27/2014  19:04:00     -258.897     -144.803        3.686      196.148      138.533       66.580    38473.886    19191.480     4432.916        7.504        3.105      296.640       79.481        0.072      345.469       23.017      859.761
05/27/2014  19:05:00     -259.342     -140.726      -12.666      165.915      143.856       66.423    27527.915    20694.524     4412.069        6.992        2.632      295.062       73.292        0.062      345.438       22.963      859.773
05/27/2014  19:06:00     -277.306      -82.440        7.944      201.370      142.515       68.608    40550.055    20310.426     4707.016        7.465        3.278      289.301       73.301        0.064      345.473       23.026      859.768
05/27/2014  19:07:00     -468.022      -74.641      -15.270      224.584      175.844       90.856    50438.066    30921.093     8254.858       15.721        4.481      473.937      102.894        0.047      345.362       22.834      859.757
05/27/2014  19:08:00     -407.768     -168.208       -3.981      246.989      199.448      102.539    61003.377    39779.483    10514.343       15.292        5.565      441.100      104.830        0.056      345.337       22.793      859.717
05/27/2014  19:09:00     -235.458      -63.157       26.909      194.174      159.243       84.895    37703.641    25358.206     7207.101        6.520        3.513      243.781       99.143        0.165      345.385       22.874      859.804
05/27/2014  19:10:00     -318.451     -165.126      -10.227      116.301      122.754       68.040    13525.819    15068.494     4629.461        8.100        1.661      358.716       61.656        0.030      345.375       22.855      859.855
05/27/2014  19:11:00     -241.468     -188.817        3.701      207.896      157.542       79.874    43220.691    24819.373     6379.851        8.418        3.721      306.527      103.712        0.114      345.368       22.846      859.828
05/27/2014  19:12:00     -123.990      -56.861       12.694      113.311       80.649       52.832    12839.315     6504.278     2791.247        2.045        1.107      136.406       58.200        0.182      345.436       22.963      859.839
05/27/2014  19:13:00     -190.221      -51.560       12.412      149.135       85.976       59.263    22241.247     7391.946     3512.067        3.606        1.657      197.085       70.392        0.128      345.478       23.035      859.836
05/27/2014  19:14:00     -295.964      -73.141       -6.408      146.187       86.933       60.286    21370.636     7557.351     3634.416        6.277        1.628      304.868       54.673        0.032      345.322       22.766      859.854
05/27/2014  19:15:00     -234.558     -100.725        0.515      152.718       76.961       58.225    23322.722     5922.982     3390.142        4.889        1.632      255.270       63.824        0.063      345.397       22.895      859.856
05/27/2014  19:16:00     -329.346     -266.399      -24.719      144.239      148.970       91.947    20804.756    22192.025     8454.197       11.574        2.573      423.600       67.056        0.025      345.250       22.640      859.831
05/27/2014  19:17:00     -201.307      -24.486       -5.732      233.359      133.296       77.045    54456.378    17767.846     5935.990        5.964        3.908      202.791       99.481        0.241      345.291       22.714      859.863
05/27/2014  19:18:00     -316.366      -63.699       -9.677      155.443      128.789       62.964    24162.677    16586.735     3964.409        7.447        2.236      322.715       76.228        0.056      345.236       22.617      859.885
05/27/2014  19:19:00     -247.804     -133.584      -15.141      108.188      119.169       58.445    11704.684    14201.219     3415.800        5.440        1.466      281.516       54.435        0.037      345.233       22.612      859.879
05/27/2014  19:20:00     -256.264      -95.720      -20.555      140.913       97.404       60.343    19856.542     9487.567     3641.322        5.411        1.649      273.557       42.837        0.025      345.269       22.674      859.880
05/27/2014  19:21:00     -259.946      -49.743        3.776      149.036      112.505       64.734    22211.822    12657.467     4190.552        5.455        1.953      264.663       65.536        0.061      345.276       22.687      859.903
05/27/2014  19:22:00     -452.967     -112.794      -12.544      196.996      170.838       77.309    38807.290    29185.601     5976.640       14.600        3.698      466.799       88.831        0.036      345.145       22.464      859.885
05/27/2014  19:23:00     -445.470     -130.593      -16.175      177.059      140.249       76.296    31350.045    19669.853     5821.007       13.629        2.842      464.217       78.991        0.029      345.068       22.331      859.869
05/27/2014  19:24:00     -342.497     -161.452       -8.833      110.570      102.784       60.662    12225.816    10564.510     3679.872        8.495        1.324      378.643       51.036        0.018      345.051       22.303      859.914
05/27/2014  19:25:00     -280.233      -55.615       10.756      149.191      153.316       85.512    22258.082    23505.655     7312.357        6.740        2.654      285.698       77.177        0.073      345.121       22.421      859.904
05/27/2014  19:26:00     -339.266      -68.423       -8.806      196.645      144.981       78.474    38669.159    21019.444     6158.229        9.284        3.292      346.097       94.239        0.074      345.061       22.319      859.911
05/27/2014  19:27:00     -220.899      -35.317        2.818      168.286      112.169       63.049    28320.054    12581.819     3975.191        4.746        2.244      223.704       62.522        0.078      345.067       22.332      859.921
05/27/2014  19:28:00     -431.333      -92.857      -21.778      168.583      159.288       73.867    28420.082    25372.648     5456.375       12.719        2.962      441.215       72.985        0.027      344.993       22.203      859.896
05/27/2014  19:29:00     -402.668      -93.413        2.920      205.675      133.341       79.510    42302.173    17779.925     6321.912       11.863        3.320      413.361       90.203        0.048      344.975       22.172      859.907
05/27/2014  19:30:00     -382.097      -60.829      -11.713      154.070      113.787       69.958    23737.480    12947.463     4894.131        9.570        2.079      386.908       76.141        0.039      344.981       22.182      859.930
05/27/2014  19:31:00     -406.870     -113.621      -28.401      184.152      156.320       82.199    33912.008    24435.921     6756.705       12.217        3.255      422.437       94.511        0.050      344.966       22.158      859.926
05/27/2014  19:32:00     -206.406      -16.964      -10.148       97.654       86.642       53.761     9536.224     7506.882     2890.231        3.146        0.997      207.101       47.182        0.052      345.071       22.339      859.934
05/27/2014  19:33:00     -349.102     -110.616      -16.065      138.290      124.591       63.252    19124.144    15522.877     4000.872        8.650        1.932      366.208       59.312        0.026      344.979       22.179      859.942
05/27/2014  19:34:00     -437.792      -89.184      -15.723      231.106      196.099      101.447    53409.977    38454.804    10291.572       15.099        5.108      446.784       99.383        0.049      344.922       22.080      859.930
05/27/2014  19:35:00     -304.118      -32.869       -5.678      256.939      123.405       78.761    66017.747    15228.863     6203.217        9.051        4.372      305.889      105.959        0.120      344.953       22.135      859.941
05/27/2014  19:36:00     -377.497      -84.174        3.050      171.075      152.480       79.184    29266.717    23250.000     6270.074       10.418        2.939      386.768       81.173        0.044      344.899       22.041      859.957
05/27/2014  19:37:00     -352.851     -102.210       -1.953      179.372      117.495       71.890    32174.136    13805.113     5168.214        9.304        2.557      367.356       71.106        0.037      344.872       21.997      859.967
05/27/2014  19:38:00     -329.954      -84.358      -10.902      114.740      128.039       64.317    13165.189    16393.980     4136.671        7.489        1.685      340.567       60.175        0.031      344.854       21.965      859.989
05/27/2014  19:39:00     -412.846     -143.103      -23.963      162.335      137.081       71.453    26352.709    18791.166     5105.579       12.086        2.512      436.944       63.970        0.021      344.822       21.909      860.009
05/27/2014  19:40:00     -352.488      -55.798        3.438      120.629       99.024       59.613    14551.284     9805.809     3553.731        7.764        1.396      356.877       67.050        0.035      344.813       21.894      860.027
05/27/2014  19:41:00     -374.914      -74.925      -13.456      162.024      118.621       72.732    26251.751    14071.048     5289.890        9.597        2.281      382.328       86.168        0.051      344.806       21.883      860.044
05/27/2014  19:42:00     -374.059      -89.696       -9.729      137.633      122.326       60.293    18942.933    14963.567     3635.273        9.279        1.877      384.663       42.105        0.012      344.793       21.859      860.050
05/27/2014  19:43:00     -389.824      -80.088      -20.009      221.306      134.800       79.406    48976.280    18170.998     6305.281       11.610        3.673      397.966       99.841        0.063      344.750       21.787      860.043
05/27/2014  19:44:00     -477.237     -148.532      -14.729      240.115      163.257       77.070    57655.219    26652.931     5939.780       17.012        4.512      499.817       83.474        0.028      344.717       21.730      860.082
05/27/2014  19:45:00     -557.250     -186.595      -30.451      200.679      208.741       89.927    40272.044    43572.696     8086.801       21.908        4.597      587.661       94.228        0.026      344.692       21.687      860.075
05/27/2014  19:46:00     -402.008     -124.253       -8.124      224.761      154.551       85.821    50517.676    23885.958     7365.191       12.943        4.088      420.772      101.313        0.058      344.698       21.696      860.072
05/27/2014  19:47:00     -414.086     -155.434       -8.107      230.973      195.991       88.809    53348.722    38412.323     7887.048       14.765        4.982      442.298      100.435        0.052      344.670       21.648      860.067
05/27/2014  19:48:00     -249.389      -97.150       -6.520      174.192      152.703       74.689    30342.960    23318.279     5578.402        6.545        2.962      267.643       92.034        0.118      344.681       21.670      860.094
05/27/2014  19:49:00     -235.282      -55.014        1.803      102.767       99.243       64.518    10561.067     9849.093     4162.613        4.148        1.229      241.628       51.977        0.046      344.691       21.686      860.103
05/27/2014  19:50:00     -325.482      -67.834      -16.718      180.487      132.332       69.144    32575.696    17511.842     4780.936        8.283        2.743      332.476       71.198        0.046      344.636       21.591      860.125
05/27/2014  19:51:00     -515.754       -8.625      -40.344      159.042      111.810       69.619    25294.257    12501.472     4846.739       15.516        2.132      515.826       75.109        0.021      344.611       21.548      860.125
05/27/2014  19:52:00     -397.221      -72.142        5.817      227.469      153.007       96.811    51742.352    23410.991     9372.352       12.376        4.226      403.719      111.576        0.076      344.603       21.536      860.132
05/27/2014  19:53:00     -383.773      -29.083      -12.103      189.018      115.310       81.930    35727.772    13296.479     6712.504       10.199        2.787      384.873       98.528        0.066      344.617       21.560      860.151
05/27/2014  19:54:00     -318.392     -172.793      -21.330      202.001      182.465       83.181    40804.288    33293.566     6919.135       10.634        4.051      362.258       89.458        0.061      344.598       21.529      860.131
05/27/2014  19:55:00     -297.095      -96.101       -0.853      146.497      116.065       78.164    21461.286    13471.011     6109.572        6.926        2.052      312.251       94.530        0.092      344.584       21.504      860.153
05/27/2014  19:56:00     -231.048       -3.028       14.039      151.200      118.955       78.333    22861.330    14150.349     6135.981        4.836        2.157      231.068       81.503        0.124      344.542       21.432      860.165
05/27/2014  19:57:00     -359.579      -45.227        3.340      159.080      133.531       84.790    25306.415    17830.525     7189.307        9.083        2.516      362.413       86.863        0.057      344.507       21.373      860.183
05/27/2014  19:58:00     -367.957      -82.635        0.665      163.328      131.703       79.014    26675.955    17345.704     6243.171        9.623        2.513      377.122       86.156        0.052      344.476       21.318      860.199
05/27/2014  19:59:00     -221.602      -12.045      -12.399      144.553       96.296       55.675    20895.502     9272.865     3099.754        4.133        1.663      221.929       55.383        0.062      344.483       21.330      860.199
05/27/2014  20:00:00      -57.160      -25.927        9.119      112.735       84.457       66.124    12709.201     7132.999     4372.436        1.411        1.211       62.765       64.672        1.062      344.485       21.337      860.180
05/27/2014  20:01:00     -223.769      -31.527       -3.591      152.731      134.509       72.589    23326.662    18092.624     5269.100        4.887        2.334      225.979       72.913        0.104      344.432       21.242      860.204
05/27/2014  20:02:00     -254.742      -97.340        9.459      151.707      125.345       67.363    23015.148    15711.273     4537.806        5.885        2.163      272.706       77.798        0.081      344.415       21.214      860.241
05/27/2014  20:03:00     -166.697      -37.913       -1.856      112.887       77.998       44.011    12743.448     6083.658     1937.011        2.499        1.038      170.954       46.555        0.074      344.414       21.214      860.247
05/27/2014  20:04:00     -533.738      -45.502      -12.253      226.447      158.432       85.035    51278.117    25100.850     7230.987       18.534        4.180      535.674      106.941        0.040      344.358       21.117      860.251
05/27/2014  20:05:00     -208.535      -53.077       10.828      120.599      107.866       61.702    14544.040    11635.065     3807.184        3.820        1.499      215.184       60.632        0.079      344.325       21.063      860.282
05/27/2014  20:06:00     -299.234      -76.372      -20.312      110.058      117.916       52.829    12112.761    13904.209     2790.853        6.229        1.440      308.827       57.506        0.035      344.332       21.071      860.292
05/27/2014  20:07:00     -315.644     -136.781      -14.071       93.678       97.178       50.641     8775.509     9443.498     2564.469        6.966        1.039      344.006       44.306        0.017      344.337       21.081      860.307
05/27/2014  20:08:00     -235.087      -22.308      -17.128      148.399      105.761       54.165    22022.146    11185.434     2933.897        4.609        1.807      236.143       69.554        0.087      344.303       21.023      860.320
05/27/2014  20:09:00     -307.421      -82.435      -17.993      102.362      103.973       58.479    10477.992    10810.292     3419.757        6.316        1.235      318.281       56.079        0.031      344.287       20.995      860.313
05/27/2014  20:10:00     -229.279      -60.216        1.834      176.152      118.620       60.870    31029.416    14070.781     3705.149        5.249        2.440      237.054       80.762        0.116      344.217       20.876      860.305
05/27/2014  20:11:00     -207.871      -86.618       15.589      165.290      145.360       68.647    27320.863    21129.573     4712.435        5.205        2.658      225.195       84.434        0.141      344.286       20.993      860.321
05/27/2014  20:12:00     -208.143     -110.598      -10.247      133.154      127.878       70.586    17730.032    16352.860     4982.325        4.736        1.953      235.702       68.955        0.086      344.302       21.023      860.337
05/27/2014  20:13:00     -463.401     -100.042      -32.684      244.839      156.683       90.540    59946.199    24549.643     8197.517       15.924        4.635      474.077       99.815        0.044      344.264       20.955      860.351
05/27/2014  20:14:00     -408.048     -135.794       -6.970      196.407      152.294       91.807    38575.649    23193.593     8428.519       12.758        3.510      430.051      100.864        0.055      344.238       20.911      860.346
05/27/2014  20:15:00     -228.053      -78.996       -3.741      166.414      135.593       75.381    27693.454    18385.480     5682.269        5.500        2.588      241.347       87.359        0.131      344.255       20.942      860.360
05/27/2014  20:16:00     -297.496      -18.728       -9.654      142.177      135.735       65.710    20214.372    18423.906     4317.786        6.594        2.148      298.085       58.844        0.039      344.222       20.883      860.379
05/27/2014  20:17:00     -450.403      -79.008      -30.829      143.160      102.726       65.105    20494.926    10552.565     4238.680       12.266        1.764      457.280       53.803        0.014      344.196       20.838      860.394
05/27/2014  20:18:00     -321.158      -94.431       -6.407      148.010      147.532       67.015    21906.884    21765.685     4490.967        8.012        2.408      334.754       72.671        0.047      344.168       20.793      860.400
05/27/2014  20:19:00     -256.341      -72.803       -4.417      148.009      115.460       59.842    21906.529    13331.027     3581.105        5.492        1.941      266.479       66.990        0.063      344.126       20.722      860.418
05/27/2014  20:20:00     -244.623      -98.291       -5.335       96.838      110.474       57.017     9377.506    12204.598     3250.949        4.718        1.242      263.631       46.297        0.031      344.113       20.698      860.435
05/27/2014  20:21:00     -265.168      -42.814       -0.681      195.694      106.562       76.928    38296.117    11355.521     5917.931        6.385        2.778      268.602      102.191        0.145      344.095       20.668      860.432
05/27/2014  20:22:00     -351.078      -21.167      -29.272      120.753      109.279       52.183    14581.311    11941.930     2723.039        7.690        1.462      351.716       44.184        0.016      344.111       20.695      860.442
05/27/2014  20:23:00     -383.041     -158.792       -7.267      143.255      110.875       63.583    20522.096    12293.298     4042.860       10.442        1.843      414.651       66.246        0.026      344.104       20.683      860.461
05/27/2014  20:24:00     -393.045      -84.075      -25.261      115.627      109.499       63.895    13369.710    11989.976     4082.596        9.581        1.472      401.937       53.580        0.018      344.116       20.704      860.457
05/27/2014  20:25:00     -287.596      -45.042      -13.579      125.026      137.161       54.184    15631.382    18813.176     2935.943        6.114        1.869      291.101       53.151        0.033      344.083       20.647      860.459
05/27/2014  20:26:00     -364.256      -30.256      -29.996       80.822      112.054       42.494     6532.258    12556.140     1805.721        7.769        1.045      365.510       41.311        0.013      344.086       20.652      860.474
05/27/2014  20:27:00     -313.381     -128.196       -0.322       84.863       84.012       49.741     7201.716     7058.046     2474.146        6.568        0.837      338.588       45.949        0.018      344.018       20.536      860.491
05/27/2014  20:28:00     -391.400      -66.470      -25.639      207.306      133.029       81.226    42975.949    17696.691     6597.588       11.276        3.364      397.004       94.323        0.056      344.006       20.515      860.491
05/27/2014  20:29:00     -371.688     -141.396      -13.688      164.475      118.929       65.453    27052.036    14144.108     4284.040       10.190        2.274      397.674       76.920        0.037      344.007       20.518      860.486
05/27/2014  20:30:00     -315.092     -104.716       -0.195      111.521       81.979       65.232    12436.944     6720.610     4255.207        6.683        1.171      332.036       65.252        0.039      343.984       20.478      860.509
05/27/2014  20:31:00     -291.883      -30.335       -9.261      122.419       79.537       58.804    14986.367     6326.062     3457.891        5.548        1.239      293.455       62.822        0.046      343.956       20.430      860.526
05/27/2014  20:32:00     -387.655      -11.509      -36.514      142.047      128.028       59.739    20177.255    16391.199     3568.796        9.593        2.007      387.825       65.106        0.028      343.939       20.399      860.516
05/27/2014  20:33:00     -411.511      -43.573      -20.330      122.738      118.850       63.647    15064.532    14125.426     4050.985       10.244        1.662      413.811       68.334        0.027      343.928       20.382      860.532
05/27/2014  20:34:00     -314.229      -49.838       -7.209      157.215       96.716       58.666    24716.543     9354.039     3441.728        6.939        1.876      318.156       76.167        0.057      343.872       20.288      860.549
05/27/2014  20:35:00     -311.791       41.300      -15.769      142.097      125.697       64.398    20191.698    15799.631     4147.107        6.965        2.007      314.515       68.807        0.048      343.866       20.278      860.556
05/27/2014  20:36:00     -456.461     -130.214      -14.354      156.528      126.269       66.541    24500.919    15943.747     4427.656       13.519        2.244      474.670       73.872        0.024      343.861       20.269      860.541
05/27/2014  20:37:00     -399.189     -124.886      -13.323      149.158      113.730       60.848    22248.113    12934.622     3702.428       10.700        1.944      418.268       63.805        0.023      343.854       20.256      860.533
05/27/2014  20:38:00     -316.543     -104.599       -1.296      145.148      102.997       58.875    21068.017    10608.347     3466.215        7.314        1.757      333.377       59.405        0.032      343.803       20.169      860.549
05/27/2014  20:39:00     -268.570      -94.094       -4.878      120.040      107.640       58.669    14409.692    11586.300     3442.038        5.522        1.472      284.576       39.261        0.019      343.777       20.125      860.555
05/27/2014  20:40:00     -233.986      -59.949       -2.640       99.797       90.026       56.158     9959.421     8104.697     3153.696        3.978        1.061      241.544       58.993        0.060      343.786       20.140      860.558
05/27/2014  20:41:00     -336.341      -31.596      -27.903      139.451       91.145       55.662    19446.714     8307.414     3098.294        7.287        1.543      337.822       64.771        0.037      343.754       20.086      860.549
05/27/2014  20:42:00     -381.246     -109.248      -20.789       84.267       94.425       52.073     7100.998     8916.057     2711.572        8.822        0.936      396.590       48.338        0.015      343.741       20.061      860.556
05/27/2014  20:43:00     -413.782     -142.760      -12.730      241.093      157.997       83.670    58125.615    24963.207     7000.663       14.091        4.504      437.717      104.461        0.057      343.744       20.068      860.529
05/27/2014  20:44:00     -480.292     -162.153       -2.626      227.056      135.580       84.849    51554.648    18381.871     7199.408       16.704        3.857      506.926      109.741        0.047      343.781       20.131      860.544
05/27/2014  20:45:00     -290.269      -17.557       -5.839      137.978      130.835       75.049    19037.958    17117.881     5632.335        6.318        2.089      290.799       72.391        0.062      343.751       20.082      860.573
05/27/2014  20:46:00     -353.725     -140.269        0.948      137.699      109.333       58.359    18960.925    11953.673     3405.776        8.955        1.716      380.522       37.164        0.010      343.791       20.149      860.572
05/27/2014  20:47:00     -492.423      -37.493      -22.730      157.200      138.885       76.861    24711.923    19289.171     5907.665       14.715        2.495      493.848       80.042        0.026      343.769       20.111      860.573
05/27/2014  20:48:00     -273.543      -63.894        2.273      153.215      120.403       66.315    23474.970    14496.795     4397.718        6.063        2.118      280.906       72.384        0.066      343.690       19.976      860.591
05/27/2014  20:49:00     -345.480      -35.413       -7.741      104.520      108.784       64.613    10924.437    11833.901     4174.876        7.380        1.347      347.290       60.086        0.030      343.707       20.003      860.595
05/27/2014  20:50:00     -369.936     -121.643       -9.788      175.429      144.456       67.610    30775.329    20867.476     4571.099       10.397        2.811      389.422       85.970        0.049      343.710       20.010      860.603
05/27/2014  20:51:00     -344.900      -79.053       -6.857       97.820      124.377       55.902     9568.843    15469.598     3125.074        7.670        1.408      353.844       57.945        0.027      343.683       19.962      860.605
05/27/2014  20:52:00     -357.178      -84.656      -21.083      122.028      114.613       56.191    14890.763    13136.231     3157.409        8.318        1.559      367.073       66.337        0.033      343.684       19.965      860.612
05/27/2014  20:53:00     -360.741      -35.954      -12.768      110.840      114.614       58.294    12285.543    13136.391     3398.181        8.020        1.441      362.528       57.018        0.025      343.656       19.918      860.606
05/27/2014  20:54:00     -334.399     -105.487       -5.825      115.032      105.939       61.265    13232.452    11223.177     3753.388        7.559        1.410      350.642       57.574        0.027      343.618       19.853      860.600
05/27/2014  20:55:00     -286.974      -45.672        6.683      146.723      108.463       63.535    21527.569    11764.236     4036.740        6.090        1.866      290.586       78.127        0.072      343.582       19.792      860.608
05/27/2014  20:56:00     -350.594      -91.230      -19.330      115.207      107.769       59.467    13272.620    11614.136     3536.275        8.001        1.421      362.270       56.598        0.024      343.615       19.848      860.599
05/27/2014  20:57:00     -458.983      -53.905      -31.266      125.126      134.770       66.232    15656.539    18163.031     4386.716       12.637        1.910      462.137       56.999        0.015      343.681       19.961      860.590
05/27/2014  20:58:00     -472.801     -150.999      -13.622      122.603      107.576       64.056    15031.425    11572.599     4103.129       13.861        1.535      496.328       58.150        0.014      343.628       19.869      860.584
05/27/2014  20:59:00     -372.773     -121.773      -28.278       99.413       94.076       57.484     9882.885     8850.230     3304.394        8.831        1.102      392.159       46.083        0.014      343.587       19.801      860.597
05/27/2014  21:00:00     -334.397      -26.766      -15.629      144.085      111.314       53.911    20760.477    12390.784     2906.369        7.441        1.803      335.467       65.281        0.038      343.533       19.709      860.607
05/27/2014  21:01:00     -436.009      -24.738      -27.990      162.117      136.755       74.070    26281.768    18701.890     5486.404       12.097        2.524      436.710       82.854        0.036      343.568       19.766      860.596
05/27/2014  21:02:00     -393.535       -8.417      -20.111      161.069      138.091       71.118    25943.313    19069.111     5057.799       10.270        2.504      393.626       77.545        0.039      343.550       19.738      860.615
05/27/2014  21:03:00     -368.183     -114.783      -20.827      144.523      153.131       71.411    20886.918    23449.250     5099.507        9.929        2.472      385.660       70.200        0.033      343.578       19.786      860.588
05/27/2014  21:04:00     -328.595        1.271      -16.532      142.667      102.782       54.663    20353.898    10564.039     2988.097        7.107        1.695      328.598       56.512        0.030      343.559       19.753      860.596
05/27/2014  21:05:00     -407.420     -134.932      -16.313      126.671       86.009       50.420    16045.579     7397.619     2542.165       10.522        1.299      429.183       50.982        0.014      343.538       19.718      860.584
05/27/2014  21:06:00     -453.412     -115.058      -13.788      121.103      102.999       65.797    14666.035    10608.703     4329.311       12.430        1.480      467.783       59.124        0.016      343.493       19.641      860.591
05/27/2014  21:07:00     -395.871     -123.175      -13.087      202.202      155.860       81.050    40885.475    24292.437     6569.168       12.189        3.587      414.591       94.306        0.052      343.478       19.615      860.589
05/27/2014  21:08:00     -380.010      -92.454       -7.174      224.819      161.188       82.869    50543.447    25981.647     6867.326       11.818        4.170      391.095      101.879        0.068      343.488       19.632      860.572
05/27/2014  21:09:00     -499.371     -148.872      -20.258      179.268      124.076       71.011    32136.962    15394.873     5042.538       16.225        2.629      521.089       74.864        0.021      343.486       19.628      860.618
05/27/2014  21:10:00     -270.037      -86.347       -2.511      168.832      122.229       63.086    28504.310    14939.864     3979.823        6.389        2.371      283.506       57.780        0.042      343.442       19.554      860.631
05/27/2014  21:11:00     -343.980      -62.649      -20.507      135.838       95.936       63.512    18451.954     9203.692     4033.796        7.717        1.584      349.639       52.365        0.022      343.451       19.569      860.619
05/27/2014  21:12:00     -371.142      -77.251       -9.390      144.002      117.336       69.014    20736.590    13767.731     4762.899        9.153        1.963      379.096       75.720        0.040      343.410       19.498      860.628
05/27/2014  21:13:00     -382.969      -78.399      -12.996      133.574       94.623       56.964    17842.083     8953.566     3244.910        9.150        1.502      390.911       50.344        0.017      343.404       19.490      860.635
05/27/2014  21:14:00     -283.150      -63.151      -25.437      143.028       99.725       63.474    20457.002     9944.979     4028.903        5.961        1.722      290.107       56.870        0.038      343.409       19.498      860.626
05/27/2014  21:15:00     -410.434      -43.111      -19.770      160.544      144.604       65.924    25774.494    20910.449     4345.938       11.086        2.552      412.692       66.156        0.026      343.417       19.510      860.611
05/27/2014  21:16:00     -369.135     -127.837        1.645      179.233      121.265       80.004    32124.435    14705.097     6400.637       10.291        2.662      390.644       80.890        0.043      343.371       19.431      860.634
05/27/2014  21:17:00     -307.980      -26.735      -10.166      160.644       94.327       63.577    25806.462     8897.653     4042.093        6.720        1.937      309.138       69.656        0.051      343.334       19.372      860.676
05/27/2014  21:18:00     -292.658      -13.545      -12.932      211.416      120.609       72.063    44696.808    14546.536     5193.081        7.520        3.222      292.971       81.082        0.077      343.359       19.413      860.683
05/27/2014  21:19:00     -398.290     -121.475      -19.273      169.367      112.528       79.558    28685.308    12662.635     6329.517       11.071        2.384      416.403       79.731        0.037      343.377       19.444      860.682
05/27/2014  21:20:00     -309.523      -20.247      -12.605      141.400      124.005       69.580    19993.942    15377.210     4841.328        6.828        2.011      310.185       73.154        0.056      343.349       19.394      860.691
05/27/2014  21:21:00     -362.507      -37.394       -7.552      176.568      123.201       66.403    31176.288    15178.525     4409.423        9.181        2.538      364.431       72.459        0.040      343.317       19.339      860.703
05/27/2014  21:22:00     -477.044       31.532      -41.252      151.805      115.438       71.402    23044.871    13325.951     5098.200       13.586        2.073      478.085       74.788        0.024      343.324       19.351      860.713
05/27/2014  21:23:00     -464.938      -56.917      -38.342      122.830      102.613       61.088    15087.155    10529.498     3731.793       12.511        1.467      468.408       58.001        0.015      343.304       19.318      860.713
05/27/2014  21:24:00     -463.242      -98.314      -22.459      140.256      122.384       68.897    19671.683    14977.733     4746.777       13.207        1.970      473.560       75.877        0.026      343.265       19.249      860.737
05/27/2014  21:25:00     -431.200      -85.237      -21.162      169.106      156.889       81.984    28596.856    24614.030     6721.356       12.678        2.997      439.544       61.530        0.020      343.231       19.194      860.741
05/27/2014  21:26:00     -452.390     -105.944      -22.904      188.225      133.030       67.911    35428.595    17697.025     4611.928       13.706        2.887      464.630       74.506        0.026      343.223       19.179      860.761
05/27/2014  21:27:00     -441.167      -59.655      -31.295      170.034      116.531       68.304    28911.424    13579.431     4665.489       12.315        2.358      445.182       74.695        0.028      343.228       19.188      860.779
05/27/2014  21:28:00     -308.037      -69.695      -13.844      160.005      124.239       64.197    25601.651    15435.446     4121.233        7.254        2.258      315.823       75.476        0.057      343.206       19.149      860.774
05/27/2014  21:29:00     -305.443      -59.507      -12.465      129.643      107.783       65.508    16807.321    11617.210     4291.246        6.485        1.636      311.186       67.441        0.047      343.187       19.118      860.779
05/27/2014  21:30:00     -387.943      -91.214      -22.964      133.034      119.615       58.477    17698.166    14307.725     3419.556        9.738        1.771      398.522       53.548        0.018      343.163       19.076      860.767
05/27/2014  21:31:00     -516.998     -120.494      -20.530      218.915      123.354       83.380    47923.735    15216.157     6952.265       17.615        3.505      530.854      104.956        0.039      343.153       19.060      860.773
05/27/2014  21:32:00     -495.932     -101.170      -18.684      186.626      153.479       82.597    34829.160    23555.877     6822.258       16.086        3.260      506.147       89.840        0.032      343.171       19.092      860.799
05/27/2014  21:33:00     -462.956      -57.802      -17.494      134.774      134.423       71.965    18164.111    18069.645     5179.023       12.969        2.071      466.550       68.652        0.022      343.138       19.034      860.793
05/27/2014  21:34:00     -432.614      -72.618      -23.352      163.100      130.970       77.365    26601.746    17153.172     5985.386       12.135        2.487      438.666       77.282        0.031      343.116       18.997      860.804
05/27/2014  21:35:00     -449.920      -47.672      -31.446      203.893      141.547       84.651    41572.386    20035.502     7165.780       13.722        3.439      452.438       90.126        0.040      343.081       18.937      860.808
05/27/2014  21:36:00     -424.488      -27.888      -15.855      214.225      169.949       96.714    45892.507    28882.657     9353.561       13.266        4.206      425.403      117.805        0.077      343.080       18.936      860.808
05/27/2014  21:37:00     -414.425      -84.264       -0.273      190.055      134.190       72.447    36121.068    18007.027     5248.516       11.910        2.969      422.905       61.639        0.021      343.072       18.922      860.820
05/27/2014  21:38:00     -342.200      -48.548      -14.165      191.351      114.480       74.267    36615.094    13105.738     5515.517        8.744        2.762      345.626       90.425        0.068      343.026       18.845      860.843
05/27/2014  21:39:00     -234.639      -80.321        2.438      145.231      126.573       67.023    21092.116    16020.668     4492.142        5.155        2.080      248.006       72.985        0.087      343.059       18.900      860.823
05/27/2014  21:40:00     -375.444      -60.348        0.443      195.775      129.281       73.593    38327.843    16713.534     5415.934       10.252        3.023      380.263       85.081        0.050      343.006       18.809      860.819
05/27/2014  21:41:00     -482.499     -101.844      -14.184      199.131      126.882       78.510    39652.964    16099.110     6163.773       15.263        3.096      493.130       80.781        0.027      343.026       18.843      860.835
05/27/2014  21:42:00     -412.074      -75.823      -15.137      198.466      130.412       80.099    39388.891    17007.369     6415.842       11.929        3.141      418.992       93.558        0.050      343.042       18.871      860.856
05/27/2014  21:43:00     -308.175       -9.346       -1.763      146.024      116.697       71.727    21322.889    13618.220     5144.777        6.757        2.004      308.316       80.259        0.068      342.973       18.754      860.859
05/27/2014  21:44:00     -358.661       12.981      -27.089      249.258      116.492      101.858    62129.785    13570.393    10375.109       10.779        4.304      358.895      133.468        0.138      342.993       18.789      860.856
05/27/2014  21:45:00     -543.873     -148.064      -20.497      243.335      152.031       93.178    59211.681    23113.279     8682.130       20.456        4.550      563.667      105.865        0.035      342.975       18.758      860.824
05/27/2014  21:46:00     -343.955      -95.969       -2.323      205.011      155.319      100.111    42029.307    24123.862    10022.230       10.183        3.809      357.093      118.389        0.110      342.952       18.720      860.873
05/27/2014  21:47:00     -426.899      -48.912      -17.486      202.963      101.198       75.229    41194.090    10241.116     5659.328       12.101        2.855      429.692       97.258        0.051      342.962       18.735      860.887
05/27/2014  21:48:00     -372.139       -3.561      -30.397      161.276      122.447       63.673    26009.892    14993.274     4054.251        9.223        2.253      372.156       70.451        0.036      342.964       18.738      860.884
05/27/2014  21:49:00     -280.636      -77.519        9.331      193.765      158.601       79.647    37544.976    25154.155     6343.601        7.693        3.452      291.146       96.433        0.110      342.942       18.702      860.852
05/27/2014  21:50:00     -297.089      -57.169       -3.024      170.702      154.306       78.683    29139.255    23810.396     6190.995        7.533        2.957      302.539       76.878        0.065      342.878       18.594      860.869
05/27/2014  21:51:00     -283.284      -55.158        2.711      248.198      142.312       86.437    61602.137    20252.696     7471.279        8.630        4.466      288.604       93.055        0.104      342.891       18.614      860.883
05/27/2014  21:52:00     -403.725     -127.023       -9.352      175.126      160.894       86.504    30668.989    25886.866     7482.936       12.161        3.202      423.236       85.851        0.041      342.928       18.677      860.904
05/27/2014  21:53:00     -340.289      -56.123      -15.209      225.212      156.477       78.727    50720.250    24484.959     6198.011       10.027        4.070      344.887      100.330        0.085      342.912       18.651      860.909
05/27/2014  21:54:00     -294.511      -58.703      -10.975      172.821      105.319       73.196    29867.031    11091.993     5357.709        6.830        2.316      300.305       86.401        0.083      342.883       18.601      860.949
05/27/2014  21:55:00     -223.856      -39.228       -1.642      158.692      144.534       70.157    25183.011    20890.055     4922.036        5.131        2.550      227.267       84.139        0.137      342.855       18.554      860.950
05/27/2014  21:56:00     -141.153       40.589       24.741      133.639       98.174       72.737    17859.372     9638.114     5290.727        2.748        1.639      146.873       67.921        0.214      342.821       18.498      860.929
05/27/2014  21:57:00     -468.411      -32.883      -28.471      177.634      124.658       67.917    31553.772    15539.705     4612.683       13.649        2.585      469.563       73.342        0.024      342.836       18.522      860.952
05/27/2014  21:58:00     -363.181      -28.180      -17.689      136.307      113.826       68.442    18579.627    12956.278     4684.312        8.461        1.811      364.273       64.211        0.031      342.822       18.498      860.975
05/27/2014  21:59:00     -454.215      -46.526      -36.512      139.089      111.802       73.910    19345.702    12499.638     5462.738       12.355        1.865      456.592       76.730        0.028      342.863       18.566      860.967
05/27/2014  22:00:00     -412.554      -61.237      -27.994      106.585      101.609       74.705    11360.411    10324.359     5580.792       10.099        1.363      417.074       62.633        0.023      342.810       18.477      860.939
05/27/2014  22:01:00     -402.174      -96.973      -20.436      156.021      134.239       78.984    24342.494    18019.994     6238.510       11.007        2.430      413.700       78.629        0.036      342.752       18.378      860.926
05/27/2014  22:02:00     -408.825      -54.353       -8.350      189.666      123.095       88.470    35973.203    15152.482     7826.913       11.455        2.948      412.422      101.937        0.061      342.713       18.311      860.939
05/27/2014  22:03:00     -393.144      -59.650      -14.704      202.431      130.254       81.468    40978.392    16966.005     6636.974       11.145        3.229      397.643       94.069        0.056      342.754       18.381      860.994
05/27/2014  22:04:00     -381.803      -41.002      -15.781      106.908       87.148       59.790    11429.275     7594.830     3574.831        8.515        1.130      383.999       58.740        0.023      342.747       18.369      861.024
05/27/2014  22:05:00     -414.095     -120.024      -18.016      172.300      156.068       73.422    29687.348    24357.297     5390.813       12.281        2.972      431.139       81.053        0.035      342.710       18.306      860.992
05/27/2014  22:06:00     -529.649     -140.007      -25.933      156.492      169.293       89.578    24489.673    28660.203     8024.303       18.098        3.059      547.841       82.795        0.023      342.666       18.232      861.024
05/27/2014  22:07:00     -481.995      -68.157      -34.416      150.604      112.874       68.595    22681.422    12740.488     4705.217       13.913        2.006      486.790       74.682        0.024      342.712       18.311      861.072
05/27/2014  22:08:00     -500.993      -24.226      -40.737      140.185      176.082       80.324    19651.730    31004.771     6451.905       15.516        2.855      501.579       76.066        0.023      342.688       18.270      861.014
05/27/2014  22:09:00     -403.070     -147.688       -3.046      194.191      167.405       82.890    37710.082    28024.520     6870.752       12.843        3.630      429.275       94.508        0.048      342.704       18.297      861.044
05/27/2014  22:10:00     -194.087      -88.799      -18.689      119.919       86.958       64.878    14380.589     7561.607     4209.137        3.602        1.308      213.437       48.587        0.052      342.686       18.267      861.044
05/27/2014  22:11:00     -367.455      -90.860       -9.045      139.538      118.068       65.754    19470.968    13940.068     4323.553        9.054        1.887      378.522       71.916        0.036      342.607       18.130      861.031
05/27/2014  22:12:00     -211.258      -25.413        4.942      157.867      104.005       67.930    24922.010    10816.991     4614.485        4.282        2.018      212.781       74.053        0.121      342.539       18.018      861.030
05/27/2014  22:13:00     -274.279      -49.982       -5.534      131.277      118.918       57.293    17233.520    14141.558     3282.434        5.620        1.733      278.796       61.285        0.048      342.578       18.083      861.029
05/27/2014  22:14:00     -307.660      -66.564       -4.983      149.912      125.948       65.064    22473.669    15862.946     4233.384        7.083        2.128      314.778       69.458        0.049      342.536       18.010      861.016
05/27/2014  22:15:00     -410.154     -117.929      -35.326      168.282      160.794       75.523    28318.831    25854.620     5703.652       12.162        2.994      426.771       83.815        0.039      342.586       18.096      860.988
05/27/2014  22:16:00     -465.452      -48.151      -24.688      212.108      134.334       82.998    44989.890    18045.513     6888.614       14.473        3.496      467.936       99.743        0.045      342.538       18.016      860.951
05/27/2014  22:17:00     -548.209     -101.291      -35.272      256.137      156.837       94.592    65606.088    24597.822     8947.574       20.557        4.958      557.488      108.021        0.038      342.595       18.113      860.928
05/27/2014  22:18:00     -398.088     -157.505      -22.615      210.017      211.035       90.312    44106.932    44535.938     8156.295       14.028        4.840      428.114       85.266        0.040      342.727       18.337      860.968
05/27/2014  22:19:00     -381.723      -42.837      -15.284      219.842      165.040       90.282    48330.286    27238.163     8150.856       11.573        4.186      384.119      102.572        0.071      342.646       18.198      861.015
05/27/2014  22:20:00     -302.498      -48.481      -24.058      106.123      115.867       54.365    11262.086    13425.203     2955.535        6.103        1.382      306.359       49.819        0.026      342.593       18.108      860.997
05/27/2014  22:21:00     -339.946      -40.439      -37.899      119.362      103.121       60.245    14247.200    10633.908     3629.490        7.357        1.426      342.343       48.890        0.020      342.526       17.993      860.974
05/27/2014  22:22:00     -403.440      -95.067      -10.647      182.478      152.087       88.727    33298.122    23130.548     7872.437       11.810        3.215      414.489      105.631        0.065      342.444       17.854      860.950
05/27/2014  22:23:00     -412.405     -115.997        0.903      176.103      170.522       97.604    31012.112    29077.841     9526.453       12.656        3.481      428.408       87.685        0.042      342.441       17.850      860.960
05/27/2014  22:24:00     -417.381      -66.854      -29.146      138.479      109.033       63.658    19176.416    11888.198     4052.383       10.731        1.756      422.701       61.206        0.021      342.445       17.856      860.969
05/27/2014  22:25:00     -319.912      -26.585       -4.667      138.364      151.860       69.932    19144.648    23061.508     4890.485        7.507        2.355      321.015       71.409        0.049      342.440       17.848      860.881
05/27/2014  22:26:00     -375.722     -125.035       -8.825      170.364      136.112       75.625    29023.957    18526.399     5719.104       10.506        2.663      395.981       85.062        0.046      342.447       17.859      860.885
05/27/2014  22:27:00     -368.530      -49.385      -22.439      181.572      132.743       69.856    32968.346    17620.636     4879.904        9.710        2.773      371.825       78.690        0.045      342.433       17.836      860.901
05/27/2014  22:28:00     -255.079      -89.962      -10.504      157.999      148.173       76.002    24963.680    21955.320     5776.278        6.297        2.635      270.479       73.113        0.073      342.467       17.894      860.915
05/27/2014  22:29:00     -347.782      -83.827       -5.535      183.381      177.209       89.332    33628.520    31402.987     7980.194       10.050        3.651      357.742       95.035        0.071      342.472       17.902      860.875
05/27/2014  22:30:00     -467.481      -36.474       -7.779      206.236      158.072       97.794    42533.133    24986.735     9563.703       14.849        3.854      468.902      117.212        0.062      342.430       17.831      860.879
05/27/2014  22:31:00     -339.528      -90.203       -5.216      165.366      144.921       82.684    27345.789    21002.079     6836.679        8.930        2.759      351.306       80.555        0.053      342.490       17.933      860.868
05/27/2014  22:32:00     -388.659      -56.500      -34.993      184.383      147.633       83.171    33996.914    21795.533     6917.493       10.908        3.135      392.744       93.056        0.056      342.517       17.979      860.847
05/27/2014  22:33:00     -491.227      -38.049      -37.608      232.861      154.881       79.785    54224.080    23988.030     6365.568       16.435        4.229      492.698      104.343        0.045      342.410       17.797      860.852
05/27/2014  22:34:00     -566.278     -101.987      -31.183      189.135      162.805       95.804    35771.972    26505.585     9178.358       20.174        3.573      575.389      107.199        0.035      342.358       17.707      860.836
05/27/2014  22:35:00     -472.830      -54.627      -24.198      256.785      175.775       87.356    65938.407    30896.698     7631.067       16.578        5.223      475.975      102.734        0.047      342.482       17.919      860.866
05/27/2014  22:36:00     -734.709       -8.091      -69.352      261.579      191.904       98.094    68423.533    36827.155     9622.390       32.975        5.744      734.754      110.716        0.023      342.610       18.136      860.822
05/27/2014  22:37:00     -545.712      -93.151      -54.443      179.373      169.630       95.445    32174.695    28774.322     9109.720       18.974        3.503      553.605       96.758        0.031      342.665       18.231      860.798
05/27/2014  22:38:00     -640.655      -98.243      -48.953      208.640      195.059       90.476    43530.617    38047.936     8185.819       25.611        4.488      648.144       92.456        0.020      342.596       18.114      860.821
05/27/2014  22:39:00     -452.684      -49.848      -27.353      171.764      136.404       86.489    29502.839    18605.999     7480.377       13.186        2.779      455.420       88.152        0.037      342.540       18.020      860.775
05/27/2014  22:40:00     -461.026     -184.110      -10.582      237.179      155.729       97.469    56253.916    24251.417     9500.176       16.826        4.500      496.429      118.184        0.057      342.498       17.948      860.777
05/27/2014  22:41:00     -445.541      -84.708      -28.369      200.197      170.120       86.894    40078.736    28940.767     7550.603       14.151        3.829      453.522       82.029        0.033      342.509       17.966      860.796
05/27/2014  22:42:00     -257.172      -34.468       -5.488      154.538      101.247       64.549    23882.115    10250.932     4166.602        5.282        1.915      259.472       73.996        0.081      342.477       17.912      860.781
05/27/2014  22:43:00     -481.893      -70.854      -18.038      172.758      139.622       70.033    29845.347    19494.420     4904.605       14.589        2.712      487.074       70.333        0.021      342.479       17.913      860.744
05/27/2014  22:44:00     -562.034     -108.332      -24.283      314.194      233.063      117.330    98717.556    54318.348    13766.226       24.747        8.340      572.380      144.696        0.064      342.415       17.805      860.721
05/27/2014  22:45:00     -515.022     -117.310      -26.091      315.075      183.105      108.766    99272.523    33527.539    11829.950       21.213        7.232      528.213      121.370        0.053      342.554       18.041      860.739
05/27/2014  22:46:00     -490.987      -63.077      -15.893      232.729      183.559      103.980    54162.912    33694.047    10811.904       17.196        4.933      495.022      110.026        0.049      342.491       17.936      860.702
05/27/2014  22:47:00     -513.941      -60.623      -14.777      218.006      143.824       85.155    47526.420    20685.245     7251.289       17.173        3.773      517.504       97.468        0.035      342.462       17.885      860.743
05/27/2014  22:48:00     -354.945     -157.967       -9.783      175.768      171.709       79.471    30894.247    29483.847     6315.590       10.885        3.335      388.510       85.779        0.049      342.437       17.844      860.810
05/27/2014  22:49:00     -527.690      -51.863      -47.213      175.647      125.127       73.463    30851.859    15656.845     5396.814       16.763        2.595      530.232       76.779        0.021      342.416       17.807      860.774
05/27/2014  22:50:00     -450.313      -61.246      -21.530      223.690      121.528       86.591    50037.313    14768.963     7497.980       13.964        3.615      454.459       97.089        0.046      342.372       17.732      860.760
05/27/2014  22:51:00     -474.806      -48.230      -20.389      185.533      145.688       86.650    34422.675    21224.910     7508.206       14.566        3.158      477.250       92.456        0.038      342.378       17.742      860.743
05/27/2014  22:52:00     -560.938      -67.322      -23.883      221.490      182.835       79.136    49057.857    33428.776     6262.447       20.423        4.437      564.964       95.119        0.028      342.429       17.828      860.725
05/27/2014  22:53:00     -284.347      -80.416       -2.883      202.701      154.480       83.640    41087.657    23864.118     6995.731        7.962        3.597      295.500      100.229        0.115      342.386       17.757      860.707
05/27/2014  22:54:00     -537.648     -160.935      -33.471      276.837      147.354       90.578    76638.508    21713.087     8204.375       21.130        5.328      561.218      116.549        0.043      342.401       17.782      860.690
05/27/2014  22:55:00     -665.762     -104.389      -26.815      211.932      198.379      113.067    44915.088    39354.083    12784.255       27.593        4.853      673.897      102.941        0.023      342.437       17.840      860.675
05/27/2014  22:56:00     -599.600     -135.138      -23.439      240.906      183.848      101.976    58035.683    33799.904    10399.111       24.026        5.112      614.640      116.960        0.036      342.447       17.859      860.673
05/27/2014  22:57:00     -553.214      -67.721      -18.546      207.099      182.230       86.106    42890.099    33207.937     7414.324       19.723        4.176      557.343       79.726        0.020      342.424       17.821      860.659
05/27/2014  22:58:00     -420.660     -126.582      -18.821      167.993      121.595       73.574    28221.600    14785.239     5413.097       12.087        2.421      439.293       80.925        0.034      342.322       17.647      860.656
05/27/2014  22:59:00     -455.580     -114.074      -12.087      212.541      147.896       78.953    45173.698    21873.220     6233.546       14.698        3.664      469.644       78.827        0.028      342.318       17.641      860.673
05/27/2014  23:00:00     -473.038     -106.039      -13.197      204.640      156.745       88.010    41877.532    24568.958     7745.775       15.467        3.710      484.777       97.184        0.040      342.347       17.689      860.668
05/27/2014  23:01:00     -396.659      -58.233      -15.291      214.579      152.128       84.368    46043.974    23142.779     7118.020       11.862        3.815      400.911       84.506        0.044      342.385       17.755      860.659
05/27/2014  23:02:00     -353.697      -66.478        4.936      241.596      188.746      106.861    58368.704    35624.882    11419.209       11.746        5.271      359.890      126.133        0.123      342.343       17.685      860.645
05/27/2014  23:03:00     -642.363      -66.049      -11.646      331.784      166.692      115.710   110080.337    27786.347    13388.692       28.416        7.563      645.750      140.125        0.047      342.411       17.798      860.635
05/27/2014  23:04:00     -550.811      -30.781      -35.103      253.199      172.334      105.625    64109.514    29699.091    11156.540       20.525        5.248      551.670      122.146        0.049      342.418       17.810      860.688
05/27/2014  23:05:00     -416.219        0.631      -33.859      180.849      140.910       77.279    32706.388    19855.572     5971.995       11.645        2.927      416.220       77.458        0.035      342.390       17.761      860.716
05/27/2014  23:06:00     -311.633      -81.852        9.181      193.380      126.901       88.288    37395.917    16103.809     7794.745        8.258        3.065      322.203       93.985        0.085      342.307       17.621      860.686
05/27/2014  23:07:00     -643.305     -137.726      -18.431      234.617      162.729       95.422    55045.155    26480.736     9105.382       26.187        4.532      657.883      111.440        0.029      342.326       17.653      860.657
05/27/2014  23:08:00     -434.298      -72.631        1.576      179.263      117.365       76.166    32135.382    13774.657     5801.288       12.279        2.586      440.330       84.897        0.037      342.260       17.542      860.663
05/27/2014  23:09:00     -316.381       -2.862        3.173      158.099      154.053       73.339    24995.158    23732.477     5378.675        7.710        2.705      316.394       79.166        0.063      342.202       17.444      860.668
05/27/2014  23:10:00     -445.794      -42.832      -25.820      240.117      153.414      102.440    57655.981    23535.937    10494.027       14.644        4.584      447.847      115.780        0.067      342.225       17.485      860.629
05/27/2014  23:11:00     -398.816     -103.614       -0.880      241.049      162.834       97.632    58104.660    26515.064     9532.056       13.195        4.708      412.056      118.561        0.083      342.224       17.481      860.622
05/27/2014  23:12:00     -547.019     -140.838      -12.870      248.367      212.915      105.840    61686.005    45332.646    11202.087       21.870        5.911      564.858      120.609        0.046      342.286       17.586      860.592
05/27/2014  23:13:00     -542.449     -197.848      -22.918      278.226      267.474      120.295    77409.701    71542.294    14470.825       24.864        8.171      577.403      105.581        0.033      342.384       17.753      860.557
05/27/2014  23:14:00     -551.958      -56.501      -10.355      254.000      199.676      113.499    64515.943    39870.472    12882.095       21.259        5.863      554.842      118.294        0.045      342.334       17.667      860.604
05/27/2014  23:15:00     -486.919      -57.442      -16.472      202.071      169.783       86.222    40832.881    28826.403     7434.178       15.886        3.855      490.296       90.734        0.034      342.349       17.692      860.612
05/27/2014  23:16:00     -410.945     -215.109      -21.885      246.774      204.172       97.459    60897.611    41686.161     9498.283       16.383        5.604      463.840      108.673        0.055      342.342       17.682      860.654
05/27/2014  23:17:00     -401.306      -70.064        1.659      183.236      163.963       87.100    33575.553    26884.009     7586.328       11.699        3.402      407.376       91.304        0.050      342.308       17.624      860.697
05/27/2014  23:18:00     -386.122      -20.404      -25.387      194.912      114.456       77.918    37990.700    13100.260     6071.202       10.365        2.858      386.661       97.653        0.064      342.264       17.548      860.681
05/27/2014  23:19:00     -609.587       11.536      -65.889      271.351      145.528       88.772    73631.247    21178.293     7880.442       23.936        5.134      609.696      115.312        0.036      342.235       17.499      860.677
05/27/2014  23:20:00     -456.837      -90.206      -15.571      205.741      148.170       94.931    42329.229    21954.354     9011.973       14.517        3.665      465.658      102.646        0.049      342.216       17.469      860.625
05/27/2014  23:21:00     -467.166     -121.580      -11.747      207.203      126.605       80.182    42933.236    16028.780     6429.165       14.926        3.270      482.728       94.266        0.038      342.260       17.541      860.635
05/27/2014  23:22:00     -360.125      -71.071      -23.688      189.792      154.916       85.347    36021.015    23998.877     7284.039       10.129        3.365      367.071       85.314        0.054      342.229       17.489      860.590
05/27/2014  23:23:00     -553.796      -64.086      -20.634      242.337      145.900      103.337    58727.453    21286.929    10678.511       20.094        4.535      557.492      106.488        0.036      342.223       17.480      860.581
05/27/2014  23:24:00     -537.402     -109.344      -42.505      222.844      175.300       99.042    49659.458    30730.119     9809.307       19.636        4.510      548.413      105.965        0.037      342.246       17.519      860.596
05/27/2014  23:25:00     -587.983      -54.281      -25.501      220.918      134.911       85.798    48804.910    18200.882     7361.250       21.183        3.718      590.484       97.853        0.027      342.262       17.546      860.611
05/27/2014  23:26:00     -494.028      -25.412      -20.968      213.619      142.060       84.407    45633.073    20181.098     7124.457       15.903        3.647      494.681      100.747        0.041      342.229       17.489      860.586
05/27/2014  23:27:00     -476.416      -63.096      -33.571      188.366      161.070       85.496    35481.892    25943.696     7309.565       15.039        3.437      480.576       95.126        0.039      342.228       17.487      860.535
05/27/2014  23:28:00     -640.772     -108.739      -29.187      274.496      188.430      108.044    75347.811    35505.791    11673.502       27.287        6.126      649.933      138.673        0.046      342.182       17.410      860.485
05/27/2014  23:29:00     -450.844     -112.424       -4.224      215.240      156.676       97.464    46328.077    24547.489     9499.251       14.813        4.019      464.650      102.964        0.049      342.135       17.330      860.437
05/27/2014  23:30:00     -557.685      -91.724      -42.590      272.798      219.195      115.708    74418.948    48046.561    13388.444       22.852        6.793      565.177      126.433        0.050      342.205       17.450      860.443
05/27/2014  23:31:00     -568.894     -167.132      -10.768      302.437      235.325      116.682    91467.992    55377.904    13614.619       25.604        8.023      592.936      126.766        0.046      342.235       17.500      860.459
05/27/2014  23:32:00     -567.281      -52.881      -31.262      209.652      219.807      109.234    43954.139    48315.291    11932.026       21.487        5.210      569.740      111.364        0.038      342.204       17.448      860.441
05/27/2014  23:33:00     -570.995      -90.808      -24.419      298.419      208.885      117.200    89054.060    43632.904    13735.787       24.062        7.321      578.170      144.346        0.062      342.210       17.457      860.422
05/27/2014  23:34:00     -675.744      -65.566      -32.109      304.717      211.967      110.615    92852.399    44929.974    12235.589       30.596        7.501      678.918      113.762        0.028      342.217       17.468      860.400
05/27/2014  23:35:00     -561.078     -110.833       -3.612      291.627      168.896      113.379    85046.444    28525.707    12854.887       22.674        6.321      571.920      138.593        0.059      342.240       17.507      860.362
05/27/2014  23:36:00     -616.474     -175.637      -17.548      260.943      184.089      100.103    68091.127    33888.629    10020.518       26.158        5.600      641.006      111.814        0.030      342.273       17.564      860.361
05/27/2014  23:37:00     -672.922      -63.578      -32.188      238.142      164.783      105.297    56711.641    27153.555    11087.553       27.641        4.748      675.919      125.306        0.034      342.227       17.485      860.357
05/27/2014  23:38:00     -639.025      -81.241      -25.414      227.402      187.288       99.715    51711.849    35076.811     9943.033       25.615        4.837      644.168      101.196        0.025      342.316       17.637      860.398
05/27/2014  23:39:00     -665.120      -21.349      -36.943      243.653      214.944       97.794    59366.868    46200.976     9563.672       27.965        5.757      665.463       96.871        0.021      342.281       17.578      860.413
05/27/2014  23:40:00     -599.827      -92.137      -19.961      241.779      249.750      110.226    58457.324    62375.297    12149.756       25.080        6.649      606.862      116.008        0.037      342.280       17.576      860.396
05/27/2014  23:41:00     -672.367      -42.589      -57.177      242.867      193.206      101.519    58984.604    37328.573    10306.172       28.187        5.331      673.715       89.331        0.018      342.273       17.565      860.361
05/27/2014  23:42:00     -582.400      -85.016      -20.026      220.037      196.975       92.334    48416.376    38799.149     8525.601       22.126        4.787      588.573       96.944        0.027      342.265       17.550      860.399
05/27/2014  23:43:00     -382.090      -90.371        3.213      255.969      146.724      116.957    65519.956    21527.847    13679.005       12.743        5.036      392.632      142.701        0.132      342.248       17.521      860.436
05/27/2014  23:44:00     -420.534      -29.459      -31.872      147.224      128.750       75.217    21675.020    16576.473     5657.552       11.131        2.195      421.564       74.393        0.031      342.211       17.459      860.450
05/27/2014  23:45:00     -424.595     -115.166      -26.800      176.003      113.052       72.435    30976.893    12780.643     5246.808       12.162        2.450      439.937       83.995        0.036      342.164       17.380      860.439
05/27/2014  23:46:00     -467.797      -35.319      -13.703      190.488      151.101       77.679    36285.532    22831.659     6033.969       14.270        3.258      469.128       85.660        0.033      342.141       17.340      860.444
05/27/2014  23:47:00     -464.372      -17.935      -16.247      185.734      136.556       98.467    34497.222    18647.575     9695.846       13.952        3.142      464.718       96.824        0.043      342.113       17.292      860.426
05/27/2014  23:48:00     -548.399     -101.946      -12.795      188.608      159.476       99.940    35572.949    25432.607     9987.934       19.113        3.550      557.794      100.744        0.033      342.128       17.317      860.391
05/27/2014  23:49:00     -543.252     -154.673      -12.648      208.846      137.387       84.054    43616.604    18875.138     7065.029       19.437        3.478      564.842       89.779        0.025      342.136       17.331      860.400
05/27/2014  23:50:00     -534.153      -80.174      -18.512      230.571      211.183      105.703    53162.885    44598.119    11173.027       20.049        5.447      540.137      116.238        0.046      342.144       17.345      860.404
05/27/2014  23:51:00     -539.746      -90.656      -47.263      178.489      185.063       95.614    31858.253    34248.331     9142.101       18.850        3.762      547.307       99.552        0.033      342.205       17.449      860.387
05/27/2014  23:52:00     -478.253      -69.603      -15.215      250.707      178.878       86.335    62854.166    31997.462     7453.663       16.803        5.115      483.291       96.530        0.040      342.226       17.485      860.355
05/27/2014  23:53:00     -512.849      -88.494      -18.208      256.278      174.643      107.549    65678.517    30500.066    11566.697       18.944        5.387      520.428      126.395        0.059      342.224       17.479      860.333
05/27/2014  23:54:00     -530.524      -54.865      -32.947      209.172      138.912       90.871    43752.981    19296.646     8257.491       17.841        3.565      533.354       97.329        0.033      342.215       17.466      860.364
05/27/2014  23:55:00     -642.742     -153.456      -38.549      238.452      170.879      103.401    56859.381    29199.513    10691.841       26.743        4.838      660.807      111.639        0.029      342.214       17.465      860.358
05/27/2014  23:56:00     -578.078      -95.429      -22.644      272.928      217.147      113.413    74489.510    47152.967    12862.475       23.912        6.725      585.902      126.192        0.046      342.179       17.404      860.394
05/27/2014  23:57:00     -644.176     -135.147      -30.727      203.194      202.171      106.002    41287.933    40872.919    11236.339       26.377        4.670      658.200      109.699        0.028      342.179       17.406      860.406
05/27/2014  23:58:00     -540.188      -34.741      -32.410      186.759      187.249       99.240    34878.882    35062.187     9848.587       18.691        3.989      541.304       99.580        0.034      342.085       17.244      860.415
05/27/2014  23:59:00     -579.373      -98.601      -28.810      226.380      160.261      101.948    51247.796    25683.487    10393.484       21.676        4.366      587.704      101.525        0.030      342.090       17.254      860.369
